<?xml version="1.0" encoding="UTF-8" standalone="no" ?>
<gpx xmlns="http://www.topografix.com/GPX/1/1" xmlns:xsi="http://www.w3.org/2001/XMLSchema-instance" xsi:schemaLocation="http://www.topografix.com/GPX/1/1 http://www.topografix.com/GPX/1/1/gpx.xsd" version="1.1" creator="VisuGPX - https://www.visugpx.com">
  <metadata>
    <name>Randonnée à Montaigu de Quercy du 23 septembre 2012</name>
    <desc><![CDATA[Randonnée à Montaigu de Quercy du 23 septembre 2012]]></desc>
  </metadata>
  <trk>
    <name><![CDATA[Randonnée à Montaigu de Quercy du 23 septembre 2012_1]]></name>
    <trkseg>
      <trkpt lat="44.34023" lon="1.02233">
        <ele>165</ele>
        <time>2012-09-23T05:46:16Z</time>
      </trkpt>
      <trkpt lat="44.34" lon="1.02211">
        <ele>151</ele>
        <time>2012-09-23T05:46:58Z</time>
      </trkpt>
      <trkpt lat="44.3399" lon="1.02195">
        <ele>150</ele>
        <time>2012-09-23T05:47:03Z</time>
      </trkpt>
      <trkpt lat="44.33979" lon="1.02176">
        <ele>150</ele>
        <time>2012-09-23T05:47:08Z</time>
      </trkpt>
      <trkpt lat="44.33968" lon="1.02156">
        <ele>150</ele>
        <time>2012-09-23T05:47:13Z</time>
      </trkpt>
      <trkpt lat="44.33956" lon="1.02136">
        <ele>148</ele>
        <time>2012-09-23T05:47:18Z</time>
      </trkpt>
      <trkpt lat="44.33944" lon="1.02116">
        <ele>148</ele>
        <time>2012-09-23T05:47:23Z</time>
      </trkpt>
      <trkpt lat="44.33943" lon="1.02092">
        <ele>148</ele>
        <time>2012-09-23T05:47:28Z</time>
      </trkpt>
      <trkpt lat="44.3395" lon="1.02066">
        <ele>148</ele>
        <time>2012-09-23T05:47:33Z</time>
      </trkpt>
      <trkpt lat="44.33936" lon="1.02046">
        <ele>148</ele>
        <time>2012-09-23T05:47:38Z</time>
      </trkpt>
      <trkpt lat="44.33915" lon="1.02027">
        <ele>148</ele>
        <time>2012-09-23T05:47:43Z</time>
      </trkpt>
      <trkpt lat="44.33903" lon="1.01996">
        <ele>148</ele>
        <time>2012-09-23T05:47:48Z</time>
      </trkpt>
      <trkpt lat="44.33892" lon="1.01964">
        <ele>148</ele>
        <time>2012-09-23T05:47:53Z</time>
      </trkpt>
      <trkpt lat="44.33887" lon="1.0193">
        <ele>148</ele>
        <time>2012-09-23T05:47:58Z</time>
      </trkpt>
      <trkpt lat="44.33876" lon="1.01901">
        <ele>148</ele>
        <time>2012-09-23T05:48:03Z</time>
      </trkpt>
      <trkpt lat="44.33862" lon="1.01876">
        <ele>148</ele>
        <time>2012-09-23T05:48:08Z</time>
      </trkpt>
      <trkpt lat="44.33869" lon="1.01851">
        <ele>149</ele>
        <time>2012-09-23T05:48:13Z</time>
      </trkpt>
      <trkpt lat="44.33894" lon="1.01838">
        <ele>152</ele>
        <time>2012-09-23T05:48:18Z</time>
      </trkpt>
      <trkpt lat="44.33916" lon="1.01858">
        <ele>153</ele>
        <time>2012-09-23T05:48:23Z</time>
      </trkpt>
      <trkpt lat="44.33939" lon="1.01875">
        <ele>154</ele>
        <time>2012-09-23T05:48:28Z</time>
      </trkpt>
      <trkpt lat="44.33966" lon="1.01857">
        <ele>154</ele>
        <time>2012-09-23T05:48:33Z</time>
      </trkpt>
      <trkpt lat="44.33986" lon="1.01839">
        <ele>154</ele>
        <time>2012-09-23T05:48:38Z</time>
      </trkpt>
      <trkpt lat="44.3399" lon="1.01815">
        <ele>155</ele>
        <time>2012-09-23T05:48:43Z</time>
      </trkpt>
      <trkpt lat="44.34003" lon="1.01821">
        <ele>158</ele>
        <time>2012-09-23T05:48:48Z</time>
      </trkpt>
      <trkpt lat="44.34025" lon="1.01832">
        <ele>161</ele>
        <time>2012-09-23T05:48:53Z</time>
      </trkpt>
      <trkpt lat="44.34046" lon="1.01837">
        <ele>165</ele>
        <time>2012-09-23T05:48:58Z</time>
      </trkpt>
      <trkpt lat="44.34061" lon="1.01851">
        <ele>166</ele>
        <time>2012-09-23T05:49:03Z</time>
      </trkpt>
      <trkpt lat="44.3408" lon="1.01881">
        <ele>166</ele>
        <time>2012-09-23T05:49:08Z</time>
      </trkpt>
      <trkpt lat="44.34093" lon="1.01912">
        <ele>166</ele>
        <time>2012-09-23T05:49:13Z</time>
      </trkpt>
      <trkpt lat="44.34108" lon="1.0194">
        <ele>166</ele>
        <time>2012-09-23T05:49:18Z</time>
      </trkpt>
      <trkpt lat="44.34128" lon="1.01966">
        <ele>163</ele>
        <time>2012-09-23T05:49:23Z</time>
      </trkpt>
      <trkpt lat="44.34149" lon="1.01989">
        <ele>162</ele>
        <time>2012-09-23T05:49:28Z</time>
      </trkpt>
      <trkpt lat="44.34169" lon="1.02016">
        <ele>161</ele>
        <time>2012-09-23T05:49:33Z</time>
      </trkpt>
      <trkpt lat="44.34191" lon="1.02048">
        <ele>159</ele>
        <time>2012-09-23T05:49:38Z</time>
      </trkpt>
      <trkpt lat="44.34212" lon="1.02075">
        <ele>157</ele>
        <time>2012-09-23T05:49:43Z</time>
      </trkpt>
      <trkpt lat="44.34225" lon="1.02107">
        <ele>157</ele>
        <time>2012-09-23T05:49:48Z</time>
      </trkpt>
      <trkpt lat="44.34207" lon="1.02137">
        <ele>157</ele>
        <time>2012-09-23T05:49:53Z</time>
      </trkpt>
      <trkpt lat="44.34183" lon="1.02162">
        <ele>157</ele>
        <time>2012-09-23T05:49:58Z</time>
      </trkpt>
      <trkpt lat="44.34184" lon="1.02194">
        <ele>157</ele>
        <time>2012-09-23T05:50:03Z</time>
      </trkpt>
      <trkpt lat="44.34194" lon="1.02226">
        <ele>157</ele>
        <time>2012-09-23T05:50:08Z</time>
      </trkpt>
      <trkpt lat="44.3421" lon="1.02257">
        <ele>157</ele>
        <time>2012-09-23T05:50:13Z</time>
      </trkpt>
      <trkpt lat="44.34229" lon="1.02287">
        <ele>157</ele>
        <time>2012-09-23T05:50:18Z</time>
      </trkpt>
      <trkpt lat="44.34247" lon="1.02321">
        <ele>157</ele>
        <time>2012-09-23T05:50:23Z</time>
      </trkpt>
      <trkpt lat="44.34262" lon="1.02356">
        <ele>157</ele>
        <time>2012-09-23T05:50:28Z</time>
      </trkpt>
      <trkpt lat="44.34287" lon="1.02364">
        <ele>157</ele>
        <time>2012-09-23T05:50:33Z</time>
      </trkpt>
      <trkpt lat="44.34312" lon="1.02347">
        <ele>157</ele>
        <time>2012-09-23T05:50:38Z</time>
      </trkpt>
      <trkpt lat="44.34337" lon="1.0233">
        <ele>157</ele>
        <time>2012-09-23T05:50:43Z</time>
      </trkpt>
      <trkpt lat="44.34358" lon="1.02315">
        <ele>157</ele>
        <time>2012-09-23T05:50:48Z</time>
      </trkpt>
      <trkpt lat="44.34379" lon="1.023">
        <ele>158</ele>
        <time>2012-09-23T05:50:53Z</time>
      </trkpt>
      <trkpt lat="44.344" lon="1.02298">
        <ele>158</ele>
        <time>2012-09-23T05:50:58Z</time>
      </trkpt>
      <trkpt lat="44.3441" lon="1.02325">
        <ele>159</ele>
        <time>2012-09-23T05:51:03Z</time>
      </trkpt>
      <trkpt lat="44.34419" lon="1.02351">
        <ele>159</ele>
        <time>2012-09-23T05:51:08Z</time>
      </trkpt>
      <trkpt lat="44.34428" lon="1.02373">
        <ele>159</ele>
        <time>2012-09-23T05:51:13Z</time>
      </trkpt>
      <trkpt lat="44.34439" lon="1.02394">
        <ele>161</ele>
        <time>2012-09-23T05:51:18Z</time>
      </trkpt>
      <trkpt lat="44.34454" lon="1.02417">
        <ele>163</ele>
        <time>2012-09-23T05:51:24Z</time>
      </trkpt>
      <trkpt lat="44.3447" lon="1.02432">
        <ele>164</ele>
        <time>2012-09-23T05:51:29Z</time>
      </trkpt>
      <trkpt lat="44.34491" lon="1.02436">
        <ele>165</ele>
        <time>2012-09-23T05:51:34Z</time>
      </trkpt>
      <trkpt lat="44.34516" lon="1.02443">
        <ele>165</ele>
        <time>2012-09-23T05:51:39Z</time>
      </trkpt>
      <trkpt lat="44.34529" lon="1.02469">
        <ele>165</ele>
        <time>2012-09-23T05:51:44Z</time>
      </trkpt>
      <trkpt lat="44.3453" lon="1.02505">
        <ele>166</ele>
        <time>2012-09-23T05:51:49Z</time>
      </trkpt>
      <trkpt lat="44.34532" lon="1.02541">
        <ele>166</ele>
        <time>2012-09-23T05:51:54Z</time>
      </trkpt>
      <trkpt lat="44.34535" lon="1.02576">
        <ele>167</ele>
        <time>2012-09-23T05:51:59Z</time>
      </trkpt>
      <trkpt lat="44.34543" lon="1.02612">
        <ele>167</ele>
        <time>2012-09-23T05:52:04Z</time>
      </trkpt>
      <trkpt lat="44.34552" lon="1.02651">
        <ele>167</ele>
        <time>2012-09-23T05:52:09Z</time>
      </trkpt>
      <trkpt lat="44.34562" lon="1.02684">
        <ele>167</ele>
        <time>2012-09-23T05:52:14Z</time>
      </trkpt>
      <trkpt lat="44.34576" lon="1.02723">
        <ele>167</ele>
        <time>2012-09-23T05:52:19Z</time>
      </trkpt>
      <trkpt lat="44.34592" lon="1.0276">
        <ele>167</ele>
        <time>2012-09-23T05:52:24Z</time>
      </trkpt>
      <trkpt lat="44.34612" lon="1.02795">
        <ele>167</ele>
        <time>2012-09-23T05:52:29Z</time>
      </trkpt>
      <trkpt lat="44.34629" lon="1.02823">
        <ele>167</ele>
        <time>2012-09-23T05:52:34Z</time>
      </trkpt>
      <trkpt lat="44.34653" lon="1.02838">
        <ele>167</ele>
        <time>2012-09-23T05:52:39Z</time>
      </trkpt>
      <trkpt lat="44.34678" lon="1.0284">
        <ele>167</ele>
        <time>2012-09-23T05:52:44Z</time>
      </trkpt>
      <trkpt lat="44.34706" lon="1.02835">
        <ele>167</ele>
        <time>2012-09-23T05:52:49Z</time>
      </trkpt>
      <trkpt lat="44.34731" lon="1.02846">
        <ele>167</ele>
        <time>2012-09-23T05:52:54Z</time>
      </trkpt>
      <trkpt lat="44.34751" lon="1.02861">
        <ele>167</ele>
        <time>2012-09-23T05:52:59Z</time>
      </trkpt>
      <trkpt lat="44.3477" lon="1.02871">
        <ele>167</ele>
        <time>2012-09-23T05:53:04Z</time>
      </trkpt>
      <trkpt lat="44.34785" lon="1.02859">
        <ele>169</ele>
        <time>2012-09-23T05:53:09Z</time>
      </trkpt>
      <trkpt lat="44.34794" lon="1.02839">
        <ele>171</ele>
        <time>2012-09-23T05:53:14Z</time>
      </trkpt>
      <trkpt lat="44.34806" lon="1.02815">
        <ele>172</ele>
        <time>2012-09-23T05:53:19Z</time>
      </trkpt>
      <trkpt lat="44.34824" lon="1.02796">
        <ele>174</ele>
        <time>2012-09-23T05:53:24Z</time>
      </trkpt>
      <trkpt lat="44.34842" lon="1.02779">
        <ele>174</ele>
        <time>2012-09-23T05:53:29Z</time>
      </trkpt>
      <trkpt lat="44.3486" lon="1.02761">
        <ele>174</ele>
        <time>2012-09-23T05:53:34Z</time>
      </trkpt>
      <trkpt lat="44.34887" lon="1.02744">
        <ele>171</ele>
        <time>2012-09-23T05:53:39Z</time>
      </trkpt>
      <trkpt lat="44.34904" lon="1.02727">
        <ele>166</ele>
        <time>2012-09-23T05:53:44Z</time>
      </trkpt>
      <trkpt lat="44.34924" lon="1.02711">
        <ele>162</ele>
        <time>2012-09-23T05:53:49Z</time>
      </trkpt>
      <trkpt lat="44.34941" lon="1.02693">
        <ele>160</ele>
        <time>2012-09-23T05:53:54Z</time>
      </trkpt>
      <trkpt lat="44.34956" lon="1.02679">
        <ele>159</ele>
        <time>2012-09-23T05:53:59Z</time>
      </trkpt>
      <trkpt lat="44.34976" lon="1.02667">
        <ele>158</ele>
        <time>2012-09-23T05:54:04Z</time>
      </trkpt>
      <trkpt lat="44.34993" lon="1.02653">
        <ele>158</ele>
        <time>2012-09-23T05:54:09Z</time>
      </trkpt>
      <trkpt lat="44.35009" lon="1.02638">
        <ele>161</ele>
        <time>2012-09-23T05:54:14Z</time>
      </trkpt>
      <trkpt lat="44.35022" lon="1.02624">
        <ele>166</ele>
        <time>2012-09-23T05:54:19Z</time>
      </trkpt>
      <trkpt lat="44.35033" lon="1.02608">
        <ele>171</ele>
        <time>2012-09-23T05:54:24Z</time>
      </trkpt>
      <trkpt lat="44.35045" lon="1.02587">
        <ele>176</ele>
        <time>2012-09-23T05:54:29Z</time>
      </trkpt>
      <trkpt lat="44.35056" lon="1.02564">
        <ele>180</ele>
        <time>2012-09-23T05:54:34Z</time>
      </trkpt>
      <trkpt lat="44.35062" lon="1.02532">
        <ele>183</ele>
        <time>2012-09-23T05:54:39Z</time>
      </trkpt>
      <trkpt lat="44.35082" lon="1.02511">
        <ele>184</ele>
        <time>2012-09-23T05:54:44Z</time>
      </trkpt>
      <trkpt lat="44.35093" lon="1.02496">
        <ele>184</ele>
        <time>2012-09-23T05:54:49Z</time>
      </trkpt>
      <trkpt lat="44.35101" lon="1.02478">
        <ele>184</ele>
        <time>2012-09-23T05:54:54Z</time>
      </trkpt>
      <trkpt lat="44.35114" lon="1.02456">
        <ele>184</ele>
        <time>2012-09-23T05:54:59Z</time>
      </trkpt>
      <trkpt lat="44.3512" lon="1.02437">
        <ele>184</ele>
        <time>2012-09-23T05:55:04Z</time>
      </trkpt>
      <trkpt lat="44.35124" lon="1.02416">
        <ele>184</ele>
        <time>2012-09-23T05:55:09Z</time>
      </trkpt>
      <trkpt lat="44.35125" lon="1.02393">
        <ele>184</ele>
        <time>2012-09-23T05:55:14Z</time>
      </trkpt>
      <trkpt lat="44.3513" lon="1.02366">
        <ele>186</ele>
        <time>2012-09-23T05:55:19Z</time>
      </trkpt>
      <trkpt lat="44.35136" lon="1.02339">
        <ele>187</ele>
        <time>2012-09-23T05:55:24Z</time>
      </trkpt>
      <trkpt lat="44.35141" lon="1.02308">
        <ele>190</ele>
        <time>2012-09-23T05:55:29Z</time>
      </trkpt>
      <trkpt lat="44.35147" lon="1.02279">
        <ele>190</ele>
        <time>2012-09-23T05:55:34Z</time>
      </trkpt>
      <trkpt lat="44.35157" lon="1.02253">
        <ele>190</ele>
        <time>2012-09-23T05:55:39Z</time>
      </trkpt>
      <trkpt lat="44.35164" lon="1.02229">
        <ele>190</ele>
        <time>2012-09-23T05:55:44Z</time>
      </trkpt>
      <trkpt lat="44.35172" lon="1.02203">
        <ele>192</ele>
        <time>2012-09-23T05:55:49Z</time>
      </trkpt>
      <trkpt lat="44.35176" lon="1.0218">
        <ele>195</ele>
        <time>2012-09-23T05:55:54Z</time>
      </trkpt>
      <trkpt lat="44.35181" lon="1.02154">
        <ele>197</ele>
        <time>2012-09-23T05:55:59Z</time>
      </trkpt>
      <trkpt lat="44.35181" lon="1.02124">
        <ele>199</ele>
        <time>2012-09-23T05:56:04Z</time>
      </trkpt>
      <trkpt lat="44.35184" lon="1.02098">
        <ele>199</ele>
        <time>2012-09-23T05:56:09Z</time>
      </trkpt>
      <trkpt lat="44.35189" lon="1.02073">
        <ele>199</ele>
        <time>2012-09-23T05:56:14Z</time>
      </trkpt>
      <trkpt lat="44.35191" lon="1.02046">
        <ele>199</ele>
        <time>2012-09-23T05:56:19Z</time>
      </trkpt>
      <trkpt lat="44.35199" lon="1.02025">
        <ele>199</ele>
        <time>2012-09-23T05:56:24Z</time>
      </trkpt>
      <trkpt lat="44.3521" lon="1.02008">
        <ele>199</ele>
        <time>2012-09-23T05:56:29Z</time>
      </trkpt>
      <trkpt lat="44.35221" lon="1.02001">
        <ele>199</ele>
        <time>2012-09-23T05:56:34Z</time>
      </trkpt>
      <trkpt lat="44.35236" lon="1.01995">
        <ele>198</ele>
        <time>2012-09-23T05:56:39Z</time>
      </trkpt>
      <trkpt lat="44.35251" lon="1.01994">
        <ele>198</ele>
        <time>2012-09-23T05:56:44Z</time>
      </trkpt>
      <trkpt lat="44.35262" lon="1.01996">
        <ele>199</ele>
        <time>2012-09-23T05:56:49Z</time>
      </trkpt>
      <trkpt lat="44.35277" lon="1.02001">
        <ele>202</ele>
        <time>2012-09-23T05:56:54Z</time>
      </trkpt>
      <trkpt lat="44.35294" lon="1.02006">
        <ele>202</ele>
        <time>2012-09-23T05:56:59Z</time>
      </trkpt>
      <trkpt lat="44.35311" lon="1.02006">
        <ele>202</ele>
        <time>2012-09-23T05:57:04Z</time>
      </trkpt>
      <trkpt lat="44.35326" lon="1.02003">
        <ele>204</ele>
        <time>2012-09-23T05:57:09Z</time>
      </trkpt>
      <trkpt lat="44.3534" lon="1.01998">
        <ele>204</ele>
        <time>2012-09-23T05:57:14Z</time>
      </trkpt>
      <trkpt lat="44.35357" lon="1.01991">
        <ele>204</ele>
        <time>2012-09-23T05:57:19Z</time>
      </trkpt>
      <trkpt lat="44.35369" lon="1.01979">
        <ele>204</ele>
        <time>2012-09-23T05:57:24Z</time>
      </trkpt>
      <trkpt lat="44.35383" lon="1.01965">
        <ele>204</ele>
        <time>2012-09-23T05:57:29Z</time>
      </trkpt>
      <trkpt lat="44.35397" lon="1.01952">
        <ele>204</ele>
        <time>2012-09-23T05:57:34Z</time>
      </trkpt>
      <trkpt lat="44.35409" lon="1.01943">
        <ele>204</ele>
        <time>2012-09-23T05:57:39Z</time>
      </trkpt>
      <trkpt lat="44.35421" lon="1.0194">
        <ele>204</ele>
        <time>2012-09-23T05:57:44Z</time>
      </trkpt>
      <trkpt lat="44.35424" lon="1.01947">
        <ele>208</ele>
        <time>2012-09-23T05:57:49Z</time>
      </trkpt>
      <trkpt lat="44.35418" lon="1.01962">
        <ele>213</ele>
        <time>2012-09-23T05:57:54Z</time>
      </trkpt>
      <trkpt lat="44.35409" lon="1.01981">
        <ele>218</ele>
        <time>2012-09-23T05:57:59Z</time>
      </trkpt>
      <trkpt lat="44.35401" lon="1.02">
        <ele>220</ele>
        <time>2012-09-23T05:58:04Z</time>
      </trkpt>
      <trkpt lat="44.35397" lon="1.02018">
        <ele>222</ele>
        <time>2012-09-23T05:58:09Z</time>
      </trkpt>
      <trkpt lat="44.35394" lon="1.02036">
        <ele>224</ele>
        <time>2012-09-23T05:58:14Z</time>
      </trkpt>
      <trkpt lat="44.35389" lon="1.02053">
        <ele>225</ele>
        <time>2012-09-23T05:58:19Z</time>
      </trkpt>
      <trkpt lat="44.35383" lon="1.0207">
        <ele>225</ele>
        <time>2012-09-23T05:58:24Z</time>
      </trkpt>
      <trkpt lat="44.35378" lon="1.02088">
        <ele>225</ele>
        <time>2012-09-23T05:58:29Z</time>
      </trkpt>
      <trkpt lat="44.35373" lon="1.02107">
        <ele>226</ele>
        <time>2012-09-23T05:58:34Z</time>
      </trkpt>
      <trkpt lat="44.35366" lon="1.02128">
        <ele>227</ele>
        <time>2012-09-23T05:58:39Z</time>
      </trkpt>
      <trkpt lat="44.35362" lon="1.02149">
        <ele>228</ele>
        <time>2012-09-23T05:58:44Z</time>
      </trkpt>
      <trkpt lat="44.35361" lon="1.0217">
        <ele>229</ele>
        <time>2012-09-23T05:58:49Z</time>
      </trkpt>
      <trkpt lat="44.35354" lon="1.02196">
        <ele>230</ele>
        <time>2012-09-23T05:58:54Z</time>
      </trkpt>
      <trkpt lat="44.35347" lon="1.02223">
        <ele>231</ele>
        <time>2012-09-23T05:58:59Z</time>
      </trkpt>
      <trkpt lat="44.35349" lon="1.02254">
        <ele>231</ele>
        <time>2012-09-23T05:59:04Z</time>
      </trkpt>
      <trkpt lat="44.3535" lon="1.02286">
        <ele>231</ele>
        <time>2012-09-23T05:59:09Z</time>
      </trkpt>
      <trkpt lat="44.35347" lon="1.02318">
        <ele>231</ele>
        <time>2012-09-23T05:59:14Z</time>
      </trkpt>
      <trkpt lat="44.35342" lon="1.02348">
        <ele>231</ele>
        <time>2012-09-23T05:59:19Z</time>
      </trkpt>
      <trkpt lat="44.35343" lon="1.02378">
        <ele>231</ele>
        <time>2012-09-23T05:59:24Z</time>
      </trkpt>
      <trkpt lat="44.35344" lon="1.02405">
        <ele>233</ele>
        <time>2012-09-23T05:59:29Z</time>
      </trkpt>
      <trkpt lat="44.35345" lon="1.0243">
        <ele>235</ele>
        <time>2012-09-23T05:59:34Z</time>
      </trkpt>
      <trkpt lat="44.35346" lon="1.02454">
        <ele>237</ele>
        <time>2012-09-23T05:59:39Z</time>
      </trkpt>
      <trkpt lat="44.35347" lon="1.02476">
        <ele>238</ele>
        <time>2012-09-23T05:59:44Z</time>
      </trkpt>
      <trkpt lat="44.35347" lon="1.02498">
        <ele>239</ele>
        <time>2012-09-23T05:59:49Z</time>
      </trkpt>
      <trkpt lat="44.35345" lon="1.0252">
        <ele>239</ele>
        <time>2012-09-23T05:59:54Z</time>
      </trkpt>
      <trkpt lat="44.35339" lon="1.02542">
        <ele>239</ele>
        <time>2012-09-23T05:59:59Z</time>
      </trkpt>
      <trkpt lat="44.35324" lon="1.02565">
        <ele>239</ele>
        <time>2012-09-23T06:00:04Z</time>
      </trkpt>
      <trkpt lat="44.35308" lon="1.02588">
        <ele>239</ele>
        <time>2012-09-23T06:00:09Z</time>
      </trkpt>
      <trkpt lat="44.35317" lon="1.02622">
        <ele>239</ele>
        <time>2012-09-23T06:00:14Z</time>
      </trkpt>
      <trkpt lat="44.35342" lon="1.02671">
        <ele>237</ele>
        <time>2012-09-23T06:00:19Z</time>
      </trkpt>
      <trkpt lat="44.3537" lon="1.02726">
        <ele>233</ele>
        <time>2012-09-23T06:00:24Z</time>
      </trkpt>
      <trkpt lat="44.35392" lon="1.02768">
        <ele>231</ele>
        <time>2012-09-23T06:00:29Z</time>
      </trkpt>
      <trkpt lat="44.35404" lon="1.02778">
        <ele>231</ele>
        <time>2012-09-23T06:00:34Z</time>
      </trkpt>
      <trkpt lat="44.35414" lon="1.02764">
        <ele>231</ele>
        <time>2012-09-23T06:00:39Z</time>
      </trkpt>
      <trkpt lat="44.35427" lon="1.0275">
        <ele>231</ele>
        <time>2012-09-23T06:00:44Z</time>
      </trkpt>
      <trkpt lat="44.35437" lon="1.02732">
        <ele>231</ele>
        <time>2012-09-23T06:00:49Z</time>
      </trkpt>
      <trkpt lat="44.35445" lon="1.02715">
        <ele>231</ele>
        <time>2012-09-23T06:00:54Z</time>
      </trkpt>
      <trkpt lat="44.35452" lon="1.02699">
        <ele>231</ele>
        <time>2012-09-23T06:00:59Z</time>
      </trkpt>
      <trkpt lat="44.35458" lon="1.02684">
        <ele>232</ele>
        <time>2012-09-23T06:01:04Z</time>
      </trkpt>
      <trkpt lat="44.35462" lon="1.02667">
        <ele>234</ele>
        <time>2012-09-23T06:01:09Z</time>
      </trkpt>
      <trkpt lat="44.35467" lon="1.0265">
        <ele>237</ele>
        <time>2012-09-23T06:01:14Z</time>
      </trkpt>
      <trkpt lat="44.35472" lon="1.02636">
        <ele>238</ele>
        <time>2012-09-23T06:01:19Z</time>
      </trkpt>
      <trkpt lat="44.35477" lon="1.02622">
        <ele>239</ele>
        <time>2012-09-23T06:01:24Z</time>
      </trkpt>
      <trkpt lat="44.35483" lon="1.02609">
        <ele>241</ele>
        <time>2012-09-23T06:01:29Z</time>
      </trkpt>
      <trkpt lat="44.35489" lon="1.02597">
        <ele>243</ele>
        <time>2012-09-23T06:01:34Z</time>
      </trkpt>
      <trkpt lat="44.35497" lon="1.02584">
        <ele>244</ele>
        <time>2012-09-23T06:01:39Z</time>
      </trkpt>
      <trkpt lat="44.35506" lon="1.0257">
        <ele>244</ele>
        <time>2012-09-23T06:01:44Z</time>
      </trkpt>
      <trkpt lat="44.35514" lon="1.02555">
        <ele>244</ele>
        <time>2012-09-23T06:01:49Z</time>
      </trkpt>
      <trkpt lat="44.35525" lon="1.02532">
        <ele>244</ele>
        <time>2012-09-23T06:01:54Z</time>
      </trkpt>
      <trkpt lat="44.35538" lon="1.02506">
        <ele>243</ele>
        <time>2012-09-23T06:01:59Z</time>
      </trkpt>
      <trkpt lat="44.3555" lon="1.02485">
        <ele>243</ele>
        <time>2012-09-23T06:02:04Z</time>
      </trkpt>
      <trkpt lat="44.35562" lon="1.02468">
        <ele>243</ele>
        <time>2012-09-23T06:02:09Z</time>
      </trkpt>
      <trkpt lat="44.35577" lon="1.02451">
        <ele>243</ele>
        <time>2012-09-23T06:02:14Z</time>
      </trkpt>
      <trkpt lat="44.3558" lon="1.02446">
        <ele>243</ele>
        <time>2012-09-23T06:02:19Z</time>
      </trkpt>
      <trkpt lat="44.35581" lon="1.02446">
        <ele>243</ele>
        <time>2012-09-23T06:02:24Z</time>
      </trkpt>
      <trkpt lat="44.35583" lon="1.02444">
        <ele>243</ele>
        <time>2012-09-23T06:02:34Z</time>
      </trkpt>
      <trkpt lat="44.35588" lon="1.02439">
        <ele>243</ele>
        <time>2012-09-23T06:02:39Z</time>
      </trkpt>
      <trkpt lat="44.35594" lon="1.02433">
        <ele>243</ele>
        <time>2012-09-23T06:02:44Z</time>
      </trkpt>
      <trkpt lat="44.35598" lon="1.02428">
        <ele>243</ele>
        <time>2012-09-23T06:02:49Z</time>
      </trkpt>
      <trkpt lat="44.35604" lon="1.02421">
        <ele>243</ele>
        <time>2012-09-23T06:02:54Z</time>
      </trkpt>
      <trkpt lat="44.35611" lon="1.02411">
        <ele>243</ele>
        <time>2012-09-23T06:02:59Z</time>
      </trkpt>
      <trkpt lat="44.3562" lon="1.02398">
        <ele>243</ele>
        <time>2012-09-23T06:03:04Z</time>
      </trkpt>
      <trkpt lat="44.3563" lon="1.02382">
        <ele>243</ele>
        <time>2012-09-23T06:03:09Z</time>
      </trkpt>
      <trkpt lat="44.35638" lon="1.02368">
        <ele>243</ele>
        <time>2012-09-23T06:03:14Z</time>
      </trkpt>
      <trkpt lat="44.35647" lon="1.0235">
        <ele>243</ele>
        <time>2012-09-23T06:03:19Z</time>
      </trkpt>
      <trkpt lat="44.35654" lon="1.02334">
        <ele>243</ele>
        <time>2012-09-23T06:03:24Z</time>
      </trkpt>
      <trkpt lat="44.35664" lon="1.02315">
        <ele>243</ele>
        <time>2012-09-23T06:03:29Z</time>
      </trkpt>
      <trkpt lat="44.35675" lon="1.02295">
        <ele>243</ele>
        <time>2012-09-23T06:03:34Z</time>
      </trkpt>
      <trkpt lat="44.3569" lon="1.02273">
        <ele>244</ele>
        <time>2012-09-23T06:03:39Z</time>
      </trkpt>
      <trkpt lat="44.35703" lon="1.02253">
        <ele>244</ele>
        <time>2012-09-23T06:03:44Z</time>
      </trkpt>
      <trkpt lat="44.35719" lon="1.02237">
        <ele>244</ele>
        <time>2012-09-23T06:03:49Z</time>
      </trkpt>
      <trkpt lat="44.35733" lon="1.02221">
        <ele>244</ele>
        <time>2012-09-23T06:03:54Z</time>
      </trkpt>
      <trkpt lat="44.3575" lon="1.02205">
        <ele>244</ele>
        <time>2012-09-23T06:03:59Z</time>
      </trkpt>
      <trkpt lat="44.35765" lon="1.02188">
        <ele>244</ele>
        <time>2012-09-23T06:04:04Z</time>
      </trkpt>
      <trkpt lat="44.35777" lon="1.02167">
        <ele>244</ele>
        <time>2012-09-23T06:04:09Z</time>
      </trkpt>
      <trkpt lat="44.35794" lon="1.02147">
        <ele>244</ele>
        <time>2012-09-23T06:04:14Z</time>
      </trkpt>
      <trkpt lat="44.3581" lon="1.02129">
        <ele>244</ele>
        <time>2012-09-23T06:04:19Z</time>
      </trkpt>
      <trkpt lat="44.35825" lon="1.02111">
        <ele>243</ele>
        <time>2012-09-23T06:04:24Z</time>
      </trkpt>
      <trkpt lat="44.35838" lon="1.02093">
        <ele>243</ele>
        <time>2012-09-23T06:04:29Z</time>
      </trkpt>
      <trkpt lat="44.35853" lon="1.02073">
        <ele>243</ele>
        <time>2012-09-23T06:04:35Z</time>
      </trkpt>
      <trkpt lat="44.35866" lon="1.02059">
        <ele>243</ele>
        <time>2012-09-23T06:04:40Z</time>
      </trkpt>
      <trkpt lat="44.35883" lon="1.02046">
        <ele>243</ele>
        <time>2012-09-23T06:04:45Z</time>
      </trkpt>
      <trkpt lat="44.35904" lon="1.02027">
        <ele>243</ele>
        <time>2012-09-23T06:04:51Z</time>
      </trkpt>
      <trkpt lat="44.35925" lon="1.02007">
        <ele>243</ele>
        <time>2012-09-23T06:04:56Z</time>
      </trkpt>
      <trkpt lat="44.35949" lon="1.02022">
        <ele>244</ele>
        <time>2012-09-23T06:05:01Z</time>
      </trkpt>
      <trkpt lat="44.35976" lon="1.02049">
        <ele>245</ele>
        <time>2012-09-23T06:05:06Z</time>
      </trkpt>
      <trkpt lat="44.36002" lon="1.02074">
        <ele>246</ele>
        <time>2012-09-23T06:05:11Z</time>
      </trkpt>
      <trkpt lat="44.36029" lon="1.02108">
        <ele>247</ele>
        <time>2012-09-23T06:05:17Z</time>
      </trkpt>
      <trkpt lat="44.36046" lon="1.02138">
        <ele>247</ele>
        <time>2012-09-23T06:05:22Z</time>
      </trkpt>
      <trkpt lat="44.36063" lon="1.02171">
        <ele>248</ele>
        <time>2012-09-23T06:05:27Z</time>
      </trkpt>
      <trkpt lat="44.36081" lon="1.02199">
        <ele>250</ele>
        <time>2012-09-23T06:05:32Z</time>
      </trkpt>
      <trkpt lat="44.36106" lon="1.02222">
        <ele>250</ele>
        <time>2012-09-23T06:05:38Z</time>
      </trkpt>
      <trkpt lat="44.36128" lon="1.02249">
        <ele>250</ele>
        <time>2012-09-23T06:05:43Z</time>
      </trkpt>
      <trkpt lat="44.3615" lon="1.02269">
        <ele>250</ele>
        <time>2012-09-23T06:05:48Z</time>
      </trkpt>
      <trkpt lat="44.36168" lon="1.02289">
        <ele>250</ele>
        <time>2012-09-23T06:05:53Z</time>
      </trkpt>
      <trkpt lat="44.36176" lon="1.02315">
        <ele>250</ele>
        <time>2012-09-23T06:05:58Z</time>
      </trkpt>
      <trkpt lat="44.36182" lon="1.02344">
        <ele>250</ele>
        <time>2012-09-23T06:06:03Z</time>
      </trkpt>
      <trkpt lat="44.36189" lon="1.02382">
        <ele>250</ele>
        <time>2012-09-23T06:06:08Z</time>
      </trkpt>
      <trkpt lat="44.362" lon="1.0241">
        <ele>250</ele>
        <time>2012-09-23T06:06:13Z</time>
      </trkpt>
      <trkpt lat="44.3621" lon="1.02433">
        <ele>250</ele>
        <time>2012-09-23T06:06:18Z</time>
      </trkpt>
      <trkpt lat="44.36218" lon="1.02455">
        <ele>253</ele>
        <time>2012-09-23T06:06:23Z</time>
      </trkpt>
      <trkpt lat="44.36221" lon="1.02471">
        <ele>255</ele>
        <time>2012-09-23T06:06:29Z</time>
      </trkpt>
      <trkpt lat="44.36227" lon="1.02476">
        <ele>258</ele>
        <time>2012-09-23T06:06:34Z</time>
      </trkpt>
      <trkpt lat="44.36242" lon="1.02471">
        <ele>258</ele>
        <time>2012-09-23T06:06:39Z</time>
      </trkpt>
      <trkpt lat="44.36261" lon="1.02462">
        <ele>258</ele>
        <time>2012-09-23T06:06:44Z</time>
      </trkpt>
      <trkpt lat="44.3628" lon="1.02456">
        <ele>258</ele>
        <time>2012-09-23T06:06:49Z</time>
      </trkpt>
      <trkpt lat="44.363" lon="1.02447">
        <ele>258</ele>
        <time>2012-09-23T06:06:54Z</time>
      </trkpt>
      <trkpt lat="44.36315" lon="1.02437">
        <ele>258</ele>
        <time>2012-09-23T06:06:59Z</time>
      </trkpt>
      <trkpt lat="44.36322" lon="1.02435">
        <ele>258</ele>
        <time>2012-09-23T06:07:04Z</time>
      </trkpt>
      <trkpt lat="44.36332" lon="1.02434">
        <ele>258</ele>
        <time>2012-09-23T06:07:09Z</time>
      </trkpt>
      <trkpt lat="44.36344" lon="1.02422">
        <ele>258</ele>
        <time>2012-09-23T06:07:14Z</time>
      </trkpt>
      <trkpt lat="44.3635" lon="1.02402">
        <ele>258</ele>
        <time>2012-09-23T06:07:20Z</time>
      </trkpt>
      <trkpt lat="44.36355" lon="1.02376">
        <ele>258</ele>
        <time>2012-09-23T06:07:25Z</time>
      </trkpt>
      <trkpt lat="44.36362" lon="1.02336">
        <ele>258</ele>
        <time>2012-09-23T06:07:30Z</time>
      </trkpt>
      <trkpt lat="44.36366" lon="1.02303">
        <ele>258</ele>
        <time>2012-09-23T06:07:35Z</time>
      </trkpt>
      <trkpt lat="44.3637" lon="1.02272">
        <ele>258</ele>
        <time>2012-09-23T06:07:40Z</time>
      </trkpt>
      <trkpt lat="44.36376" lon="1.02234">
        <ele>258</ele>
        <time>2012-09-23T06:07:45Z</time>
      </trkpt>
      <trkpt lat="44.36387" lon="1.02214">
        <ele>257</ele>
        <time>2012-09-23T06:07:50Z</time>
      </trkpt>
      <trkpt lat="44.36409" lon="1.02227">
        <ele>253</ele>
        <time>2012-09-23T06:07:55Z</time>
      </trkpt>
      <trkpt lat="44.36426" lon="1.02242">
        <ele>251</ele>
        <time>2012-09-23T06:08:00Z</time>
      </trkpt>
      <trkpt lat="44.36438" lon="1.02251">
        <ele>251</ele>
        <time>2012-09-23T06:08:05Z</time>
      </trkpt>
      <trkpt lat="44.36451" lon="1.02263">
        <ele>251</ele>
        <time>2012-09-23T06:08:10Z</time>
      </trkpt>
      <trkpt lat="44.36461" lon="1.02271">
        <ele>251</ele>
        <time>2012-09-23T06:08:15Z</time>
      </trkpt>
      <trkpt lat="44.3647" lon="1.02279">
        <ele>251</ele>
        <time>2012-09-23T06:08:20Z</time>
      </trkpt>
      <trkpt lat="44.36479" lon="1.02287">
        <ele>251</ele>
        <time>2012-09-23T06:08:25Z</time>
      </trkpt>
      <trkpt lat="44.36489" lon="1.02297">
        <ele>251</ele>
        <time>2012-09-23T06:08:30Z</time>
      </trkpt>
      <trkpt lat="44.36499" lon="1.02309">
        <ele>252</ele>
        <time>2012-09-23T06:08:35Z</time>
      </trkpt>
      <trkpt lat="44.36508" lon="1.0232">
        <ele>253</ele>
        <time>2012-09-23T06:08:40Z</time>
      </trkpt>
      <trkpt lat="44.36511" lon="1.02324">
        <ele>254</ele>
        <time>2012-09-23T06:08:59Z</time>
      </trkpt>
      <trkpt lat="44.36526" lon="1.02338">
        <ele>254</ele>
        <time>2012-09-23T06:09:04Z</time>
      </trkpt>
      <trkpt lat="44.36552" lon="1.02361">
        <ele>254</ele>
        <time>2012-09-23T06:09:09Z</time>
      </trkpt>
      <trkpt lat="44.36587" lon="1.02391">
        <ele>254</ele>
        <time>2012-09-23T06:09:14Z</time>
      </trkpt>
      <trkpt lat="44.36626" lon="1.02422">
        <ele>254</ele>
        <time>2012-09-23T06:09:19Z</time>
      </trkpt>
      <trkpt lat="44.36654" lon="1.02441">
        <ele>253</ele>
        <time>2012-09-23T06:09:24Z</time>
      </trkpt>
      <trkpt lat="44.36658" lon="1.02468">
        <ele>253</ele>
        <time>2012-09-23T06:09:29Z</time>
      </trkpt>
      <trkpt lat="44.36643" lon="1.02506">
        <ele>253</ele>
        <time>2012-09-23T06:09:34Z</time>
      </trkpt>
      <trkpt lat="44.3662" lon="1.0254">
        <ele>253</ele>
        <time>2012-09-23T06:09:39Z</time>
      </trkpt>
      <trkpt lat="44.36597" lon="1.02557">
        <ele>253</ele>
        <time>2012-09-23T06:09:44Z</time>
      </trkpt>
      <trkpt lat="44.36577" lon="1.02582">
        <ele>253</ele>
        <time>2012-09-23T06:09:49Z</time>
      </trkpt>
      <trkpt lat="44.36557" lon="1.02602">
        <ele>253</ele>
        <time>2012-09-23T06:09:54Z</time>
      </trkpt>
      <trkpt lat="44.36535" lon="1.02625">
        <ele>253</ele>
        <time>2012-09-23T06:09:59Z</time>
      </trkpt>
      <trkpt lat="44.36514" lon="1.02647">
        <ele>254</ele>
        <time>2012-09-23T06:10:04Z</time>
      </trkpt>
      <trkpt lat="44.36496" lon="1.02678">
        <ele>255</ele>
        <time>2012-09-23T06:10:09Z</time>
      </trkpt>
      <trkpt lat="44.36482" lon="1.02713">
        <ele>256</ele>
        <time>2012-09-23T06:10:14Z</time>
      </trkpt>
      <trkpt lat="44.3647" lon="1.02746">
        <ele>256</ele>
        <time>2012-09-23T06:10:19Z</time>
      </trkpt>
      <trkpt lat="44.36457" lon="1.02779">
        <ele>256</ele>
        <time>2012-09-23T06:10:24Z</time>
      </trkpt>
      <trkpt lat="44.36438" lon="1.02809">
        <ele>256</ele>
        <time>2012-09-23T06:10:29Z</time>
      </trkpt>
      <trkpt lat="44.36426" lon="1.02841">
        <ele>256</ele>
        <time>2012-09-23T06:10:34Z</time>
      </trkpt>
      <trkpt lat="44.36426" lon="1.02879">
        <ele>256</ele>
        <time>2012-09-23T06:10:39Z</time>
      </trkpt>
      <trkpt lat="44.36425" lon="1.02917">
        <ele>256</ele>
        <time>2012-09-23T06:10:44Z</time>
      </trkpt>
      <trkpt lat="44.36423" lon="1.02954">
        <ele>256</ele>
        <time>2012-09-23T06:10:49Z</time>
      </trkpt>
      <trkpt lat="44.36423" lon="1.02991">
        <ele>256</ele>
        <time>2012-09-23T06:10:54Z</time>
      </trkpt>
      <trkpt lat="44.36421" lon="1.0303">
        <ele>256</ele>
        <time>2012-09-23T06:10:59Z</time>
      </trkpt>
      <trkpt lat="44.36416" lon="1.03068">
        <ele>257</ele>
        <time>2012-09-23T06:11:04Z</time>
      </trkpt>
      <trkpt lat="44.36411" lon="1.03104">
        <ele>257</ele>
        <time>2012-09-23T06:11:09Z</time>
      </trkpt>
      <trkpt lat="44.36408" lon="1.03138">
        <ele>257</ele>
        <time>2012-09-23T06:11:14Z</time>
      </trkpt>
      <trkpt lat="44.36408" lon="1.03168">
        <ele>258</ele>
        <time>2012-09-23T06:11:19Z</time>
      </trkpt>
      <trkpt lat="44.36407" lon="1.03191">
        <ele>258</ele>
        <time>2012-09-23T06:11:25Z</time>
      </trkpt>
      <trkpt lat="44.36401" lon="1.03203">
        <ele>258</ele>
        <time>2012-09-23T06:11:30Z</time>
      </trkpt>
      <trkpt lat="44.36388" lon="1.03199">
        <ele>258</ele>
        <time>2012-09-23T06:11:35Z</time>
      </trkpt>
      <trkpt lat="44.36365" lon="1.03185">
        <ele>258</ele>
        <time>2012-09-23T06:11:40Z</time>
      </trkpt>
      <trkpt lat="44.36339" lon="1.03171">
        <ele>258</ele>
        <time>2012-09-23T06:11:45Z</time>
      </trkpt>
      <trkpt lat="44.36335" lon="1.03155">
        <ele>258</ele>
        <time>2012-09-23T06:11:50Z</time>
      </trkpt>
      <trkpt lat="44.36334" lon="1.03134">
        <ele>256</ele>
        <time>2012-09-23T06:11:55Z</time>
      </trkpt>
      <trkpt lat="44.36321" lon="1.03121">
        <ele>254</ele>
        <time>2012-09-23T06:12:00Z</time>
      </trkpt>
      <trkpt lat="44.36303" lon="1.03113">
        <ele>252</ele>
        <time>2012-09-23T06:12:05Z</time>
      </trkpt>
      <trkpt lat="44.36277" lon="1.03112">
        <ele>250</ele>
        <time>2012-09-23T06:12:10Z</time>
      </trkpt>
      <trkpt lat="44.36246" lon="1.0312">
        <ele>249</ele>
        <time>2012-09-23T06:12:15Z</time>
      </trkpt>
      <trkpt lat="44.36217" lon="1.03122">
        <ele>249</ele>
        <time>2012-09-23T06:12:20Z</time>
      </trkpt>
      <trkpt lat="44.36204" lon="1.0315">
        <ele>249</ele>
        <time>2012-09-23T06:12:25Z</time>
      </trkpt>
      <trkpt lat="44.362" lon="1.03188">
        <ele>249</ele>
        <time>2012-09-23T06:12:30Z</time>
      </trkpt>
      <trkpt lat="44.36188" lon="1.03211">
        <ele>249</ele>
        <time>2012-09-23T06:12:35Z</time>
      </trkpt>
      <trkpt lat="44.36174" lon="1.03229">
        <ele>249</ele>
        <time>2012-09-23T06:12:40Z</time>
      </trkpt>
      <trkpt lat="44.36161" lon="1.03256">
        <ele>249</ele>
        <time>2012-09-23T06:12:45Z</time>
      </trkpt>
      <trkpt lat="44.36153" lon="1.03286">
        <ele>249</ele>
        <time>2012-09-23T06:12:50Z</time>
      </trkpt>
      <trkpt lat="44.3614" lon="1.03314">
        <ele>249</ele>
        <time>2012-09-23T06:12:55Z</time>
      </trkpt>
      <trkpt lat="44.36125" lon="1.0334">
        <ele>249</ele>
        <time>2012-09-23T06:13:00Z</time>
      </trkpt>
      <trkpt lat="44.36102" lon="1.03337">
        <ele>249</ele>
        <time>2012-09-23T06:13:05Z</time>
      </trkpt>
      <trkpt lat="44.36077" lon="1.03316">
        <ele>249</ele>
        <time>2012-09-23T06:13:10Z</time>
      </trkpt>
      <trkpt lat="44.36049" lon="1.03295">
        <ele>249</ele>
        <time>2012-09-23T06:13:15Z</time>
      </trkpt>
      <trkpt lat="44.3602" lon="1.03279">
        <ele>247</ele>
        <time>2012-09-23T06:13:20Z</time>
      </trkpt>
      <trkpt lat="44.36006" lon="1.03269">
        <ele>245</ele>
        <time>2012-09-23T06:13:25Z</time>
      </trkpt>
      <trkpt lat="44.36023" lon="1.03232">
        <ele>244</ele>
        <time>2012-09-23T06:13:30Z</time>
      </trkpt>
      <trkpt lat="44.36042" lon="1.0319">
        <ele>244</ele>
        <time>2012-09-23T06:13:35Z</time>
      </trkpt>
      <trkpt lat="44.36046" lon="1.03144">
        <ele>243</ele>
        <time>2012-09-23T06:13:40Z</time>
      </trkpt>
      <trkpt lat="44.3604" lon="1.03112">
        <ele>239</ele>
        <time>2012-09-23T06:13:45Z</time>
      </trkpt>
      <trkpt lat="44.36031" lon="1.03089">
        <ele>238</ele>
        <time>2012-09-23T06:13:50Z</time>
      </trkpt>
      <trkpt lat="44.36025" lon="1.03062">
        <ele>235</ele>
        <time>2012-09-23T06:13:55Z</time>
      </trkpt>
      <trkpt lat="44.36018" lon="1.03039">
        <ele>232</ele>
        <time>2012-09-23T06:14:00Z</time>
      </trkpt>
      <trkpt lat="44.36012" lon="1.0302">
        <ele>232</ele>
        <time>2012-09-23T06:14:05Z</time>
      </trkpt>
      <trkpt lat="44.36006" lon="1.03">
        <ele>231</ele>
        <time>2012-09-23T06:14:10Z</time>
      </trkpt>
      <trkpt lat="44.35988" lon="1.02978">
        <ele>231</ele>
        <time>2012-09-23T06:14:15Z</time>
      </trkpt>
      <trkpt lat="44.35951" lon="1.02956">
        <ele>227</ele>
        <time>2012-09-23T06:14:20Z</time>
      </trkpt>
      <trkpt lat="44.3591" lon="1.02933">
        <ele>225</ele>
        <time>2012-09-23T06:14:25Z</time>
      </trkpt>
      <trkpt lat="44.35889" lon="1.02956">
        <ele>225</ele>
        <time>2012-09-23T06:14:30Z</time>
      </trkpt>
      <trkpt lat="44.35873" lon="1.02988">
        <ele>225</ele>
        <time>2012-09-23T06:14:35Z</time>
      </trkpt>
      <trkpt lat="44.35849" lon="1.02994">
        <ele>225</ele>
        <time>2012-09-23T06:14:40Z</time>
      </trkpt>
      <trkpt lat="44.35832" lon="1.02979">
        <ele>225</ele>
        <time>2012-09-23T06:14:45Z</time>
      </trkpt>
      <trkpt lat="44.35828" lon="1.02945">
        <ele>225</ele>
        <time>2012-09-23T06:14:50Z</time>
      </trkpt>
      <trkpt lat="44.35824" lon="1.02905">
        <ele>225</ele>
        <time>2012-09-23T06:14:55Z</time>
      </trkpt>
      <trkpt lat="44.35819" lon="1.02857">
        <ele>225</ele>
        <time>2012-09-23T06:15:00Z</time>
      </trkpt>
      <trkpt lat="44.35806" lon="1.02812">
        <ele>225</ele>
        <time>2012-09-23T06:15:05Z</time>
      </trkpt>
      <trkpt lat="44.35786" lon="1.02822">
        <ele>225</ele>
        <time>2012-09-23T06:15:10Z</time>
      </trkpt>
      <trkpt lat="44.35772" lon="1.02859">
        <ele>225</ele>
        <time>2012-09-23T06:15:15Z</time>
      </trkpt>
      <trkpt lat="44.35747" lon="1.02886">
        <ele>225</ele>
        <time>2012-09-23T06:15:20Z</time>
      </trkpt>
      <trkpt lat="44.3573" lon="1.02911">
        <ele>225</ele>
        <time>2012-09-23T06:15:25Z</time>
      </trkpt>
      <trkpt lat="44.35714" lon="1.02942">
        <ele>225</ele>
        <time>2012-09-23T06:15:30Z</time>
      </trkpt>
      <trkpt lat="44.35702" lon="1.02974">
        <ele>225</ele>
        <time>2012-09-23T06:15:35Z</time>
      </trkpt>
      <trkpt lat="44.35685" lon="1.02999">
        <ele>225</ele>
        <time>2012-09-23T06:15:40Z</time>
      </trkpt>
      <trkpt lat="44.35668" lon="1.03026">
        <ele>225</ele>
        <time>2012-09-23T06:15:45Z</time>
      </trkpt>
      <trkpt lat="44.3566" lon="1.03069">
        <ele>225</ele>
        <time>2012-09-23T06:15:50Z</time>
      </trkpt>
      <trkpt lat="44.35651" lon="1.0311">
        <ele>225</ele>
        <time>2012-09-23T06:15:55Z</time>
      </trkpt>
      <trkpt lat="44.35639" lon="1.03151">
        <ele>225</ele>
        <time>2012-09-23T06:16:00Z</time>
      </trkpt>
      <trkpt lat="44.35615" lon="1.03184">
        <ele>225</ele>
        <time>2012-09-23T06:16:05Z</time>
      </trkpt>
      <trkpt lat="44.35595" lon="1.03217">
        <ele>225</ele>
        <time>2012-09-23T06:16:10Z</time>
      </trkpt>
      <trkpt lat="44.3558" lon="1.03252">
        <ele>225</ele>
        <time>2012-09-23T06:16:15Z</time>
      </trkpt>
      <trkpt lat="44.35558" lon="1.03282">
        <ele>225</ele>
        <time>2012-09-23T06:16:20Z</time>
      </trkpt>
      <trkpt lat="44.35539" lon="1.03315">
        <ele>225</ele>
        <time>2012-09-23T06:16:25Z</time>
      </trkpt>
      <trkpt lat="44.35523" lon="1.03347">
        <ele>225</ele>
        <time>2012-09-23T06:16:30Z</time>
      </trkpt>
      <trkpt lat="44.35507" lon="1.03378">
        <ele>225</ele>
        <time>2012-09-23T06:16:35Z</time>
      </trkpt>
      <trkpt lat="44.3549" lon="1.03412">
        <ele>226</ele>
        <time>2012-09-23T06:16:40Z</time>
      </trkpt>
      <trkpt lat="44.3548" lon="1.03447">
        <ele>228</ele>
        <time>2012-09-23T06:16:45Z</time>
      </trkpt>
      <trkpt lat="44.35455" lon="1.03477">
        <ele>228</ele>
        <time>2012-09-23T06:16:50Z</time>
      </trkpt>
      <trkpt lat="44.35421" lon="1.03496">
        <ele>228</ele>
        <time>2012-09-23T06:16:55Z</time>
      </trkpt>
      <trkpt lat="44.35386" lon="1.03502">
        <ele>228</ele>
        <time>2012-09-23T06:17:00Z</time>
      </trkpt>
      <trkpt lat="44.35356" lon="1.03495">
        <ele>228</ele>
        <time>2012-09-23T06:17:05Z</time>
      </trkpt>
      <trkpt lat="44.35328" lon="1.03493">
        <ele>228</ele>
        <time>2012-09-23T06:17:10Z</time>
      </trkpt>
      <trkpt lat="44.35308" lon="1.03502">
        <ele>228</ele>
        <time>2012-09-23T06:17:15Z</time>
      </trkpt>
      <trkpt lat="44.35286" lon="1.03523">
        <ele>228</ele>
        <time>2012-09-23T06:17:20Z</time>
      </trkpt>
      <trkpt lat="44.35261" lon="1.0354">
        <ele>228</ele>
        <time>2012-09-23T06:17:25Z</time>
      </trkpt>
      <trkpt lat="44.35236" lon="1.03558">
        <ele>228</ele>
        <time>2012-09-23T06:17:30Z</time>
      </trkpt>
      <trkpt lat="44.35217" lon="1.03581">
        <ele>227</ele>
        <time>2012-09-23T06:17:35Z</time>
      </trkpt>
      <trkpt lat="44.35197" lon="1.03614">
        <ele>225</ele>
        <time>2012-09-23T06:17:40Z</time>
      </trkpt>
      <trkpt lat="44.35173" lon="1.03643">
        <ele>223</ele>
        <time>2012-09-23T06:17:45Z</time>
      </trkpt>
      <trkpt lat="44.35167" lon="1.03656">
        <ele>223</ele>
        <time>2012-09-23T06:17:50Z</time>
      </trkpt>
      <trkpt lat="44.35165" lon="1.03665">
        <ele>221</ele>
        <time>2012-09-23T06:17:55Z</time>
      </trkpt>
      <trkpt lat="44.3516" lon="1.03664">
        <ele>221</ele>
        <time>2012-09-23T06:18:01Z</time>
      </trkpt>
      <trkpt lat="44.35151" lon="1.03667">
        <ele>221</ele>
        <time>2012-09-23T06:18:06Z</time>
      </trkpt>
      <trkpt lat="44.35141" lon="1.03682">
        <ele>221</ele>
        <time>2012-09-23T06:18:11Z</time>
      </trkpt>
      <trkpt lat="44.35138" lon="1.03702">
        <ele>221</ele>
        <time>2012-09-23T06:18:16Z</time>
      </trkpt>
      <trkpt lat="44.35126" lon="1.0371">
        <ele>221</ele>
        <time>2012-09-23T06:18:21Z</time>
      </trkpt>
      <trkpt lat="44.35118" lon="1.03727">
        <ele>221</ele>
        <time>2012-09-23T06:18:26Z</time>
      </trkpt>
      <trkpt lat="44.35104" lon="1.03737">
        <ele>221</ele>
        <time>2012-09-23T06:18:31Z</time>
      </trkpt>
      <trkpt lat="44.3509" lon="1.03736">
        <ele>221</ele>
        <time>2012-09-23T06:18:36Z</time>
      </trkpt>
      <trkpt lat="44.35086" lon="1.03708">
        <ele>220</ele>
        <time>2012-09-23T06:18:41Z</time>
      </trkpt>
      <trkpt lat="44.35086" lon="1.03678">
        <ele>219</ele>
        <time>2012-09-23T06:18:46Z</time>
      </trkpt>
      <trkpt lat="44.35086" lon="1.03651">
        <ele>216</ele>
        <time>2012-09-23T06:18:51Z</time>
      </trkpt>
      <trkpt lat="44.35087" lon="1.03622">
        <ele>216</ele>
        <time>2012-09-23T06:18:56Z</time>
      </trkpt>
      <trkpt lat="44.35078" lon="1.03597">
        <ele>215</ele>
        <time>2012-09-23T06:19:01Z</time>
      </trkpt>
      <trkpt lat="44.35066" lon="1.03572">
        <ele>215</ele>
        <time>2012-09-23T06:19:06Z</time>
      </trkpt>
      <trkpt lat="44.35057" lon="1.03552">
        <ele>215</ele>
        <time>2012-09-23T06:19:11Z</time>
      </trkpt>
      <trkpt lat="44.35049" lon="1.03526">
        <ele>215</ele>
        <time>2012-09-23T06:19:16Z</time>
      </trkpt>
      <trkpt lat="44.35048" lon="1.03498">
        <ele>215</ele>
        <time>2012-09-23T06:19:21Z</time>
      </trkpt>
      <trkpt lat="44.35048" lon="1.03466">
        <ele>216</ele>
        <time>2012-09-23T06:19:26Z</time>
      </trkpt>
      <trkpt lat="44.35047" lon="1.03434">
        <ele>217</ele>
        <time>2012-09-23T06:19:31Z</time>
      </trkpt>
      <trkpt lat="44.35057" lon="1.03407">
        <ele>218</ele>
        <time>2012-09-23T06:19:36Z</time>
      </trkpt>
      <trkpt lat="44.35071" lon="1.03384">
        <ele>218</ele>
        <time>2012-09-23T06:19:41Z</time>
      </trkpt>
      <trkpt lat="44.35091" lon="1.03384">
        <ele>218</ele>
        <time>2012-09-23T06:19:46Z</time>
      </trkpt>
      <trkpt lat="44.35112" lon="1.03382">
        <ele>218</ele>
        <time>2012-09-23T06:19:51Z</time>
      </trkpt>
      <trkpt lat="44.35125" lon="1.03398">
        <ele>218</ele>
        <time>2012-09-23T06:19:56Z</time>
      </trkpt>
      <trkpt lat="44.3514" lon="1.03404">
        <ele>218</ele>
        <time>2012-09-23T06:20:01Z</time>
      </trkpt>
      <trkpt lat="44.35147" lon="1.03408">
        <ele>218</ele>
        <time>2012-09-23T06:20:06Z</time>
      </trkpt>
      <trkpt lat="44.35151" lon="1.03388">
        <ele>218</ele>
        <time>2012-09-23T06:20:11Z</time>
      </trkpt>
      <trkpt lat="44.35166" lon="1.03365">
        <ele>218</ele>
        <time>2012-09-23T06:20:16Z</time>
      </trkpt>
      <trkpt lat="44.35172" lon="1.03339">
        <ele>218</ele>
        <time>2012-09-23T06:20:21Z</time>
      </trkpt>
      <trkpt lat="44.35175" lon="1.03307">
        <ele>218</ele>
        <time>2012-09-23T06:20:26Z</time>
      </trkpt>
      <trkpt lat="44.35177" lon="1.03277">
        <ele>220</ele>
        <time>2012-09-23T06:20:31Z</time>
      </trkpt>
      <trkpt lat="44.35189" lon="1.03247">
        <ele>220</ele>
        <time>2012-09-23T06:20:36Z</time>
      </trkpt>
      <trkpt lat="44.35204" lon="1.03217">
        <ele>220</ele>
        <time>2012-09-23T06:20:41Z</time>
      </trkpt>
      <trkpt lat="44.35218" lon="1.03193">
        <ele>220</ele>
        <time>2012-09-23T06:20:46Z</time>
      </trkpt>
      <trkpt lat="44.35229" lon="1.03166">
        <ele>220</ele>
        <time>2012-09-23T06:20:51Z</time>
      </trkpt>
      <trkpt lat="44.3524" lon="1.03134">
        <ele>220</ele>
        <time>2012-09-23T06:20:56Z</time>
      </trkpt>
      <trkpt lat="44.35253" lon="1.03117">
        <ele>220</ele>
        <time>2012-09-23T06:21:01Z</time>
      </trkpt>
      <trkpt lat="44.35262" lon="1.03097">
        <ele>220</ele>
        <time>2012-09-23T06:21:06Z</time>
      </trkpt>
      <trkpt lat="44.35275" lon="1.03082">
        <ele>220</ele>
        <time>2012-09-23T06:21:11Z</time>
      </trkpt>
      <trkpt lat="44.35291" lon="1.03064">
        <ele>220</ele>
        <time>2012-09-23T06:21:16Z</time>
      </trkpt>
      <trkpt lat="44.35298" lon="1.03038">
        <ele>220</ele>
        <time>2012-09-23T06:21:21Z</time>
      </trkpt>
      <trkpt lat="44.35304" lon="1.0301">
        <ele>220</ele>
        <time>2012-09-23T06:21:26Z</time>
      </trkpt>
      <trkpt lat="44.35309" lon="1.02985">
        <ele>220</ele>
        <time>2012-09-23T06:21:31Z</time>
      </trkpt>
      <trkpt lat="44.3531" lon="1.02961">
        <ele>220</ele>
        <time>2012-09-23T06:21:36Z</time>
      </trkpt>
      <trkpt lat="44.35315" lon="1.02938">
        <ele>220</ele>
        <time>2012-09-23T06:21:41Z</time>
      </trkpt>
      <trkpt lat="44.35317" lon="1.02914">
        <ele>220</ele>
        <time>2012-09-23T06:21:46Z</time>
      </trkpt>
      <trkpt lat="44.3532" lon="1.02891">
        <ele>220</ele>
        <time>2012-09-23T06:21:51Z</time>
      </trkpt>
      <trkpt lat="44.35314" lon="1.02898">
        <ele>220</ele>
        <time>2012-09-23T06:21:56Z</time>
      </trkpt>
      <trkpt lat="44.353" lon="1.0294">
        <ele>218</ele>
        <time>2012-09-23T06:22:01Z</time>
      </trkpt>
      <trkpt lat="44.35279" lon="1.0299">
        <ele>214</ele>
        <time>2012-09-23T06:22:06Z</time>
      </trkpt>
      <trkpt lat="44.35259" lon="1.03042">
        <ele>210</ele>
        <time>2012-09-23T06:22:11Z</time>
      </trkpt>
      <trkpt lat="44.35235" lon="1.03076">
        <ele>206</ele>
        <time>2012-09-23T06:22:16Z</time>
      </trkpt>
      <trkpt lat="44.352" lon="1.03109">
        <ele>202</ele>
        <time>2012-09-23T06:22:21Z</time>
      </trkpt>
      <trkpt lat="44.3516" lon="1.0315">
        <ele>200</ele>
        <time>2012-09-23T06:22:26Z</time>
      </trkpt>
      <trkpt lat="44.35119" lon="1.03185">
        <ele>197</ele>
        <time>2012-09-23T06:22:31Z</time>
      </trkpt>
      <trkpt lat="44.35084" lon="1.03224">
        <ele>194</ele>
        <time>2012-09-23T06:22:36Z</time>
      </trkpt>
      <trkpt lat="44.35051" lon="1.03254">
        <ele>192</ele>
        <time>2012-09-23T06:22:41Z</time>
      </trkpt>
      <trkpt lat="44.35011" lon="1.03279">
        <ele>191</ele>
        <time>2012-09-23T06:22:46Z</time>
      </trkpt>
      <trkpt lat="44.34968" lon="1.03306">
        <ele>187</ele>
        <time>2012-09-23T06:22:51Z</time>
      </trkpt>
      <trkpt lat="44.34923" lon="1.03342">
        <ele>185</ele>
        <time>2012-09-23T06:22:56Z</time>
      </trkpt>
      <trkpt lat="44.34888" lon="1.03373">
        <ele>180</ele>
        <time>2012-09-23T06:23:01Z</time>
      </trkpt>
      <trkpt lat="44.3489" lon="1.03397">
        <ele>175</ele>
        <time>2012-09-23T06:23:06Z</time>
      </trkpt>
      <trkpt lat="44.34906" lon="1.03426">
        <ele>171</ele>
        <time>2012-09-23T06:23:11Z</time>
      </trkpt>
      <trkpt lat="44.3492" lon="1.03457">
        <ele>170</ele>
        <time>2012-09-23T06:23:16Z</time>
      </trkpt>
      <trkpt lat="44.34929" lon="1.03489">
        <ele>170</ele>
        <time>2012-09-23T06:23:21Z</time>
      </trkpt>
      <trkpt lat="44.34938" lon="1.03523">
        <ele>170</ele>
        <time>2012-09-23T06:23:26Z</time>
      </trkpt>
      <trkpt lat="44.34943" lon="1.03559">
        <ele>170</ele>
        <time>2012-09-23T06:23:31Z</time>
      </trkpt>
      <trkpt lat="44.34946" lon="1.03599">
        <ele>170</ele>
        <time>2012-09-23T06:23:36Z</time>
      </trkpt>
      <trkpt lat="44.34948" lon="1.03646">
        <ele>170</ele>
        <time>2012-09-23T06:23:41Z</time>
      </trkpt>
      <trkpt lat="44.34943" lon="1.03695">
        <ele>170</ele>
        <time>2012-09-23T06:23:46Z</time>
      </trkpt>
      <trkpt lat="44.3494" lon="1.0374">
        <ele>170</ele>
        <time>2012-09-23T06:23:51Z</time>
      </trkpt>
      <trkpt lat="44.3494" lon="1.03781">
        <ele>170</ele>
        <time>2012-09-23T06:23:56Z</time>
      </trkpt>
      <trkpt lat="44.34942" lon="1.03816">
        <ele>170</ele>
        <time>2012-09-23T06:24:01Z</time>
      </trkpt>
      <trkpt lat="44.34946" lon="1.03851">
        <ele>170</ele>
        <time>2012-09-23T06:24:06Z</time>
      </trkpt>
      <trkpt lat="44.34939" lon="1.03879">
        <ele>170</ele>
        <time>2012-09-23T06:24:11Z</time>
      </trkpt>
      <trkpt lat="44.34947" lon="1.03918">
        <ele>170</ele>
        <time>2012-09-23T06:24:16Z</time>
      </trkpt>
      <trkpt lat="44.34958" lon="1.03952">
        <ele>170</ele>
        <time>2012-09-23T06:24:21Z</time>
      </trkpt>
      <trkpt lat="44.34973" lon="1.03981">
        <ele>170</ele>
        <time>2012-09-23T06:24:26Z</time>
      </trkpt>
      <trkpt lat="44.34988" lon="1.0401">
        <ele>170</ele>
        <time>2012-09-23T06:24:31Z</time>
      </trkpt>
      <trkpt lat="44.35003" lon="1.04036">
        <ele>170</ele>
        <time>2012-09-23T06:24:36Z</time>
      </trkpt>
      <trkpt lat="44.35006" lon="1.04062">
        <ele>170</ele>
        <time>2012-09-23T06:24:41Z</time>
      </trkpt>
      <trkpt lat="44.34993" lon="1.04078">
        <ele>172</ele>
        <time>2012-09-23T06:24:46Z</time>
      </trkpt>
      <trkpt lat="44.35006" lon="1.04093">
        <ele>173</ele>
        <time>2012-09-23T06:24:51Z</time>
      </trkpt>
      <trkpt lat="44.35026" lon="1.04111">
        <ele>173</ele>
        <time>2012-09-23T06:24:56Z</time>
      </trkpt>
      <trkpt lat="44.35047" lon="1.04125">
        <ele>173</ele>
        <time>2012-09-23T06:25:01Z</time>
      </trkpt>
      <trkpt lat="44.35069" lon="1.04131">
        <ele>173</ele>
        <time>2012-09-23T06:25:06Z</time>
      </trkpt>
      <trkpt lat="44.35071" lon="1.04156">
        <ele>173</ele>
        <time>2012-09-23T06:25:11Z</time>
      </trkpt>
      <trkpt lat="44.35063" lon="1.04183">
        <ele>175</ele>
        <time>2012-09-23T06:25:16Z</time>
      </trkpt>
      <trkpt lat="44.35053" lon="1.04209">
        <ele>180</ele>
        <time>2012-09-23T06:25:21Z</time>
      </trkpt>
      <trkpt lat="44.35046" lon="1.04236">
        <ele>184</ele>
        <time>2012-09-23T06:25:26Z</time>
      </trkpt>
      <trkpt lat="44.35047" lon="1.04262">
        <ele>184</ele>
        <time>2012-09-23T06:25:31Z</time>
      </trkpt>
      <trkpt lat="44.35046" lon="1.04285">
        <ele>186</ele>
        <time>2012-09-23T06:25:36Z</time>
      </trkpt>
      <trkpt lat="44.35045" lon="1.0431">
        <ele>190</ele>
        <time>2012-09-23T06:25:41Z</time>
      </trkpt>
      <trkpt lat="44.35046" lon="1.04341">
        <ele>191</ele>
        <time>2012-09-23T06:25:46Z</time>
      </trkpt>
      <trkpt lat="44.35054" lon="1.04377">
        <ele>191</ele>
        <time>2012-09-23T06:25:51Z</time>
      </trkpt>
      <trkpt lat="44.3507" lon="1.04397">
        <ele>191</ele>
        <time>2012-09-23T06:25:56Z</time>
      </trkpt>
      <trkpt lat="44.35077" lon="1.04414">
        <ele>191</ele>
        <time>2012-09-23T06:26:01Z</time>
      </trkpt>
      <trkpt lat="44.35085" lon="1.04421">
        <ele>191</ele>
        <time>2012-09-23T06:26:06Z</time>
      </trkpt>
      <trkpt lat="44.35093" lon="1.04425">
        <ele>190</ele>
        <time>2012-09-23T06:26:11Z</time>
      </trkpt>
      <trkpt lat="44.35099" lon="1.04426">
        <ele>190</ele>
        <time>2012-09-23T06:26:16Z</time>
      </trkpt>
      <trkpt lat="44.35108" lon="1.04429">
        <ele>190</ele>
        <time>2012-09-23T06:26:21Z</time>
      </trkpt>
      <trkpt lat="44.35114" lon="1.04434">
        <ele>190</ele>
        <time>2012-09-23T06:26:26Z</time>
      </trkpt>
      <trkpt lat="44.35123" lon="1.04437">
        <ele>190</ele>
        <time>2012-09-23T06:26:31Z</time>
      </trkpt>
      <trkpt lat="44.35133" lon="1.04441">
        <ele>190</ele>
        <time>2012-09-23T06:26:36Z</time>
      </trkpt>
      <trkpt lat="44.35144" lon="1.04442">
        <ele>190</ele>
        <time>2012-09-23T06:26:41Z</time>
      </trkpt>
      <trkpt lat="44.35151" lon="1.04444">
        <ele>190</ele>
        <time>2012-09-23T06:26:46Z</time>
      </trkpt>
      <trkpt lat="44.35157" lon="1.04446">
        <ele>190</ele>
        <time>2012-09-23T06:26:51Z</time>
      </trkpt>
      <trkpt lat="44.35164" lon="1.04448">
        <ele>190</ele>
        <time>2012-09-23T06:26:56Z</time>
      </trkpt>
      <trkpt lat="44.35173" lon="1.04451">
        <ele>190</ele>
        <time>2012-09-23T06:27:01Z</time>
      </trkpt>
      <trkpt lat="44.3518" lon="1.04454">
        <ele>190</ele>
        <time>2012-09-23T06:27:06Z</time>
      </trkpt>
      <trkpt lat="44.35188" lon="1.0446">
        <ele>190</ele>
        <time>2012-09-23T06:27:11Z</time>
      </trkpt>
      <trkpt lat="44.35196" lon="1.04468">
        <ele>191</ele>
        <time>2012-09-23T06:27:16Z</time>
      </trkpt>
      <trkpt lat="44.35203" lon="1.04478">
        <ele>191</ele>
        <time>2012-09-23T06:27:21Z</time>
      </trkpt>
      <trkpt lat="44.35209" lon="1.04491">
        <ele>192</ele>
        <time>2012-09-23T06:27:26Z</time>
      </trkpt>
      <trkpt lat="44.35215" lon="1.04498">
        <ele>193</ele>
        <time>2012-09-23T06:27:31Z</time>
      </trkpt>
      <trkpt lat="44.3522" lon="1.04497">
        <ele>193</ele>
        <time>2012-09-23T06:27:36Z</time>
      </trkpt>
      <trkpt lat="44.35216" lon="1.04487">
        <ele>193</ele>
        <time>2012-09-23T06:27:41Z</time>
      </trkpt>
      <trkpt lat="44.35214" lon="1.04475">
        <ele>194</ele>
        <time>2012-09-23T06:27:46Z</time>
      </trkpt>
      <trkpt lat="44.35211" lon="1.04467">
        <ele>197</ele>
        <time>2012-09-23T06:27:51Z</time>
      </trkpt>
      <trkpt lat="44.35213" lon="1.04459">
        <ele>199</ele>
        <time>2012-09-23T06:27:56Z</time>
      </trkpt>
      <trkpt lat="44.3522" lon="1.04465">
        <ele>202</ele>
        <time>2012-09-23T06:28:02Z</time>
      </trkpt>
      <trkpt lat="44.35224" lon="1.04471">
        <ele>204</ele>
        <time>2012-09-23T06:28:08Z</time>
      </trkpt>
      <trkpt lat="44.3523" lon="1.04476">
        <ele>206</ele>
        <time>2012-09-23T06:28:14Z</time>
      </trkpt>
      <trkpt lat="44.35235" lon="1.04475">
        <ele>209</ele>
        <time>2012-09-23T06:28:19Z</time>
      </trkpt>
      <trkpt lat="44.35232" lon="1.04464">
        <ele>211</ele>
        <time>2012-09-23T06:28:24Z</time>
      </trkpt>
      <trkpt lat="44.3523" lon="1.04456">
        <ele>213</ele>
        <time>2012-09-23T06:28:29Z</time>
      </trkpt>
      <trkpt lat="44.35229" lon="1.04448">
        <ele>215</ele>
        <time>2012-09-23T06:28:34Z</time>
      </trkpt>
      <trkpt lat="44.35229" lon="1.0444">
        <ele>215</ele>
        <time>2012-09-23T06:28:39Z</time>
      </trkpt>
      <trkpt lat="44.35229" lon="1.04429">
        <ele>216</ele>
        <time>2012-09-23T06:28:44Z</time>
      </trkpt>
      <trkpt lat="44.35236" lon="1.04429">
        <ele>216</ele>
        <time>2012-09-23T06:28:49Z</time>
      </trkpt>
      <trkpt lat="44.35242" lon="1.04438">
        <ele>218</ele>
        <time>2012-09-23T06:28:54Z</time>
      </trkpt>
      <trkpt lat="44.35249" lon="1.04453">
        <ele>218</ele>
        <time>2012-09-23T06:28:59Z</time>
      </trkpt>
      <trkpt lat="44.35257" lon="1.04472">
        <ele>218</ele>
        <time>2012-09-23T06:29:04Z</time>
      </trkpt>
      <trkpt lat="44.35266" lon="1.04492">
        <ele>219</ele>
        <time>2012-09-23T06:29:09Z</time>
      </trkpt>
      <trkpt lat="44.35275" lon="1.04514">
        <ele>220</ele>
        <time>2012-09-23T06:29:14Z</time>
      </trkpt>
      <trkpt lat="44.35284" lon="1.04538">
        <ele>222</ele>
        <time>2012-09-23T06:29:19Z</time>
      </trkpt>
      <trkpt lat="44.35294" lon="1.04561">
        <ele>223</ele>
        <time>2012-09-23T06:29:24Z</time>
      </trkpt>
      <trkpt lat="44.35301" lon="1.04586">
        <ele>225</ele>
        <time>2012-09-23T06:29:29Z</time>
      </trkpt>
      <trkpt lat="44.35303" lon="1.04613">
        <ele>228</ele>
        <time>2012-09-23T06:29:34Z</time>
      </trkpt>
      <trkpt lat="44.35298" lon="1.04645">
        <ele>232</ele>
        <time>2012-09-23T06:29:39Z</time>
      </trkpt>
      <trkpt lat="44.35294" lon="1.04675">
        <ele>236</ele>
        <time>2012-09-23T06:29:44Z</time>
      </trkpt>
      <trkpt lat="44.35296" lon="1.04708">
        <ele>239</ele>
        <time>2012-09-23T06:29:49Z</time>
      </trkpt>
      <trkpt lat="44.35307" lon="1.04741">
        <ele>239</ele>
        <time>2012-09-23T06:29:54Z</time>
      </trkpt>
      <trkpt lat="44.35326" lon="1.04759">
        <ele>239</ele>
        <time>2012-09-23T06:29:59Z</time>
      </trkpt>
      <trkpt lat="44.35348" lon="1.04786">
        <ele>237</ele>
        <time>2012-09-23T06:30:04Z</time>
      </trkpt>
      <trkpt lat="44.35365" lon="1.04818">
        <ele>235</ele>
        <time>2012-09-23T06:30:09Z</time>
      </trkpt>
      <trkpt lat="44.35381" lon="1.04852">
        <ele>233</ele>
        <time>2012-09-23T06:30:14Z</time>
      </trkpt>
      <trkpt lat="44.35399" lon="1.0488">
        <ele>231</ele>
        <time>2012-09-23T06:30:19Z</time>
      </trkpt>
      <trkpt lat="44.35414" lon="1.04911">
        <ele>229</ele>
        <time>2012-09-23T06:30:24Z</time>
      </trkpt>
      <trkpt lat="44.3543" lon="1.04941">
        <ele>227</ele>
        <time>2012-09-23T06:30:29Z</time>
      </trkpt>
      <trkpt lat="44.3544" lon="1.04973">
        <ele>225</ele>
        <time>2012-09-23T06:30:34Z</time>
      </trkpt>
      <trkpt lat="44.3544" lon="1.05003">
        <ele>224</ele>
        <time>2012-09-23T06:30:39Z</time>
      </trkpt>
      <trkpt lat="44.35438" lon="1.0503">
        <ele>223</ele>
        <time>2012-09-23T06:30:44Z</time>
      </trkpt>
      <trkpt lat="44.35433" lon="1.05059">
        <ele>223</ele>
        <time>2012-09-23T06:30:49Z</time>
      </trkpt>
      <trkpt lat="44.35427" lon="1.05087">
        <ele>223</ele>
        <time>2012-09-23T06:30:54Z</time>
      </trkpt>
      <trkpt lat="44.35416" lon="1.05116">
        <ele>223</ele>
        <time>2012-09-23T06:30:59Z</time>
      </trkpt>
      <trkpt lat="44.35402" lon="1.05145">
        <ele>223</ele>
        <time>2012-09-23T06:31:04Z</time>
      </trkpt>
      <trkpt lat="44.35392" lon="1.05174">
        <ele>223</ele>
        <time>2012-09-23T06:31:09Z</time>
      </trkpt>
      <trkpt lat="44.35379" lon="1.05192">
        <ele>223</ele>
        <time>2012-09-23T06:31:14Z</time>
      </trkpt>
      <trkpt lat="44.35376" lon="1.05222">
        <ele>223</ele>
        <time>2012-09-23T06:31:19Z</time>
      </trkpt>
      <trkpt lat="44.35368" lon="1.05255">
        <ele>223</ele>
        <time>2012-09-23T06:31:24Z</time>
      </trkpt>
      <trkpt lat="44.35355" lon="1.05282">
        <ele>221</ele>
        <time>2012-09-23T06:31:29Z</time>
      </trkpt>
      <trkpt lat="44.35342" lon="1.05313">
        <ele>220</ele>
        <time>2012-09-23T06:31:34Z</time>
      </trkpt>
      <trkpt lat="44.35336" lon="1.05336">
        <ele>220</ele>
        <time>2012-09-23T06:31:39Z</time>
      </trkpt>
      <trkpt lat="44.35322" lon="1.05347">
        <ele>220</ele>
        <time>2012-09-23T06:31:44Z</time>
      </trkpt>
      <trkpt lat="44.35313" lon="1.05366">
        <ele>220</ele>
        <time>2012-09-23T06:31:49Z</time>
      </trkpt>
      <trkpt lat="44.35307" lon="1.05394">
        <ele>221</ele>
        <time>2012-09-23T06:31:54Z</time>
      </trkpt>
      <trkpt lat="44.35302" lon="1.05418">
        <ele>221</ele>
        <time>2012-09-23T06:31:59Z</time>
      </trkpt>
      <trkpt lat="44.35305" lon="1.05438">
        <ele>224</ele>
        <time>2012-09-23T06:32:04Z</time>
      </trkpt>
      <trkpt lat="44.35298" lon="1.05458">
        <ele>224</ele>
        <time>2012-09-23T06:32:09Z</time>
      </trkpt>
      <trkpt lat="44.35296" lon="1.05473">
        <ele>224</ele>
        <time>2012-09-23T06:32:14Z</time>
      </trkpt>
      <trkpt lat="44.35297" lon="1.055">
        <ele>224</ele>
        <time>2012-09-23T06:32:19Z</time>
      </trkpt>
      <trkpt lat="44.35302" lon="1.05523">
        <ele>225</ele>
        <time>2012-09-23T06:32:24Z</time>
      </trkpt>
      <trkpt lat="44.35301" lon="1.05546">
        <ele>228</ele>
        <time>2012-09-23T06:32:29Z</time>
      </trkpt>
      <trkpt lat="44.35301" lon="1.0557">
        <ele>229</ele>
        <time>2012-09-23T06:32:34Z</time>
      </trkpt>
      <trkpt lat="44.35296" lon="1.05598">
        <ele>229</ele>
        <time>2012-09-23T06:32:39Z</time>
      </trkpt>
      <trkpt lat="44.35292" lon="1.05631">
        <ele>229</ele>
        <time>2012-09-23T06:32:44Z</time>
      </trkpt>
      <trkpt lat="44.35289" lon="1.05664">
        <ele>229</ele>
        <time>2012-09-23T06:32:49Z</time>
      </trkpt>
      <trkpt lat="44.35282" lon="1.05698">
        <ele>231</ele>
        <time>2012-09-23T06:32:54Z</time>
      </trkpt>
      <trkpt lat="44.35266" lon="1.05719">
        <ele>234</ele>
        <time>2012-09-23T06:32:59Z</time>
      </trkpt>
      <trkpt lat="44.35241" lon="1.05727">
        <ele>234</ele>
        <time>2012-09-23T06:33:04Z</time>
      </trkpt>
      <trkpt lat="44.35229" lon="1.05742">
        <ele>234</ele>
        <time>2012-09-23T06:33:09Z</time>
      </trkpt>
      <trkpt lat="44.35214" lon="1.0576">
        <ele>231</ele>
        <time>2012-09-23T06:33:14Z</time>
      </trkpt>
      <trkpt lat="44.35189" lon="1.05783">
        <ele>226</ele>
        <time>2012-09-23T06:33:19Z</time>
      </trkpt>
      <trkpt lat="44.35165" lon="1.05807">
        <ele>221</ele>
        <time>2012-09-23T06:33:24Z</time>
      </trkpt>
      <trkpt lat="44.35145" lon="1.05823">
        <ele>219</ele>
        <time>2012-09-23T06:33:29Z</time>
      </trkpt>
      <trkpt lat="44.35134" lon="1.05834">
        <ele>219</ele>
        <time>2012-09-23T06:33:34Z</time>
      </trkpt>
      <trkpt lat="44.35119" lon="1.0584">
        <ele>219</ele>
        <time>2012-09-23T06:33:39Z</time>
      </trkpt>
      <trkpt lat="44.35105" lon="1.05843">
        <ele>219</ele>
        <time>2012-09-23T06:33:44Z</time>
      </trkpt>
      <trkpt lat="44.35089" lon="1.05849">
        <ele>219</ele>
        <time>2012-09-23T06:33:49Z</time>
      </trkpt>
      <trkpt lat="44.35075" lon="1.05857">
        <ele>219</ele>
        <time>2012-09-23T06:33:54Z</time>
      </trkpt>
      <trkpt lat="44.35062" lon="1.05863">
        <ele>221</ele>
        <time>2012-09-23T06:33:59Z</time>
      </trkpt>
      <trkpt lat="44.35049" lon="1.05871">
        <ele>222</ele>
        <time>2012-09-23T06:34:04Z</time>
      </trkpt>
      <trkpt lat="44.35039" lon="1.05876">
        <ele>222</ele>
        <time>2012-09-23T06:34:09Z</time>
      </trkpt>
      <trkpt lat="44.35029" lon="1.0588">
        <ele>222</ele>
        <time>2012-09-23T06:34:14Z</time>
      </trkpt>
      <trkpt lat="44.35019" lon="1.05887">
        <ele>222</ele>
        <time>2012-09-23T06:34:19Z</time>
      </trkpt>
      <trkpt lat="44.35008" lon="1.05894">
        <ele>224</ele>
        <time>2012-09-23T06:34:24Z</time>
      </trkpt>
      <trkpt lat="44.34998" lon="1.05901">
        <ele>226</ele>
        <time>2012-09-23T06:34:29Z</time>
      </trkpt>
      <trkpt lat="44.34985" lon="1.05908">
        <ele>228</ele>
        <time>2012-09-23T06:34:34Z</time>
      </trkpt>
      <trkpt lat="44.34971" lon="1.05918">
        <ele>231</ele>
        <time>2012-09-23T06:34:39Z</time>
      </trkpt>
      <trkpt lat="44.34957" lon="1.05927">
        <ele>232</ele>
        <time>2012-09-23T06:34:44Z</time>
      </trkpt>
      <trkpt lat="44.34945" lon="1.05935">
        <ele>233</ele>
        <time>2012-09-23T06:34:49Z</time>
      </trkpt>
      <trkpt lat="44.34933" lon="1.05943">
        <ele>233</ele>
        <time>2012-09-23T06:34:54Z</time>
      </trkpt>
      <trkpt lat="44.34923" lon="1.05955">
        <ele>233</ele>
        <time>2012-09-23T06:34:59Z</time>
      </trkpt>
      <trkpt lat="44.34913" lon="1.05973">
        <ele>234</ele>
        <time>2012-09-23T06:35:04Z</time>
      </trkpt>
      <trkpt lat="44.34902" lon="1.05994">
        <ele>235</ele>
        <time>2012-09-23T06:35:09Z</time>
      </trkpt>
      <trkpt lat="44.34891" lon="1.0602">
        <ele>236</ele>
        <time>2012-09-23T06:35:14Z</time>
      </trkpt>
      <trkpt lat="44.34883" lon="1.06047">
        <ele>236</ele>
        <time>2012-09-23T06:35:19Z</time>
      </trkpt>
      <trkpt lat="44.34874" lon="1.06071">
        <ele>236</ele>
        <time>2012-09-23T06:35:24Z</time>
      </trkpt>
      <trkpt lat="44.34863" lon="1.06097">
        <ele>236</ele>
        <time>2012-09-23T06:35:29Z</time>
      </trkpt>
      <trkpt lat="44.3485" lon="1.06124">
        <ele>236</ele>
        <time>2012-09-23T06:35:34Z</time>
      </trkpt>
      <trkpt lat="44.34838" lon="1.06149">
        <ele>236</ele>
        <time>2012-09-23T06:35:39Z</time>
      </trkpt>
      <trkpt lat="44.34825" lon="1.06175">
        <ele>236</ele>
        <time>2012-09-23T06:35:44Z</time>
      </trkpt>
      <trkpt lat="44.34813" lon="1.06199">
        <ele>236</ele>
        <time>2012-09-23T06:35:49Z</time>
      </trkpt>
      <trkpt lat="44.348" lon="1.06226">
        <ele>236</ele>
        <time>2012-09-23T06:35:54Z</time>
      </trkpt>
      <trkpt lat="44.34786" lon="1.06255">
        <ele>236</ele>
        <time>2012-09-23T06:35:59Z</time>
      </trkpt>
      <trkpt lat="44.34768" lon="1.06275">
        <ele>236</ele>
        <time>2012-09-23T06:36:04Z</time>
      </trkpt>
      <trkpt lat="44.34751" lon="1.06289">
        <ele>236</ele>
        <time>2012-09-23T06:36:09Z</time>
      </trkpt>
      <trkpt lat="44.34737" lon="1.06298">
        <ele>236</ele>
        <time>2012-09-23T06:36:14Z</time>
      </trkpt>
      <trkpt lat="44.34721" lon="1.0631">
        <ele>239</ele>
        <time>2012-09-23T06:36:19Z</time>
      </trkpt>
      <trkpt lat="44.34708" lon="1.06323">
        <ele>242</ele>
        <time>2012-09-23T06:36:24Z</time>
      </trkpt>
      <trkpt lat="44.34698" lon="1.06336">
        <ele>246</ele>
        <time>2012-09-23T06:36:29Z</time>
      </trkpt>
      <trkpt lat="44.34693" lon="1.06363">
        <ele>246</ele>
        <time>2012-09-23T06:36:34Z</time>
      </trkpt>
      <trkpt lat="44.34684" lon="1.06395">
        <ele>248</ele>
        <time>2012-09-23T06:36:39Z</time>
      </trkpt>
      <trkpt lat="44.34679" lon="1.06422">
        <ele>249</ele>
        <time>2012-09-23T06:36:44Z</time>
      </trkpt>
      <trkpt lat="44.34671" lon="1.06436">
        <ele>249</ele>
        <time>2012-09-23T06:36:49Z</time>
      </trkpt>
      <trkpt lat="44.34664" lon="1.06448">
        <ele>249</ele>
        <time>2012-09-23T06:36:54Z</time>
      </trkpt>
      <trkpt lat="44.34661" lon="1.06462">
        <ele>249</ele>
        <time>2012-09-23T06:36:59Z</time>
      </trkpt>
      <trkpt lat="44.34658" lon="1.06483">
        <ele>249</ele>
        <time>2012-09-23T06:37:04Z</time>
      </trkpt>
      <trkpt lat="44.34654" lon="1.06509">
        <ele>249</ele>
        <time>2012-09-23T06:37:09Z</time>
      </trkpt>
      <trkpt lat="44.34653" lon="1.06537">
        <ele>249</ele>
        <time>2012-09-23T06:37:14Z</time>
      </trkpt>
      <trkpt lat="44.34649" lon="1.0657">
        <ele>249</ele>
        <time>2012-09-23T06:37:19Z</time>
      </trkpt>
      <trkpt lat="44.34644" lon="1.06603">
        <ele>249</ele>
        <time>2012-09-23T06:37:24Z</time>
      </trkpt>
      <trkpt lat="44.3464" lon="1.06633">
        <ele>249</ele>
        <time>2012-09-23T06:37:29Z</time>
      </trkpt>
      <trkpt lat="44.3464" lon="1.06653">
        <ele>249</ele>
        <time>2012-09-23T06:37:34Z</time>
      </trkpt>
      <trkpt lat="44.3464" lon="1.06671">
        <ele>249</ele>
        <time>2012-09-23T06:37:39Z</time>
      </trkpt>
      <trkpt lat="44.3464" lon="1.06691">
        <ele>249</ele>
        <time>2012-09-23T06:37:44Z</time>
      </trkpt>
      <trkpt lat="44.34638" lon="1.06713">
        <ele>249</ele>
        <time>2012-09-23T06:37:49Z</time>
      </trkpt>
      <trkpt lat="44.34635" lon="1.06741">
        <ele>249</ele>
        <time>2012-09-23T06:37:54Z</time>
      </trkpt>
      <trkpt lat="44.34631" lon="1.06772">
        <ele>249</ele>
        <time>2012-09-23T06:37:59Z</time>
      </trkpt>
      <trkpt lat="44.34628" lon="1.06802">
        <ele>249</ele>
        <time>2012-09-23T06:38:04Z</time>
      </trkpt>
      <trkpt lat="44.34645" lon="1.06817">
        <ele>249</ele>
        <time>2012-09-23T06:38:09Z</time>
      </trkpt>
      <trkpt lat="44.34665" lon="1.0683">
        <ele>249</ele>
        <time>2012-09-23T06:38:14Z</time>
      </trkpt>
      <trkpt lat="44.34684" lon="1.06844">
        <ele>249</ele>
        <time>2012-09-23T06:38:19Z</time>
      </trkpt>
      <trkpt lat="44.34693" lon="1.06871">
        <ele>249</ele>
        <time>2012-09-23T06:38:24Z</time>
      </trkpt>
      <trkpt lat="44.34701" lon="1.06902">
        <ele>249</ele>
        <time>2012-09-23T06:38:29Z</time>
      </trkpt>
      <trkpt lat="44.34706" lon="1.06935">
        <ele>249</ele>
        <time>2012-09-23T06:38:34Z</time>
      </trkpt>
      <trkpt lat="44.34713" lon="1.06967">
        <ele>249</ele>
        <time>2012-09-23T06:38:39Z</time>
      </trkpt>
      <trkpt lat="44.34718" lon="1.06997">
        <ele>249</ele>
        <time>2012-09-23T06:38:44Z</time>
      </trkpt>
      <trkpt lat="44.34723" lon="1.07026">
        <ele>249</ele>
        <time>2012-09-23T06:38:49Z</time>
      </trkpt>
      <trkpt lat="44.34728" lon="1.07054">
        <ele>249</ele>
        <time>2012-09-23T06:38:54Z</time>
      </trkpt>
      <trkpt lat="44.34733" lon="1.07081">
        <ele>249</ele>
        <time>2012-09-23T06:38:59Z</time>
      </trkpt>
      <trkpt lat="44.34737" lon="1.07108">
        <ele>250</ele>
        <time>2012-09-23T06:39:04Z</time>
      </trkpt>
      <trkpt lat="44.34734" lon="1.07133">
        <ele>250</ele>
        <time>2012-09-23T06:39:09Z</time>
      </trkpt>
      <trkpt lat="44.34725" lon="1.07158">
        <ele>250</ele>
        <time>2012-09-23T06:39:14Z</time>
      </trkpt>
      <trkpt lat="44.34715" lon="1.07182">
        <ele>250</ele>
        <time>2012-09-23T06:39:19Z</time>
      </trkpt>
      <trkpt lat="44.34706" lon="1.07204">
        <ele>252</ele>
        <time>2012-09-23T06:39:24Z</time>
      </trkpt>
      <trkpt lat="44.34697" lon="1.07226">
        <ele>253</ele>
        <time>2012-09-23T06:39:29Z</time>
      </trkpt>
      <trkpt lat="44.34689" lon="1.0725">
        <ele>253</ele>
        <time>2012-09-23T06:39:34Z</time>
      </trkpt>
      <trkpt lat="44.34682" lon="1.07278">
        <ele>253</ele>
        <time>2012-09-23T06:39:39Z</time>
      </trkpt>
      <trkpt lat="44.34674" lon="1.07309">
        <ele>253</ele>
        <time>2012-09-23T06:39:44Z</time>
      </trkpt>
      <trkpt lat="44.34671" lon="1.07343">
        <ele>253</ele>
        <time>2012-09-23T06:39:49Z</time>
      </trkpt>
      <trkpt lat="44.34671" lon="1.07376">
        <ele>253</ele>
        <time>2012-09-23T06:39:54Z</time>
      </trkpt>
      <trkpt lat="44.34676" lon="1.07408">
        <ele>253</ele>
        <time>2012-09-23T06:39:59Z</time>
      </trkpt>
      <trkpt lat="44.34682" lon="1.07438">
        <ele>253</ele>
        <time>2012-09-23T06:40:04Z</time>
      </trkpt>
      <trkpt lat="44.3469" lon="1.07466">
        <ele>252</ele>
        <time>2012-09-23T06:40:09Z</time>
      </trkpt>
      <trkpt lat="44.34696" lon="1.07494">
        <ele>251</ele>
        <time>2012-09-23T06:40:14Z</time>
      </trkpt>
      <trkpt lat="44.34701" lon="1.07523">
        <ele>251</ele>
        <time>2012-09-23T06:40:19Z</time>
      </trkpt>
      <trkpt lat="44.34704" lon="1.07552">
        <ele>251</ele>
        <time>2012-09-23T06:40:24Z</time>
      </trkpt>
      <trkpt lat="44.34707" lon="1.07579">
        <ele>251</ele>
        <time>2012-09-23T06:40:29Z</time>
      </trkpt>
      <trkpt lat="44.34709" lon="1.07605">
        <ele>251</ele>
        <time>2012-09-23T06:40:34Z</time>
      </trkpt>
      <trkpt lat="44.34706" lon="1.07634">
        <ele>251</ele>
        <time>2012-09-23T06:40:39Z</time>
      </trkpt>
      <trkpt lat="44.34701" lon="1.07665">
        <ele>251</ele>
        <time>2012-09-23T06:40:44Z</time>
      </trkpt>
      <trkpt lat="44.34697" lon="1.07693">
        <ele>254</ele>
        <time>2012-09-23T06:40:49Z</time>
      </trkpt>
      <trkpt lat="44.3469" lon="1.07722">
        <ele>257</ele>
        <time>2012-09-23T06:40:54Z</time>
      </trkpt>
      <trkpt lat="44.34688" lon="1.07753">
        <ele>260</ele>
        <time>2012-09-23T06:40:59Z</time>
      </trkpt>
      <trkpt lat="44.34682" lon="1.07787">
        <ele>260</ele>
        <time>2012-09-23T06:41:04Z</time>
      </trkpt>
      <trkpt lat="44.34677" lon="1.07819">
        <ele>260</ele>
        <time>2012-09-23T06:41:09Z</time>
      </trkpt>
      <trkpt lat="44.34669" lon="1.07854">
        <ele>260</ele>
        <time>2012-09-23T06:41:14Z</time>
      </trkpt>
      <trkpt lat="44.34658" lon="1.07886">
        <ele>260</ele>
        <time>2012-09-23T06:41:19Z</time>
      </trkpt>
      <trkpt lat="44.34645" lon="1.07919">
        <ele>260</ele>
        <time>2012-09-23T06:41:24Z</time>
      </trkpt>
      <trkpt lat="44.34631" lon="1.07949">
        <ele>260</ele>
        <time>2012-09-23T06:41:29Z</time>
      </trkpt>
      <trkpt lat="44.34621" lon="1.07977">
        <ele>260</ele>
        <time>2012-09-23T06:41:34Z</time>
      </trkpt>
      <trkpt lat="44.34605" lon="1.08001">
        <ele>259</ele>
        <time>2012-09-23T06:41:39Z</time>
      </trkpt>
      <trkpt lat="44.3459" lon="1.08027">
        <ele>259</ele>
        <time>2012-09-23T06:41:44Z</time>
      </trkpt>
      <trkpt lat="44.34577" lon="1.08051">
        <ele>260</ele>
        <time>2012-09-23T06:41:49Z</time>
      </trkpt>
      <trkpt lat="44.34561" lon="1.0808">
        <ele>264</ele>
        <time>2012-09-23T06:41:54Z</time>
      </trkpt>
      <trkpt lat="44.34545" lon="1.08104">
        <ele>267</ele>
        <time>2012-09-23T06:41:59Z</time>
      </trkpt>
      <trkpt lat="44.34527" lon="1.08125">
        <ele>268</ele>
        <time>2012-09-23T06:42:04Z</time>
      </trkpt>
      <trkpt lat="44.34507" lon="1.08148">
        <ele>267</ele>
        <time>2012-09-23T06:42:09Z</time>
      </trkpt>
      <trkpt lat="44.34489" lon="1.08174">
        <ele>264</ele>
        <time>2012-09-23T06:42:14Z</time>
      </trkpt>
      <trkpt lat="44.34467" lon="1.08197">
        <ele>264</ele>
        <time>2012-09-23T06:42:19Z</time>
      </trkpt>
      <trkpt lat="44.34463" lon="1.0822">
        <ele>262</ele>
        <time>2012-09-23T06:42:24Z</time>
      </trkpt>
      <trkpt lat="44.34473" lon="1.08255">
        <ele>256</ele>
        <time>2012-09-23T06:42:30Z</time>
      </trkpt>
      <trkpt lat="44.34483" lon="1.08281">
        <ele>255</ele>
        <time>2012-09-23T06:42:36Z</time>
      </trkpt>
      <trkpt lat="44.34499" lon="1.08305">
        <ele>253</ele>
        <time>2012-09-23T06:42:41Z</time>
      </trkpt>
      <trkpt lat="44.34527" lon="1.08352">
        <ele>250</ele>
        <time>2012-09-23T06:42:47Z</time>
      </trkpt>
      <trkpt lat="44.34551" lon="1.08397">
        <ele>247</ele>
        <time>2012-09-23T06:42:52Z</time>
      </trkpt>
      <trkpt lat="44.34576" lon="1.08442">
        <ele>246</ele>
        <time>2012-09-23T06:42:57Z</time>
      </trkpt>
      <trkpt lat="44.34594" lon="1.08495">
        <ele>245</ele>
        <time>2012-09-23T06:43:02Z</time>
      </trkpt>
      <trkpt lat="44.34603" lon="1.08547">
        <ele>244</ele>
        <time>2012-09-23T06:43:07Z</time>
      </trkpt>
      <trkpt lat="44.34618" lon="1.08594">
        <ele>239</ele>
        <time>2012-09-23T06:43:12Z</time>
      </trkpt>
      <trkpt lat="44.34635" lon="1.08642">
        <ele>238</ele>
        <time>2012-09-23T06:43:18Z</time>
      </trkpt>
      <trkpt lat="44.34661" lon="1.08676">
        <ele>238</ele>
        <time>2012-09-23T06:43:24Z</time>
      </trkpt>
      <trkpt lat="44.34689" lon="1.08711">
        <ele>238</ele>
        <time>2012-09-23T06:43:30Z</time>
      </trkpt>
      <trkpt lat="44.34716" lon="1.08739">
        <ele>238</ele>
        <time>2012-09-23T06:43:35Z</time>
      </trkpt>
      <trkpt lat="44.34736" lon="1.08773">
        <ele>237</ele>
        <time>2012-09-23T06:43:40Z</time>
      </trkpt>
      <trkpt lat="44.34755" lon="1.08795">
        <ele>236</ele>
        <time>2012-09-23T06:43:45Z</time>
      </trkpt>
      <trkpt lat="44.34787" lon="1.0881">
        <ele>231</ele>
        <time>2012-09-23T06:43:50Z</time>
      </trkpt>
      <trkpt lat="44.34806" lon="1.08852">
        <ele>229</ele>
        <time>2012-09-23T06:43:56Z</time>
      </trkpt>
      <trkpt lat="44.34793" lon="1.0889">
        <ele>229</ele>
        <time>2012-09-23T06:44:01Z</time>
      </trkpt>
      <trkpt lat="44.34787" lon="1.08919">
        <ele>229</ele>
        <time>2012-09-23T06:44:06Z</time>
      </trkpt>
      <trkpt lat="44.34781" lon="1.0894">
        <ele>229</ele>
        <time>2012-09-23T06:44:11Z</time>
      </trkpt>
      <trkpt lat="44.34774" lon="1.08964">
        <ele>230</ele>
        <time>2012-09-23T06:44:16Z</time>
      </trkpt>
      <trkpt lat="44.34767" lon="1.08987">
        <ele>231</ele>
        <time>2012-09-23T06:44:21Z</time>
      </trkpt>
      <trkpt lat="44.34762" lon="1.09011">
        <ele>232</ele>
        <time>2012-09-23T06:44:26Z</time>
      </trkpt>
      <trkpt lat="44.34761" lon="1.09032">
        <ele>233</ele>
        <time>2012-09-23T06:44:31Z</time>
      </trkpt>
      <trkpt lat="44.34764" lon="1.09046">
        <ele>233</ele>
        <time>2012-09-23T06:44:36Z</time>
      </trkpt>
      <trkpt lat="44.34775" lon="1.09058">
        <ele>233</ele>
        <time>2012-09-23T06:44:41Z</time>
      </trkpt>
      <trkpt lat="44.34788" lon="1.09068">
        <ele>233</ele>
        <time>2012-09-23T06:44:46Z</time>
      </trkpt>
      <trkpt lat="44.348" lon="1.09078">
        <ele>233</ele>
        <time>2012-09-23T06:44:51Z</time>
      </trkpt>
      <trkpt lat="44.34809" lon="1.09091">
        <ele>233</ele>
        <time>2012-09-23T06:44:56Z</time>
      </trkpt>
      <trkpt lat="44.34812" lon="1.09109">
        <ele>233</ele>
        <time>2012-09-23T06:45:01Z</time>
      </trkpt>
      <trkpt lat="44.3481" lon="1.0913">
        <ele>234</ele>
        <time>2012-09-23T06:45:06Z</time>
      </trkpt>
      <trkpt lat="44.34807" lon="1.09151">
        <ele>234</ele>
        <time>2012-09-23T06:45:11Z</time>
      </trkpt>
      <trkpt lat="44.34803" lon="1.09175">
        <ele>235</ele>
        <time>2012-09-23T06:45:16Z</time>
      </trkpt>
      <trkpt lat="44.34798" lon="1.09196">
        <ele>236</ele>
        <time>2012-09-23T06:45:21Z</time>
      </trkpt>
      <trkpt lat="44.34792" lon="1.0922">
        <ele>237</ele>
        <time>2012-09-23T06:45:26Z</time>
      </trkpt>
      <trkpt lat="44.34787" lon="1.09252">
        <ele>238</ele>
        <time>2012-09-23T06:45:31Z</time>
      </trkpt>
      <trkpt lat="44.34777" lon="1.09286">
        <ele>238</ele>
        <time>2012-09-23T06:45:36Z</time>
      </trkpt>
      <trkpt lat="44.34774" lon="1.09316">
        <ele>238</ele>
        <time>2012-09-23T06:45:41Z</time>
      </trkpt>
      <trkpt lat="44.34793" lon="1.09334">
        <ele>238</ele>
        <time>2012-09-23T06:45:46Z</time>
      </trkpt>
      <trkpt lat="44.34825" lon="1.09362">
        <ele>236</ele>
        <time>2012-09-23T06:45:52Z</time>
      </trkpt>
      <trkpt lat="44.34856" lon="1.09388">
        <ele>233</ele>
        <time>2012-09-23T06:45:57Z</time>
      </trkpt>
      <trkpt lat="44.349" lon="1.09421">
        <ele>230</ele>
        <time>2012-09-23T06:46:03Z</time>
      </trkpt>
      <trkpt lat="44.34936" lon="1.09449">
        <ele>227</ele>
        <time>2012-09-23T06:46:08Z</time>
      </trkpt>
      <trkpt lat="44.34967" lon="1.09466">
        <ele>226</ele>
        <time>2012-09-23T06:46:13Z</time>
      </trkpt>
      <trkpt lat="44.34988" lon="1.09452">
        <ele>226</ele>
        <time>2012-09-23T06:46:18Z</time>
      </trkpt>
      <trkpt lat="44.35003" lon="1.09435">
        <ele>226</ele>
        <time>2012-09-23T06:46:23Z</time>
      </trkpt>
      <trkpt lat="44.35025" lon="1.09425">
        <ele>226</ele>
        <time>2012-09-23T06:46:29Z</time>
      </trkpt>
      <trkpt lat="44.35044" lon="1.09449">
        <ele>226</ele>
        <time>2012-09-23T06:46:34Z</time>
      </trkpt>
      <trkpt lat="44.35065" lon="1.09475">
        <ele>226</ele>
        <time>2012-09-23T06:46:39Z</time>
      </trkpt>
      <trkpt lat="44.3508" lon="1.09497">
        <ele>226</ele>
        <time>2012-09-23T06:46:44Z</time>
      </trkpt>
      <trkpt lat="44.35071" lon="1.09523">
        <ele>226</ele>
        <time>2012-09-23T06:46:49Z</time>
      </trkpt>
      <trkpt lat="44.35053" lon="1.09554">
        <ele>226</ele>
        <time>2012-09-23T06:46:54Z</time>
      </trkpt>
      <trkpt lat="44.35036" lon="1.09586">
        <ele>226</ele>
        <time>2012-09-23T06:46:59Z</time>
      </trkpt>
      <trkpt lat="44.35017" lon="1.0962">
        <ele>225</ele>
        <time>2012-09-23T06:47:04Z</time>
      </trkpt>
      <trkpt lat="44.34998" lon="1.09646">
        <ele>225</ele>
        <time>2012-09-23T06:47:09Z</time>
      </trkpt>
      <trkpt lat="44.34972" lon="1.09668">
        <ele>225</ele>
        <time>2012-09-23T06:47:14Z</time>
      </trkpt>
      <trkpt lat="44.34956" lon="1.097">
        <ele>225</ele>
        <time>2012-09-23T06:47:19Z</time>
      </trkpt>
      <trkpt lat="44.34941" lon="1.09733">
        <ele>225</ele>
        <time>2012-09-23T06:47:24Z</time>
      </trkpt>
      <trkpt lat="44.34934" lon="1.09769">
        <ele>225</ele>
        <time>2012-09-23T06:47:29Z</time>
      </trkpt>
      <trkpt lat="44.34931" lon="1.09802">
        <ele>225</ele>
        <time>2012-09-23T06:47:34Z</time>
      </trkpt>
      <trkpt lat="44.34938" lon="1.09833">
        <ele>226</ele>
        <time>2012-09-23T06:47:39Z</time>
      </trkpt>
      <trkpt lat="44.3495" lon="1.0986">
        <ele>227</ele>
        <time>2012-09-23T06:47:44Z</time>
      </trkpt>
      <trkpt lat="44.34961" lon="1.09889">
        <ele>227</ele>
        <time>2012-09-23T06:47:49Z</time>
      </trkpt>
      <trkpt lat="44.34958" lon="1.09924">
        <ele>228</ele>
        <time>2012-09-23T06:47:54Z</time>
      </trkpt>
      <trkpt lat="44.34959" lon="1.09952">
        <ele>228</ele>
        <time>2012-09-23T06:47:59Z</time>
      </trkpt>
      <trkpt lat="44.34962" lon="1.09982">
        <ele>228</ele>
        <time>2012-09-23T06:48:04Z</time>
      </trkpt>
      <trkpt lat="44.34956" lon="1.10007">
        <ele>228</ele>
        <time>2012-09-23T06:48:09Z</time>
      </trkpt>
      <trkpt lat="44.34944" lon="1.10033">
        <ele>229</ele>
        <time>2012-09-23T06:48:14Z</time>
      </trkpt>
      <trkpt lat="44.3494" lon="1.10062">
        <ele>229</ele>
        <time>2012-09-23T06:48:19Z</time>
      </trkpt>
      <trkpt lat="44.34922" lon="1.10067">
        <ele>229</ele>
        <time>2012-09-23T06:48:24Z</time>
      </trkpt>
      <trkpt lat="44.34896" lon="1.10066">
        <ele>230</ele>
        <time>2012-09-23T06:48:29Z</time>
      </trkpt>
      <trkpt lat="44.34888" lon="1.10103">
        <ele>230</ele>
        <time>2012-09-23T06:48:34Z</time>
      </trkpt>
      <trkpt lat="44.34886" lon="1.10143">
        <ele>230</ele>
        <time>2012-09-23T06:48:39Z</time>
      </trkpt>
      <trkpt lat="44.34883" lon="1.10183">
        <ele>230</ele>
        <time>2012-09-23T06:48:44Z</time>
      </trkpt>
      <trkpt lat="44.34881" lon="1.10222">
        <ele>230</ele>
        <time>2012-09-23T06:48:49Z</time>
      </trkpt>
      <trkpt lat="44.3488" lon="1.10258">
        <ele>230</ele>
        <time>2012-09-23T06:48:54Z</time>
      </trkpt>
      <trkpt lat="44.34885" lon="1.10297">
        <ele>230</ele>
        <time>2012-09-23T06:48:59Z</time>
      </trkpt>
      <trkpt lat="44.34875" lon="1.1035">
        <ele>230</ele>
        <time>2012-09-23T06:49:04Z</time>
      </trkpt>
      <trkpt lat="44.34863" lon="1.10383">
        <ele>229</ele>
        <time>2012-09-23T06:49:09Z</time>
      </trkpt>
      <trkpt lat="44.34859" lon="1.10414">
        <ele>229</ele>
        <time>2012-09-23T06:49:14Z</time>
      </trkpt>
      <trkpt lat="44.34863" lon="1.10436">
        <ele>229</ele>
        <time>2012-09-23T06:49:19Z</time>
      </trkpt>
      <trkpt lat="44.3488" lon="1.10438">
        <ele>229</ele>
        <time>2012-09-23T06:49:24Z</time>
      </trkpt>
      <trkpt lat="44.34899" lon="1.10435">
        <ele>229</ele>
        <time>2012-09-23T06:49:29Z</time>
      </trkpt>
      <trkpt lat="44.34917" lon="1.10433">
        <ele>229</ele>
        <time>2012-09-23T06:49:34Z</time>
      </trkpt>
      <trkpt lat="44.34936" lon="1.10431">
        <ele>229</ele>
        <time>2012-09-23T06:49:39Z</time>
      </trkpt>
      <trkpt lat="44.34955" lon="1.10431">
        <ele>229</ele>
        <time>2012-09-23T06:49:44Z</time>
      </trkpt>
      <trkpt lat="44.34974" lon="1.10429">
        <ele>229</ele>
        <time>2012-09-23T06:49:49Z</time>
      </trkpt>
      <trkpt lat="44.34995" lon="1.10429">
        <ele>229</ele>
        <time>2012-09-23T06:49:54Z</time>
      </trkpt>
      <trkpt lat="44.35013" lon="1.1043">
        <ele>229</ele>
        <time>2012-09-23T06:49:59Z</time>
      </trkpt>
      <trkpt lat="44.35032" lon="1.10431">
        <ele>229</ele>
        <time>2012-09-23T06:50:04Z</time>
      </trkpt>
      <trkpt lat="44.3505" lon="1.10432">
        <ele>231</ele>
        <time>2012-09-23T06:50:09Z</time>
      </trkpt>
      <trkpt lat="44.35069" lon="1.10435">
        <ele>232</ele>
        <time>2012-09-23T06:50:14Z</time>
      </trkpt>
      <trkpt lat="44.35078" lon="1.10459">
        <ele>234</ele>
        <time>2012-09-23T06:50:19Z</time>
      </trkpt>
      <trkpt lat="44.35081" lon="1.10494">
        <ele>236</ele>
        <time>2012-09-23T06:50:24Z</time>
      </trkpt>
      <trkpt lat="44.35083" lon="1.10537">
        <ele>236</ele>
        <time>2012-09-23T06:50:29Z</time>
      </trkpt>
      <trkpt lat="44.35074" lon="1.10589">
        <ele>236</ele>
        <time>2012-09-23T06:50:34Z</time>
      </trkpt>
      <trkpt lat="44.35054" lon="1.1064">
        <ele>236</ele>
        <time>2012-09-23T06:50:39Z</time>
      </trkpt>
      <trkpt lat="44.35048" lon="1.10686">
        <ele>236</ele>
        <time>2012-09-23T06:50:44Z</time>
      </trkpt>
      <trkpt lat="44.35038" lon="1.10734">
        <ele>234</ele>
        <time>2012-09-23T06:50:49Z</time>
      </trkpt>
      <trkpt lat="44.35021" lon="1.10775">
        <ele>232</ele>
        <time>2012-09-23T06:50:54Z</time>
      </trkpt>
      <trkpt lat="44.34993" lon="1.10801">
        <ele>229</ele>
        <time>2012-09-23T06:50:59Z</time>
      </trkpt>
      <trkpt lat="44.34967" lon="1.10836">
        <ele>225</ele>
        <time>2012-09-23T06:51:04Z</time>
      </trkpt>
      <trkpt lat="44.3495" lon="1.10863">
        <ele>223</ele>
        <time>2012-09-23T06:51:09Z</time>
      </trkpt>
      <trkpt lat="44.34947" lon="1.10885">
        <ele>218</ele>
        <time>2012-09-23T06:51:14Z</time>
      </trkpt>
      <trkpt lat="44.3494" lon="1.10889">
        <ele>216</ele>
        <time>2012-09-23T06:51:19Z</time>
      </trkpt>
      <trkpt lat="44.34928" lon="1.10903">
        <ele>214</ele>
        <time>2012-09-23T06:51:24Z</time>
      </trkpt>
      <trkpt lat="44.34915" lon="1.10924">
        <ele>214</ele>
        <time>2012-09-23T06:51:29Z</time>
      </trkpt>
      <trkpt lat="44.34905" lon="1.10942">
        <ele>213</ele>
        <time>2012-09-23T06:51:34Z</time>
      </trkpt>
      <trkpt lat="44.34899" lon="1.10958">
        <ele>212</ele>
        <time>2012-09-23T06:51:39Z</time>
      </trkpt>
      <trkpt lat="44.34893" lon="1.10973">
        <ele>216</ele>
        <time>2012-09-23T06:51:44Z</time>
      </trkpt>
      <trkpt lat="44.34887" lon="1.10995">
        <ele>221</ele>
        <time>2012-09-23T06:51:49Z</time>
      </trkpt>
      <trkpt lat="44.34882" lon="1.11021">
        <ele>225</ele>
        <time>2012-09-23T06:51:54Z</time>
      </trkpt>
      <trkpt lat="44.34871" lon="1.11052">
        <ele>230</ele>
        <time>2012-09-23T06:51:59Z</time>
      </trkpt>
      <trkpt lat="44.34859" lon="1.11084">
        <ele>235</ele>
        <time>2012-09-23T06:52:04Z</time>
      </trkpt>
      <trkpt lat="44.34845" lon="1.11115">
        <ele>237</ele>
        <time>2012-09-23T06:52:09Z</time>
      </trkpt>
      <trkpt lat="44.34829" lon="1.11152">
        <ele>232</ele>
        <time>2012-09-23T06:52:14Z</time>
      </trkpt>
      <trkpt lat="44.34823" lon="1.11184">
        <ele>225</ele>
        <time>2012-09-23T06:52:19Z</time>
      </trkpt>
      <trkpt lat="44.34824" lon="1.11215">
        <ele>215</ele>
        <time>2012-09-23T06:52:24Z</time>
      </trkpt>
      <trkpt lat="44.34822" lon="1.11237">
        <ele>208</ele>
        <time>2012-09-23T06:52:29Z</time>
      </trkpt>
      <trkpt lat="44.34829" lon="1.11268">
        <ele>203</ele>
        <time>2012-09-23T06:52:34Z</time>
      </trkpt>
      <trkpt lat="44.34827" lon="1.11307">
        <ele>200</ele>
        <time>2012-09-23T06:52:39Z</time>
      </trkpt>
      <trkpt lat="44.34826" lon="1.1134">
        <ele>196</ele>
        <time>2012-09-23T06:52:44Z</time>
      </trkpt>
      <trkpt lat="44.3483" lon="1.11366">
        <ele>193</ele>
        <time>2012-09-23T06:52:49Z</time>
      </trkpt>
      <trkpt lat="44.34839" lon="1.11414">
        <ele>188</ele>
        <time>2012-09-23T06:52:54Z</time>
      </trkpt>
      <trkpt lat="44.34849" lon="1.1147">
        <ele>187</ele>
        <time>2012-09-23T06:52:59Z</time>
      </trkpt>
      <trkpt lat="44.34853" lon="1.11522">
        <ele>187</ele>
        <time>2012-09-23T06:53:04Z</time>
      </trkpt>
      <trkpt lat="44.34862" lon="1.11574">
        <ele>189</ele>
        <time>2012-09-23T06:53:09Z</time>
      </trkpt>
      <trkpt lat="44.34877" lon="1.1162">
        <ele>189</ele>
        <time>2012-09-23T06:53:14Z</time>
      </trkpt>
      <trkpt lat="44.34884" lon="1.11667">
        <ele>185</ele>
        <time>2012-09-23T06:53:19Z</time>
      </trkpt>
      <trkpt lat="44.34883" lon="1.11718">
        <ele>180</ele>
        <time>2012-09-23T06:53:24Z</time>
      </trkpt>
      <trkpt lat="44.34884" lon="1.11772">
        <ele>180</ele>
        <time>2012-09-23T06:53:29Z</time>
      </trkpt>
      <trkpt lat="44.34885" lon="1.11824">
        <ele>180</ele>
        <time>2012-09-23T06:53:34Z</time>
      </trkpt>
      <trkpt lat="44.3488" lon="1.11857">
        <ele>180</ele>
        <time>2012-09-23T06:53:39Z</time>
      </trkpt>
      <trkpt lat="44.34889" lon="1.11867">
        <ele>177</ele>
        <time>2012-09-23T06:53:44Z</time>
      </trkpt>
      <trkpt lat="44.34888" lon="1.11886">
        <ele>177</ele>
        <time>2012-09-23T06:53:49Z</time>
      </trkpt>
      <trkpt lat="44.3488" lon="1.11898">
        <ele>177</ele>
        <time>2012-09-23T06:53:54Z</time>
      </trkpt>
      <trkpt lat="44.34861" lon="1.11891">
        <ele>176</ele>
        <time>2012-09-23T06:53:59Z</time>
      </trkpt>
      <trkpt lat="44.34836" lon="1.11888">
        <ele>174</ele>
        <time>2012-09-23T06:54:04Z</time>
      </trkpt>
      <trkpt lat="44.34813" lon="1.11893">
        <ele>172</ele>
        <time>2012-09-23T06:54:09Z</time>
      </trkpt>
      <trkpt lat="44.34792" lon="1.119">
        <ele>171</ele>
        <time>2012-09-23T06:54:14Z</time>
      </trkpt>
      <trkpt lat="44.34772" lon="1.11908">
        <ele>170</ele>
        <time>2012-09-23T06:54:19Z</time>
      </trkpt>
      <trkpt lat="44.34764" lon="1.11895">
        <ele>170</ele>
        <time>2012-09-23T06:54:24Z</time>
      </trkpt>
      <trkpt lat="44.34769" lon="1.11868">
        <ele>170</ele>
        <time>2012-09-23T06:54:29Z</time>
      </trkpt>
      <trkpt lat="44.34769" lon="1.1184">
        <ele>170</ele>
        <time>2012-09-23T06:54:34Z</time>
      </trkpt>
      <trkpt lat="44.34753" lon="1.11824">
        <ele>170</ele>
        <time>2012-09-23T06:54:39Z</time>
      </trkpt>
      <trkpt lat="44.34734" lon="1.11814">
        <ele>170</ele>
        <time>2012-09-23T06:54:44Z</time>
      </trkpt>
      <trkpt lat="44.34716" lon="1.11792">
        <ele>170</ele>
        <time>2012-09-23T06:54:49Z</time>
      </trkpt>
      <trkpt lat="44.34698" lon="1.11769">
        <ele>170</ele>
        <time>2012-09-23T06:54:54Z</time>
      </trkpt>
      <trkpt lat="44.34679" lon="1.11743">
        <ele>170</ele>
        <time>2012-09-23T06:54:59Z</time>
      </trkpt>
      <trkpt lat="44.34658" lon="1.11726">
        <ele>170</ele>
        <time>2012-09-23T06:55:04Z</time>
      </trkpt>
      <trkpt lat="44.34635" lon="1.11721">
        <ele>170</ele>
        <time>2012-09-23T06:55:09Z</time>
      </trkpt>
      <trkpt lat="44.34613" lon="1.11707">
        <ele>170</ele>
        <time>2012-09-23T06:55:14Z</time>
      </trkpt>
      <trkpt lat="44.34597" lon="1.1168">
        <ele>170</ele>
        <time>2012-09-23T06:55:19Z</time>
      </trkpt>
      <trkpt lat="44.34588" lon="1.11648">
        <ele>170</ele>
        <time>2012-09-23T06:55:24Z</time>
      </trkpt>
      <trkpt lat="44.34574" lon="1.11619">
        <ele>170</ele>
        <time>2012-09-23T06:55:29Z</time>
      </trkpt>
      <trkpt lat="44.34562" lon="1.11589">
        <ele>170</ele>
        <time>2012-09-23T06:55:34Z</time>
      </trkpt>
      <trkpt lat="44.34549" lon="1.1156">
        <ele>173</ele>
        <time>2012-09-23T06:55:39Z</time>
      </trkpt>
      <trkpt lat="44.3453" lon="1.11542">
        <ele>173</ele>
        <time>2012-09-23T06:55:44Z</time>
      </trkpt>
      <trkpt lat="44.34508" lon="1.11537">
        <ele>173</ele>
        <time>2012-09-23T06:55:49Z</time>
      </trkpt>
      <trkpt lat="44.34487" lon="1.11519">
        <ele>173</ele>
        <time>2012-09-23T06:55:54Z</time>
      </trkpt>
      <trkpt lat="44.34466" lon="1.11501">
        <ele>173</ele>
        <time>2012-09-23T06:55:59Z</time>
      </trkpt>
      <trkpt lat="44.34444" lon="1.11488">
        <ele>173</ele>
        <time>2012-09-23T06:56:04Z</time>
      </trkpt>
      <trkpt lat="44.34424" lon="1.11469">
        <ele>173</ele>
        <time>2012-09-23T06:56:09Z</time>
      </trkpt>
      <trkpt lat="44.34408" lon="1.1145">
        <ele>173</ele>
        <time>2012-09-23T06:56:14Z</time>
      </trkpt>
      <trkpt lat="44.34395" lon="1.11434">
        <ele>173</ele>
        <time>2012-09-23T06:56:19Z</time>
      </trkpt>
      <trkpt lat="44.34384" lon="1.11416">
        <ele>172</ele>
        <time>2012-09-23T06:56:24Z</time>
      </trkpt>
      <trkpt lat="44.34369" lon="1.11407">
        <ele>172</ele>
        <time>2012-09-23T06:56:29Z</time>
      </trkpt>
      <trkpt lat="44.3436" lon="1.11411">
        <ele>172</ele>
        <time>2012-09-23T06:56:34Z</time>
      </trkpt>
      <trkpt lat="44.34352" lon="1.11414">
        <ele>172</ele>
        <time>2012-09-23T06:56:39Z</time>
      </trkpt>
      <trkpt lat="44.34344" lon="1.11415">
        <ele>172</ele>
        <time>2012-09-23T06:56:44Z</time>
      </trkpt>
      <trkpt lat="44.34337" lon="1.11415">
        <ele>172</ele>
        <time>2012-09-23T06:56:49Z</time>
      </trkpt>
      <trkpt lat="44.34328" lon="1.11416">
        <ele>172</ele>
        <time>2012-09-23T06:56:54Z</time>
      </trkpt>
      <trkpt lat="44.34315" lon="1.11417">
        <ele>172</ele>
        <time>2012-09-23T06:56:59Z</time>
      </trkpt>
      <trkpt lat="44.34303" lon="1.11418">
        <ele>172</ele>
        <time>2012-09-23T06:57:04Z</time>
      </trkpt>
      <trkpt lat="44.34292" lon="1.11419">
        <ele>173</ele>
        <time>2012-09-23T06:57:09Z</time>
      </trkpt>
      <trkpt lat="44.3428" lon="1.11424">
        <ele>176</ele>
        <time>2012-09-23T06:57:14Z</time>
      </trkpt>
      <trkpt lat="44.34269" lon="1.11429">
        <ele>179</ele>
        <time>2012-09-23T06:57:19Z</time>
      </trkpt>
      <trkpt lat="44.3426" lon="1.11434">
        <ele>180</ele>
        <time>2012-09-23T06:57:24Z</time>
      </trkpt>
      <trkpt lat="44.3425" lon="1.11437">
        <ele>183</ele>
        <time>2012-09-23T06:57:29Z</time>
      </trkpt>
      <trkpt lat="44.3424" lon="1.11438">
        <ele>186</ele>
        <time>2012-09-23T06:57:34Z</time>
      </trkpt>
      <trkpt lat="44.34228" lon="1.11442">
        <ele>187</ele>
        <time>2012-09-23T06:57:39Z</time>
      </trkpt>
      <trkpt lat="44.34219" lon="1.11447">
        <ele>187</ele>
        <time>2012-09-23T06:57:44Z</time>
      </trkpt>
      <trkpt lat="44.34208" lon="1.11452">
        <ele>187</ele>
        <time>2012-09-23T06:57:49Z</time>
      </trkpt>
      <trkpt lat="44.34196" lon="1.11458">
        <ele>187</ele>
        <time>2012-09-23T06:57:54Z</time>
      </trkpt>
      <trkpt lat="44.34184" lon="1.11462">
        <ele>187</ele>
        <time>2012-09-23T06:57:59Z</time>
      </trkpt>
      <trkpt lat="44.34172" lon="1.11468">
        <ele>187</ele>
        <time>2012-09-23T06:58:04Z</time>
      </trkpt>
      <trkpt lat="44.34162" lon="1.11478">
        <ele>187</ele>
        <time>2012-09-23T06:58:09Z</time>
      </trkpt>
      <trkpt lat="44.34158" lon="1.11493">
        <ele>187</ele>
        <time>2012-09-23T06:58:14Z</time>
      </trkpt>
      <trkpt lat="44.34145" lon="1.11506">
        <ele>187</ele>
        <time>2012-09-23T06:58:19Z</time>
      </trkpt>
      <trkpt lat="44.34136" lon="1.11522">
        <ele>190</ele>
        <time>2012-09-23T06:58:24Z</time>
      </trkpt>
      <trkpt lat="44.34129" lon="1.11537">
        <ele>191</ele>
        <time>2012-09-23T06:58:29Z</time>
      </trkpt>
      <trkpt lat="44.34126" lon="1.11554">
        <ele>195</ele>
        <time>2012-09-23T06:58:34Z</time>
      </trkpt>
      <trkpt lat="44.3412" lon="1.11571">
        <ele>200</ele>
        <time>2012-09-23T06:58:39Z</time>
      </trkpt>
      <trkpt lat="44.34109" lon="1.11589">
        <ele>205</ele>
        <time>2012-09-23T06:58:44Z</time>
      </trkpt>
      <trkpt lat="44.34095" lon="1.1161">
        <ele>207</ele>
        <time>2012-09-23T06:58:49Z</time>
      </trkpt>
      <trkpt lat="44.34079" lon="1.11629">
        <ele>207</ele>
        <time>2012-09-23T06:58:54Z</time>
      </trkpt>
      <trkpt lat="44.34051" lon="1.11629">
        <ele>207</ele>
        <time>2012-09-23T06:58:59Z</time>
      </trkpt>
      <trkpt lat="44.34023" lon="1.11608">
        <ele>208</ele>
        <time>2012-09-23T06:59:04Z</time>
      </trkpt>
      <trkpt lat="44.33992" lon="1.11588">
        <ele>208</ele>
        <time>2012-09-23T06:59:09Z</time>
      </trkpt>
      <trkpt lat="44.33971" lon="1.11572">
        <ele>207</ele>
        <time>2012-09-23T06:59:14Z</time>
      </trkpt>
      <trkpt lat="44.33956" lon="1.11558">
        <ele>205</ele>
        <time>2012-09-23T06:59:19Z</time>
      </trkpt>
      <trkpt lat="44.33941" lon="1.11548">
        <ele>205</ele>
        <time>2012-09-23T06:59:24Z</time>
      </trkpt>
      <trkpt lat="44.33926" lon="1.11548">
        <ele>205</ele>
        <time>2012-09-23T06:59:29Z</time>
      </trkpt>
      <trkpt lat="44.33912" lon="1.11555">
        <ele>205</ele>
        <time>2012-09-23T06:59:34Z</time>
      </trkpt>
      <trkpt lat="44.339" lon="1.11565">
        <ele>205</ele>
        <time>2012-09-23T06:59:39Z</time>
      </trkpt>
      <trkpt lat="44.33886" lon="1.11574">
        <ele>203</ele>
        <time>2012-09-23T06:59:44Z</time>
      </trkpt>
      <trkpt lat="44.33871" lon="1.11587">
        <ele>200</ele>
        <time>2012-09-23T06:59:49Z</time>
      </trkpt>
      <trkpt lat="44.33859" lon="1.11596">
        <ele>200</ele>
        <time>2012-09-23T06:59:54Z</time>
      </trkpt>
      <trkpt lat="44.3385" lon="1.11603">
        <ele>198</ele>
        <time>2012-09-23T06:59:59Z</time>
      </trkpt>
      <trkpt lat="44.33843" lon="1.11611">
        <ele>197</ele>
        <time>2012-09-23T07:00:04Z</time>
      </trkpt>
      <trkpt lat="44.33843" lon="1.1162">
        <ele>197</ele>
        <time>2012-09-23T07:00:09Z</time>
      </trkpt>
      <trkpt lat="44.33848" lon="1.11627">
        <ele>199</ele>
        <time>2012-09-23T07:00:15Z</time>
      </trkpt>
      <trkpt lat="44.33854" lon="1.11633">
        <ele>200</ele>
        <time>2012-09-23T07:00:20Z</time>
      </trkpt>
      <trkpt lat="44.3386" lon="1.11641">
        <ele>200</ele>
        <time>2012-09-23T07:00:26Z</time>
      </trkpt>
      <trkpt lat="44.33864" lon="1.11648">
        <ele>204</ele>
        <time>2012-09-23T07:00:31Z</time>
      </trkpt>
      <trkpt lat="44.33867" lon="1.11655">
        <ele>209</ele>
        <time>2012-09-23T07:00:36Z</time>
      </trkpt>
      <trkpt lat="44.33869" lon="1.11662">
        <ele>212</ele>
        <time>2012-09-23T07:00:41Z</time>
      </trkpt>
      <trkpt lat="44.33871" lon="1.11671">
        <ele>216</ele>
        <time>2012-09-23T07:00:46Z</time>
      </trkpt>
      <trkpt lat="44.33872" lon="1.11679">
        <ele>218</ele>
        <time>2012-09-23T07:00:52Z</time>
      </trkpt>
      <trkpt lat="44.33872" lon="1.11686">
        <ele>220</ele>
        <time>2012-09-23T07:00:57Z</time>
      </trkpt>
      <trkpt lat="44.33871" lon="1.11698">
        <ele>222</ele>
        <time>2012-09-23T07:01:02Z</time>
      </trkpt>
      <trkpt lat="44.33871" lon="1.1171">
        <ele>224</ele>
        <time>2012-09-23T07:01:07Z</time>
      </trkpt>
      <trkpt lat="44.33872" lon="1.11723">
        <ele>225</ele>
        <time>2012-09-23T07:01:12Z</time>
      </trkpt>
      <trkpt lat="44.3388" lon="1.11731">
        <ele>225</ele>
        <time>2012-09-23T07:01:17Z</time>
      </trkpt>
      <trkpt lat="44.33886" lon="1.11739">
        <ele>226</ele>
        <time>2012-09-23T07:01:22Z</time>
      </trkpt>
      <trkpt lat="44.33887" lon="1.11753">
        <ele>227</ele>
        <time>2012-09-23T07:01:27Z</time>
      </trkpt>
      <trkpt lat="44.33883" lon="1.11767">
        <ele>230</ele>
        <time>2012-09-23T07:01:32Z</time>
      </trkpt>
      <trkpt lat="44.33877" lon="1.11779">
        <ele>232</ele>
        <time>2012-09-23T07:01:37Z</time>
      </trkpt>
      <trkpt lat="44.3387" lon="1.1179">
        <ele>233</ele>
        <time>2012-09-23T07:01:42Z</time>
      </trkpt>
      <trkpt lat="44.33864" lon="1.11802">
        <ele>235</ele>
        <time>2012-09-23T07:01:47Z</time>
      </trkpt>
      <trkpt lat="44.33856" lon="1.11814">
        <ele>236</ele>
        <time>2012-09-23T07:01:52Z</time>
      </trkpt>
      <trkpt lat="44.33849" lon="1.11826">
        <ele>238</ele>
        <time>2012-09-23T07:01:57Z</time>
      </trkpt>
      <trkpt lat="44.33842" lon="1.11837">
        <ele>238</ele>
        <time>2012-09-23T07:02:02Z</time>
      </trkpt>
      <trkpt lat="44.33834" lon="1.11849">
        <ele>239</ele>
        <time>2012-09-23T07:02:07Z</time>
      </trkpt>
      <trkpt lat="44.33827" lon="1.11861">
        <ele>239</ele>
        <time>2012-09-23T07:02:12Z</time>
      </trkpt>
      <trkpt lat="44.33819" lon="1.11874">
        <ele>240</ele>
        <time>2012-09-23T07:02:17Z</time>
      </trkpt>
      <trkpt lat="44.33813" lon="1.11889">
        <ele>240</ele>
        <time>2012-09-23T07:02:22Z</time>
      </trkpt>
      <trkpt lat="44.33807" lon="1.11906">
        <ele>244</ele>
        <time>2012-09-23T07:02:27Z</time>
      </trkpt>
      <trkpt lat="44.33806" lon="1.11924">
        <ele>245</ele>
        <time>2012-09-23T07:02:32Z</time>
      </trkpt>
      <trkpt lat="44.33798" lon="1.1194">
        <ele>245</ele>
        <time>2012-09-23T07:02:37Z</time>
      </trkpt>
      <trkpt lat="44.33786" lon="1.11957">
        <ele>245</ele>
        <time>2012-09-23T07:02:42Z</time>
      </trkpt>
      <trkpt lat="44.33773" lon="1.11942">
        <ele>245</ele>
        <time>2012-09-23T07:02:47Z</time>
      </trkpt>
      <trkpt lat="44.33758" lon="1.11914">
        <ele>245</ele>
        <time>2012-09-23T07:02:52Z</time>
      </trkpt>
      <trkpt lat="44.33742" lon="1.11882">
        <ele>244</ele>
        <time>2012-09-23T07:02:57Z</time>
      </trkpt>
      <trkpt lat="44.33725" lon="1.11847">
        <ele>243</ele>
        <time>2012-09-23T07:03:02Z</time>
      </trkpt>
      <trkpt lat="44.33715" lon="1.11806">
        <ele>242</ele>
        <time>2012-09-23T07:03:07Z</time>
      </trkpt>
      <trkpt lat="44.337" lon="1.11766">
        <ele>241</ele>
        <time>2012-09-23T07:03:12Z</time>
      </trkpt>
      <trkpt lat="44.33683" lon="1.11729">
        <ele>239</ele>
        <time>2012-09-23T07:03:17Z</time>
      </trkpt>
      <trkpt lat="44.33669" lon="1.1169">
        <ele>238</ele>
        <time>2012-09-23T07:03:22Z</time>
      </trkpt>
      <trkpt lat="44.33654" lon="1.11654">
        <ele>238</ele>
        <time>2012-09-23T07:03:27Z</time>
      </trkpt>
      <trkpt lat="44.33641" lon="1.11619">
        <ele>238</ele>
        <time>2012-09-23T07:03:32Z</time>
      </trkpt>
      <trkpt lat="44.33627" lon="1.11585">
        <ele>238</ele>
        <time>2012-09-23T07:03:37Z</time>
      </trkpt>
      <trkpt lat="44.33613" lon="1.11554">
        <ele>238</ele>
        <time>2012-09-23T07:03:42Z</time>
      </trkpt>
      <trkpt lat="44.33597" lon="1.11524">
        <ele>238</ele>
        <time>2012-09-23T07:03:47Z</time>
      </trkpt>
      <trkpt lat="44.33581" lon="1.11491">
        <ele>238</ele>
        <time>2012-09-23T07:03:52Z</time>
      </trkpt>
      <trkpt lat="44.3357" lon="1.11452">
        <ele>238</ele>
        <time>2012-09-23T07:03:57Z</time>
      </trkpt>
      <trkpt lat="44.33555" lon="1.11415">
        <ele>238</ele>
        <time>2012-09-23T07:04:02Z</time>
      </trkpt>
      <trkpt lat="44.33538" lon="1.11376">
        <ele>238</ele>
        <time>2012-09-23T07:04:07Z</time>
      </trkpt>
      <trkpt lat="44.33518" lon="1.11336">
        <ele>238</ele>
        <time>2012-09-23T07:04:12Z</time>
      </trkpt>
      <trkpt lat="44.33498" lon="1.11293">
        <ele>236</ele>
        <time>2012-09-23T07:04:17Z</time>
      </trkpt>
      <trkpt lat="44.33476" lon="1.11263">
        <ele>236</ele>
        <time>2012-09-23T07:04:22Z</time>
      </trkpt>
      <trkpt lat="44.33451" lon="1.11245">
        <ele>235</ele>
        <time>2012-09-23T07:04:27Z</time>
      </trkpt>
      <trkpt lat="44.33427" lon="1.11225">
        <ele>235</ele>
        <time>2012-09-23T07:04:32Z</time>
      </trkpt>
      <trkpt lat="44.33405" lon="1.11213">
        <ele>235</ele>
        <time>2012-09-23T07:04:37Z</time>
      </trkpt>
      <trkpt lat="44.33384" lon="1.11233">
        <ele>234</ele>
        <time>2012-09-23T07:04:42Z</time>
      </trkpt>
      <trkpt lat="44.3336" lon="1.11256">
        <ele>231</ele>
        <time>2012-09-23T07:04:47Z</time>
      </trkpt>
      <trkpt lat="44.33336" lon="1.11248">
        <ele>229</ele>
        <time>2012-09-23T07:04:52Z</time>
      </trkpt>
      <trkpt lat="44.33317" lon="1.11222">
        <ele>228</ele>
        <time>2012-09-23T07:04:57Z</time>
      </trkpt>
      <trkpt lat="44.33297" lon="1.112">
        <ele>228</ele>
        <time>2012-09-23T07:05:02Z</time>
      </trkpt>
      <trkpt lat="44.3328" lon="1.11179">
        <ele>228</ele>
        <time>2012-09-23T07:05:07Z</time>
      </trkpt>
      <trkpt lat="44.33267" lon="1.11152">
        <ele>228</ele>
        <time>2012-09-23T07:05:12Z</time>
      </trkpt>
      <trkpt lat="44.33254" lon="1.11124">
        <ele>228</ele>
        <time>2012-09-23T07:05:17Z</time>
      </trkpt>
      <trkpt lat="44.33239" lon="1.11122">
        <ele>228</ele>
        <time>2012-09-23T07:05:22Z</time>
      </trkpt>
      <trkpt lat="44.3322" lon="1.11132">
        <ele>228</ele>
        <time>2012-09-23T07:05:27Z</time>
      </trkpt>
      <trkpt lat="44.332" lon="1.11126">
        <ele>228</ele>
        <time>2012-09-23T07:05:32Z</time>
      </trkpt>
      <trkpt lat="44.33178" lon="1.11117">
        <ele>228</ele>
        <time>2012-09-23T07:05:37Z</time>
      </trkpt>
      <trkpt lat="44.33156" lon="1.11109">
        <ele>228</ele>
        <time>2012-09-23T07:05:42Z</time>
      </trkpt>
      <trkpt lat="44.33132" lon="1.11096">
        <ele>228</ele>
        <time>2012-09-23T07:05:47Z</time>
      </trkpt>
      <trkpt lat="44.3311" lon="1.11077">
        <ele>228</ele>
        <time>2012-09-23T07:05:52Z</time>
      </trkpt>
      <trkpt lat="44.33089" lon="1.11059">
        <ele>228</ele>
        <time>2012-09-23T07:05:57Z</time>
      </trkpt>
      <trkpt lat="44.3307" lon="1.11041">
        <ele>228</ele>
        <time>2012-09-23T07:06:02Z</time>
      </trkpt>
      <trkpt lat="44.33054" lon="1.11014">
        <ele>228</ele>
        <time>2012-09-23T07:06:07Z</time>
      </trkpt>
      <trkpt lat="44.33039" lon="1.10985">
        <ele>228</ele>
        <time>2012-09-23T07:06:12Z</time>
      </trkpt>
      <trkpt lat="44.33018" lon="1.10966">
        <ele>228</ele>
        <time>2012-09-23T07:06:17Z</time>
      </trkpt>
      <trkpt lat="44.32995" lon="1.1095">
        <ele>227</ele>
        <time>2012-09-23T07:06:22Z</time>
      </trkpt>
      <trkpt lat="44.32971" lon="1.10936">
        <ele>226</ele>
        <time>2012-09-23T07:06:27Z</time>
      </trkpt>
      <trkpt lat="44.32943" lon="1.10928">
        <ele>225</ele>
        <time>2012-09-23T07:06:32Z</time>
      </trkpt>
      <trkpt lat="44.32916" lon="1.1092">
        <ele>224</ele>
        <time>2012-09-23T07:06:37Z</time>
      </trkpt>
      <trkpt lat="44.32886" lon="1.10921">
        <ele>223</ele>
        <time>2012-09-23T07:06:42Z</time>
      </trkpt>
      <trkpt lat="44.32856" lon="1.10924">
        <ele>223</ele>
        <time>2012-09-23T07:06:47Z</time>
      </trkpt>
      <trkpt lat="44.3283" lon="1.10915">
        <ele>223</ele>
        <time>2012-09-23T07:06:52Z</time>
      </trkpt>
      <trkpt lat="44.32809" lon="1.10897">
        <ele>223</ele>
        <time>2012-09-23T07:06:57Z</time>
      </trkpt>
      <trkpt lat="44.3279" lon="1.10869">
        <ele>223</ele>
        <time>2012-09-23T07:07:02Z</time>
      </trkpt>
      <trkpt lat="44.32772" lon="1.10849">
        <ele>223</ele>
        <time>2012-09-23T07:07:07Z</time>
      </trkpt>
      <trkpt lat="44.32764" lon="1.10861">
        <ele>223</ele>
        <time>2012-09-23T07:07:12Z</time>
      </trkpt>
      <trkpt lat="44.32764" lon="1.10887">
        <ele>223</ele>
        <time>2012-09-23T07:07:17Z</time>
      </trkpt>
      <trkpt lat="44.32764" lon="1.10916">
        <ele>223</ele>
        <time>2012-09-23T07:07:22Z</time>
      </trkpt>
      <trkpt lat="44.32764" lon="1.10949">
        <ele>223</ele>
        <time>2012-09-23T07:07:27Z</time>
      </trkpt>
      <trkpt lat="44.32763" lon="1.10984">
        <ele>223</ele>
        <time>2012-09-23T07:07:32Z</time>
      </trkpt>
      <trkpt lat="44.32765" lon="1.11022">
        <ele>223</ele>
        <time>2012-09-23T07:07:37Z</time>
      </trkpt>
      <trkpt lat="44.32777" lon="1.1107">
        <ele>223</ele>
        <time>2012-09-23T07:07:42Z</time>
      </trkpt>
      <trkpt lat="44.32789" lon="1.11123">
        <ele>222</ele>
        <time>2012-09-23T07:07:47Z</time>
      </trkpt>
      <trkpt lat="44.328" lon="1.11169">
        <ele>221</ele>
        <time>2012-09-23T07:07:52Z</time>
      </trkpt>
      <trkpt lat="44.32793" lon="1.11199">
        <ele>219</ele>
        <time>2012-09-23T07:07:57Z</time>
      </trkpt>
      <trkpt lat="44.32764" lon="1.11226">
        <ele>214</ele>
        <time>2012-09-23T07:08:02Z</time>
      </trkpt>
      <trkpt lat="44.32741" lon="1.11272">
        <ele>209</ele>
        <time>2012-09-23T07:08:07Z</time>
      </trkpt>
      <trkpt lat="44.32728" lon="1.11328">
        <ele>204</ele>
        <time>2012-09-23T07:08:12Z</time>
      </trkpt>
      <trkpt lat="44.32724" lon="1.1137">
        <ele>199</ele>
        <time>2012-09-23T07:08:17Z</time>
      </trkpt>
      <trkpt lat="44.32716" lon="1.11392">
        <ele>195</ele>
        <time>2012-09-23T07:08:22Z</time>
      </trkpt>
      <trkpt lat="44.32683" lon="1.11401">
        <ele>188</ele>
        <time>2012-09-23T07:08:27Z</time>
      </trkpt>
      <trkpt lat="44.3264" lon="1.11403">
        <ele>183</ele>
        <time>2012-09-23T07:08:32Z</time>
      </trkpt>
      <trkpt lat="44.32604" lon="1.11403">
        <ele>177</ele>
        <time>2012-09-23T07:08:37Z</time>
      </trkpt>
      <trkpt lat="44.32587" lon="1.11419">
        <ele>170</ele>
        <time>2012-09-23T07:08:42Z</time>
      </trkpt>
      <trkpt lat="44.32575" lon="1.11459">
        <ele>165</ele>
        <time>2012-09-23T07:08:47Z</time>
      </trkpt>
      <trkpt lat="44.32564" lon="1.11498">
        <ele>164</ele>
        <time>2012-09-23T07:08:52Z</time>
      </trkpt>
      <trkpt lat="44.32552" lon="1.11535">
        <ele>164</ele>
        <time>2012-09-23T07:08:57Z</time>
      </trkpt>
      <trkpt lat="44.32538" lon="1.1156">
        <ele>168</ele>
        <time>2012-09-23T07:09:02Z</time>
      </trkpt>
      <trkpt lat="44.32527" lon="1.11583">
        <ele>173</ele>
        <time>2012-09-23T07:09:07Z</time>
      </trkpt>
      <trkpt lat="44.32516" lon="1.11605">
        <ele>178</ele>
        <time>2012-09-23T07:09:12Z</time>
      </trkpt>
      <trkpt lat="44.32507" lon="1.11627">
        <ele>183</ele>
        <time>2012-09-23T07:09:17Z</time>
      </trkpt>
      <trkpt lat="44.32501" lon="1.11649">
        <ele>190</ele>
        <time>2012-09-23T07:09:22Z</time>
      </trkpt>
      <trkpt lat="44.32499" lon="1.11677">
        <ele>195</ele>
        <time>2012-09-23T07:09:27Z</time>
      </trkpt>
      <trkpt lat="44.32495" lon="1.11705">
        <ele>195</ele>
        <time>2012-09-23T07:09:32Z</time>
      </trkpt>
      <trkpt lat="44.32492" lon="1.11732">
        <ele>195</ele>
        <time>2012-09-23T07:09:37Z</time>
      </trkpt>
      <trkpt lat="44.32486" lon="1.11761">
        <ele>196</ele>
        <time>2012-09-23T07:09:42Z</time>
      </trkpt>
      <trkpt lat="44.32484" lon="1.11788">
        <ele>196</ele>
        <time>2012-09-23T07:09:47Z</time>
      </trkpt>
      <trkpt lat="44.32481" lon="1.11819">
        <ele>192</ele>
        <time>2012-09-23T07:09:52Z</time>
      </trkpt>
      <trkpt lat="44.3247" lon="1.11852">
        <ele>189</ele>
        <time>2012-09-23T07:09:57Z</time>
      </trkpt>
      <trkpt lat="44.32457" lon="1.11886">
        <ele>187</ele>
        <time>2012-09-23T07:10:02Z</time>
      </trkpt>
      <trkpt lat="44.32445" lon="1.11916">
        <ele>187</ele>
        <time>2012-09-23T07:10:07Z</time>
      </trkpt>
      <trkpt lat="44.32435" lon="1.11943">
        <ele>187</ele>
        <time>2012-09-23T07:10:12Z</time>
      </trkpt>
      <trkpt lat="44.32427" lon="1.1197">
        <ele>187</ele>
        <time>2012-09-23T07:10:17Z</time>
      </trkpt>
      <trkpt lat="44.32418" lon="1.11998">
        <ele>187</ele>
        <time>2012-09-23T07:10:22Z</time>
      </trkpt>
      <trkpt lat="44.32413" lon="1.1203">
        <ele>187</ele>
        <time>2012-09-23T07:10:27Z</time>
      </trkpt>
      <trkpt lat="44.32413" lon="1.12062">
        <ele>187</ele>
        <time>2012-09-23T07:10:32Z</time>
      </trkpt>
      <trkpt lat="44.32413" lon="1.12095">
        <ele>187</ele>
        <time>2012-09-23T07:10:37Z</time>
      </trkpt>
      <trkpt lat="44.3241" lon="1.12128">
        <ele>187</ele>
        <time>2012-09-23T07:10:42Z</time>
      </trkpt>
      <trkpt lat="44.32404" lon="1.1216">
        <ele>192</ele>
        <time>2012-09-23T07:10:47Z</time>
      </trkpt>
      <trkpt lat="44.32397" lon="1.1219">
        <ele>197</ele>
        <time>2012-09-23T07:10:52Z</time>
      </trkpt>
      <trkpt lat="44.32391" lon="1.12219">
        <ele>198</ele>
        <time>2012-09-23T07:10:57Z</time>
      </trkpt>
      <trkpt lat="44.32387" lon="1.12252">
        <ele>198</ele>
        <time>2012-09-23T07:11:02Z</time>
      </trkpt>
      <trkpt lat="44.32382" lon="1.12285">
        <ele>198</ele>
        <time>2012-09-23T07:11:07Z</time>
      </trkpt>
      <trkpt lat="44.32381" lon="1.12318">
        <ele>197</ele>
        <time>2012-09-23T07:11:12Z</time>
      </trkpt>
      <trkpt lat="44.32382" lon="1.12346">
        <ele>194</ele>
        <time>2012-09-23T07:11:17Z</time>
      </trkpt>
      <trkpt lat="44.32383" lon="1.12371">
        <ele>194</ele>
        <time>2012-09-23T07:11:22Z</time>
      </trkpt>
      <trkpt lat="44.32384" lon="1.12396">
        <ele>189</ele>
        <time>2012-09-23T07:11:27Z</time>
      </trkpt>
      <trkpt lat="44.32386" lon="1.12422">
        <ele>187</ele>
        <time>2012-09-23T07:11:32Z</time>
      </trkpt>
      <trkpt lat="44.32389" lon="1.12449">
        <ele>187</ele>
        <time>2012-09-23T07:11:37Z</time>
      </trkpt>
      <trkpt lat="44.32392" lon="1.1247">
        <ele>183</ele>
        <time>2012-09-23T07:11:42Z</time>
      </trkpt>
      <trkpt lat="44.32397" lon="1.12491">
        <ele>178</ele>
        <time>2012-09-23T07:11:47Z</time>
      </trkpt>
      <trkpt lat="44.32395" lon="1.12511">
        <ele>178</ele>
        <time>2012-09-23T07:11:52Z</time>
      </trkpt>
      <trkpt lat="44.32372" lon="1.12514">
        <ele>178</ele>
        <time>2012-09-23T07:11:57Z</time>
      </trkpt>
      <trkpt lat="44.32343" lon="1.12515">
        <ele>178</ele>
        <time>2012-09-23T07:12:02Z</time>
      </trkpt>
      <trkpt lat="44.32316" lon="1.12514">
        <ele>179</ele>
        <time>2012-09-23T07:12:07Z</time>
      </trkpt>
      <trkpt lat="44.3229" lon="1.12509">
        <ele>180</ele>
        <time>2012-09-23T07:12:12Z</time>
      </trkpt>
      <trkpt lat="44.3227" lon="1.12491">
        <ele>181</ele>
        <time>2012-09-23T07:12:17Z</time>
      </trkpt>
      <trkpt lat="44.32256" lon="1.1247">
        <ele>182</ele>
        <time>2012-09-23T07:12:22Z</time>
      </trkpt>
      <trkpt lat="44.32241" lon="1.12455">
        <ele>183</ele>
        <time>2012-09-23T07:12:27Z</time>
      </trkpt>
      <trkpt lat="44.32226" lon="1.12446">
        <ele>185</ele>
        <time>2012-09-23T07:12:32Z</time>
      </trkpt>
      <trkpt lat="44.32206" lon="1.12432">
        <ele>185</ele>
        <time>2012-09-23T07:12:37Z</time>
      </trkpt>
      <trkpt lat="44.32184" lon="1.12417">
        <ele>185</ele>
        <time>2012-09-23T07:12:42Z</time>
      </trkpt>
      <trkpt lat="44.32163" lon="1.12405">
        <ele>185</ele>
        <time>2012-09-23T07:12:47Z</time>
      </trkpt>
      <trkpt lat="44.32142" lon="1.12399">
        <ele>185</ele>
        <time>2012-09-23T07:12:52Z</time>
      </trkpt>
      <trkpt lat="44.32121" lon="1.12394">
        <ele>185</ele>
        <time>2012-09-23T07:12:57Z</time>
      </trkpt>
      <trkpt lat="44.32101" lon="1.12387">
        <ele>186</ele>
        <time>2012-09-23T07:13:02Z</time>
      </trkpt>
      <trkpt lat="44.32077" lon="1.12381">
        <ele>187</ele>
        <time>2012-09-23T07:13:07Z</time>
      </trkpt>
      <trkpt lat="44.32055" lon="1.12384">
        <ele>189</ele>
        <time>2012-09-23T07:13:12Z</time>
      </trkpt>
      <trkpt lat="44.32032" lon="1.12392">
        <ele>189</ele>
        <time>2012-09-23T07:13:17Z</time>
      </trkpt>
      <trkpt lat="44.32012" lon="1.12407">
        <ele>189</ele>
        <time>2012-09-23T07:13:22Z</time>
      </trkpt>
      <trkpt lat="44.31994" lon="1.12422">
        <ele>191</ele>
        <time>2012-09-23T07:13:27Z</time>
      </trkpt>
      <trkpt lat="44.31977" lon="1.12437">
        <ele>193</ele>
        <time>2012-09-23T07:13:32Z</time>
      </trkpt>
      <trkpt lat="44.31962" lon="1.12453">
        <ele>194</ele>
        <time>2012-09-23T07:13:37Z</time>
      </trkpt>
      <trkpt lat="44.31946" lon="1.12469">
        <ele>196</ele>
        <time>2012-09-23T07:13:42Z</time>
      </trkpt>
      <trkpt lat="44.3193" lon="1.12486">
        <ele>198</ele>
        <time>2012-09-23T07:13:47Z</time>
      </trkpt>
      <trkpt lat="44.31916" lon="1.12502">
        <ele>200</ele>
        <time>2012-09-23T07:13:52Z</time>
      </trkpt>
      <trkpt lat="44.31904" lon="1.12514">
        <ele>202</ele>
        <time>2012-09-23T07:13:57Z</time>
      </trkpt>
      <trkpt lat="44.31892" lon="1.12528">
        <ele>203</ele>
        <time>2012-09-23T07:14:02Z</time>
      </trkpt>
      <trkpt lat="44.3188" lon="1.1254">
        <ele>206</ele>
        <time>2012-09-23T07:14:07Z</time>
      </trkpt>
      <trkpt lat="44.31868" lon="1.12554">
        <ele>211</ele>
        <time>2012-09-23T07:14:12Z</time>
      </trkpt>
      <trkpt lat="44.31856" lon="1.12567">
        <ele>216</ele>
        <time>2012-09-23T07:14:17Z</time>
      </trkpt>
      <trkpt lat="44.31845" lon="1.1258">
        <ele>220</ele>
        <time>2012-09-23T07:14:22Z</time>
      </trkpt>
      <trkpt lat="44.31836" lon="1.12592">
        <ele>221</ele>
        <time>2012-09-23T07:14:27Z</time>
      </trkpt>
      <trkpt lat="44.31826" lon="1.12607">
        <ele>223</ele>
        <time>2012-09-23T07:14:32Z</time>
      </trkpt>
      <trkpt lat="44.31819" lon="1.12619">
        <ele>223</ele>
        <time>2012-09-23T07:14:37Z</time>
      </trkpt>
      <trkpt lat="44.31812" lon="1.12634">
        <ele>223</ele>
        <time>2012-09-23T07:14:42Z</time>
      </trkpt>
      <trkpt lat="44.31805" lon="1.1265">
        <ele>223</ele>
        <time>2012-09-23T07:14:47Z</time>
      </trkpt>
      <trkpt lat="44.31798" lon="1.12665">
        <ele>223</ele>
        <time>2012-09-23T07:14:52Z</time>
      </trkpt>
      <trkpt lat="44.3179" lon="1.12679">
        <ele>224</ele>
        <time>2012-09-23T07:14:57Z</time>
      </trkpt>
      <trkpt lat="44.31778" lon="1.1269">
        <ele>225</ele>
        <time>2012-09-23T07:15:02Z</time>
      </trkpt>
      <trkpt lat="44.31767" lon="1.12704">
        <ele>225</ele>
        <time>2012-09-23T07:15:07Z</time>
      </trkpt>
      <trkpt lat="44.31758" lon="1.1272">
        <ele>225</ele>
        <time>2012-09-23T07:15:12Z</time>
      </trkpt>
      <trkpt lat="44.31749" lon="1.12735">
        <ele>227</ele>
        <time>2012-09-23T07:15:17Z</time>
      </trkpt>
      <trkpt lat="44.31741" lon="1.12752">
        <ele>229</ele>
        <time>2012-09-23T07:15:22Z</time>
      </trkpt>
      <trkpt lat="44.31735" lon="1.12765">
        <ele>229</ele>
        <time>2012-09-23T07:15:27Z</time>
      </trkpt>
      <trkpt lat="44.31729" lon="1.12781">
        <ele>229</ele>
        <time>2012-09-23T07:15:32Z</time>
      </trkpt>
      <trkpt lat="44.31722" lon="1.12794">
        <ele>231</ele>
        <time>2012-09-23T07:15:37Z</time>
      </trkpt>
      <trkpt lat="44.31715" lon="1.12805">
        <ele>231</ele>
        <time>2012-09-23T07:15:42Z</time>
      </trkpt>
      <trkpt lat="44.31706" lon="1.12816">
        <ele>231</ele>
        <time>2012-09-23T07:15:47Z</time>
      </trkpt>
      <trkpt lat="44.31698" lon="1.12827">
        <ele>231</ele>
        <time>2012-09-23T07:15:52Z</time>
      </trkpt>
      <trkpt lat="44.31691" lon="1.12837">
        <ele>231</ele>
        <time>2012-09-23T07:15:57Z</time>
      </trkpt>
      <trkpt lat="44.31684" lon="1.12849">
        <ele>231</ele>
        <time>2012-09-23T07:16:02Z</time>
      </trkpt>
      <trkpt lat="44.31678" lon="1.12862">
        <ele>231</ele>
        <time>2012-09-23T07:16:07Z</time>
      </trkpt>
      <trkpt lat="44.31672" lon="1.12878">
        <ele>233</ele>
        <time>2012-09-23T07:16:12Z</time>
      </trkpt>
      <trkpt lat="44.31665" lon="1.12892">
        <ele>236</ele>
        <time>2012-09-23T07:16:17Z</time>
      </trkpt>
      <trkpt lat="44.31656" lon="1.12902">
        <ele>237</ele>
        <time>2012-09-23T07:16:22Z</time>
      </trkpt>
      <trkpt lat="44.31647" lon="1.12908">
        <ele>237</ele>
        <time>2012-09-23T07:16:27Z</time>
      </trkpt>
      <trkpt lat="44.31638" lon="1.12914">
        <ele>237</ele>
        <time>2012-09-23T07:16:32Z</time>
      </trkpt>
      <trkpt lat="44.31624" lon="1.12917">
        <ele>237</ele>
        <time>2012-09-23T07:16:37Z</time>
      </trkpt>
      <trkpt lat="44.3161" lon="1.12917">
        <ele>237</ele>
        <time>2012-09-23T07:16:42Z</time>
      </trkpt>
      <trkpt lat="44.31596" lon="1.12916">
        <ele>237</ele>
        <time>2012-09-23T07:16:47Z</time>
      </trkpt>
      <trkpt lat="44.31582" lon="1.12917">
        <ele>237</ele>
        <time>2012-09-23T07:16:52Z</time>
      </trkpt>
      <trkpt lat="44.31567" lon="1.1292">
        <ele>237</ele>
        <time>2012-09-23T07:16:57Z</time>
      </trkpt>
      <trkpt lat="44.31553" lon="1.1292">
        <ele>237</ele>
        <time>2012-09-23T07:17:02Z</time>
      </trkpt>
      <trkpt lat="44.31538" lon="1.1292">
        <ele>237</ele>
        <time>2012-09-23T07:17:07Z</time>
      </trkpt>
      <trkpt lat="44.31523" lon="1.12921">
        <ele>237</ele>
        <time>2012-09-23T07:17:12Z</time>
      </trkpt>
      <trkpt lat="44.31508" lon="1.12923">
        <ele>237</ele>
        <time>2012-09-23T07:17:17Z</time>
      </trkpt>
      <trkpt lat="44.31493" lon="1.12927">
        <ele>237</ele>
        <time>2012-09-23T07:17:22Z</time>
      </trkpt>
      <trkpt lat="44.31477" lon="1.12931">
        <ele>237</ele>
        <time>2012-09-23T07:17:27Z</time>
      </trkpt>
      <trkpt lat="44.31477" lon="1.1295">
        <ele>237</ele>
        <time>2012-09-23T07:17:32Z</time>
      </trkpt>
      <trkpt lat="44.31485" lon="1.12977">
        <ele>237</ele>
        <time>2012-09-23T07:17:37Z</time>
      </trkpt>
      <trkpt lat="44.31492" lon="1.13011">
        <ele>237</ele>
        <time>2012-09-23T07:17:42Z</time>
      </trkpt>
      <trkpt lat="44.31503" lon="1.13044">
        <ele>237</ele>
        <time>2012-09-23T07:17:47Z</time>
      </trkpt>
      <trkpt lat="44.31514" lon="1.13071">
        <ele>236</ele>
        <time>2012-09-23T07:17:52Z</time>
      </trkpt>
      <trkpt lat="44.31527" lon="1.131">
        <ele>234</ele>
        <time>2012-09-23T07:17:57Z</time>
      </trkpt>
      <trkpt lat="44.3154" lon="1.1313">
        <ele>233</ele>
        <time>2012-09-23T07:18:02Z</time>
      </trkpt>
      <trkpt lat="44.31553" lon="1.13161">
        <ele>233</ele>
        <time>2012-09-23T07:18:07Z</time>
      </trkpt>
      <trkpt lat="44.31567" lon="1.1319">
        <ele>233</ele>
        <time>2012-09-23T07:18:12Z</time>
      </trkpt>
      <trkpt lat="44.31581" lon="1.13212">
        <ele>233</ele>
        <time>2012-09-23T07:18:17Z</time>
      </trkpt>
      <trkpt lat="44.31595" lon="1.13232">
        <ele>233</ele>
        <time>2012-09-23T07:18:22Z</time>
      </trkpt>
      <trkpt lat="44.31605" lon="1.13253">
        <ele>233</ele>
        <time>2012-09-23T07:18:27Z</time>
      </trkpt>
      <trkpt lat="44.31614" lon="1.13275">
        <ele>233</ele>
        <time>2012-09-23T07:18:32Z</time>
      </trkpt>
      <trkpt lat="44.31625" lon="1.13298">
        <ele>233</ele>
        <time>2012-09-23T07:18:37Z</time>
      </trkpt>
      <trkpt lat="44.31637" lon="1.13329">
        <ele>233</ele>
        <time>2012-09-23T07:18:42Z</time>
      </trkpt>
      <trkpt lat="44.31653" lon="1.13367">
        <ele>233</ele>
        <time>2012-09-23T07:18:47Z</time>
      </trkpt>
      <trkpt lat="44.31669" lon="1.13405">
        <ele>233</ele>
        <time>2012-09-23T07:18:52Z</time>
      </trkpt>
      <trkpt lat="44.31685" lon="1.13441">
        <ele>233</ele>
        <time>2012-09-23T07:18:57Z</time>
      </trkpt>
      <trkpt lat="44.31698" lon="1.13473">
        <ele>233</ele>
        <time>2012-09-23T07:19:02Z</time>
      </trkpt>
      <trkpt lat="44.3171" lon="1.13504">
        <ele>233</ele>
        <time>2012-09-23T07:19:07Z</time>
      </trkpt>
      <trkpt lat="44.3172" lon="1.13536">
        <ele>233</ele>
        <time>2012-09-23T07:19:12Z</time>
      </trkpt>
      <trkpt lat="44.3173" lon="1.13571">
        <ele>235</ele>
        <time>2012-09-23T07:19:17Z</time>
      </trkpt>
      <trkpt lat="44.31746" lon="1.13601">
        <ele>235</ele>
        <time>2012-09-23T07:19:22Z</time>
      </trkpt>
      <trkpt lat="44.31764" lon="1.13631">
        <ele>235</ele>
        <time>2012-09-23T07:19:27Z</time>
      </trkpt>
      <trkpt lat="44.31784" lon="1.13663">
        <ele>235</ele>
        <time>2012-09-23T07:19:32Z</time>
      </trkpt>
      <trkpt lat="44.31805" lon="1.13693">
        <ele>235</ele>
        <time>2012-09-23T07:19:37Z</time>
      </trkpt>
      <trkpt lat="44.31823" lon="1.13718">
        <ele>235</ele>
        <time>2012-09-23T07:19:42Z</time>
      </trkpt>
      <trkpt lat="44.31835" lon="1.13747">
        <ele>235</ele>
        <time>2012-09-23T07:19:47Z</time>
      </trkpt>
      <trkpt lat="44.31854" lon="1.13771">
        <ele>235</ele>
        <time>2012-09-23T07:19:52Z</time>
      </trkpt>
      <trkpt lat="44.31876" lon="1.13783">
        <ele>235</ele>
        <time>2012-09-23T07:19:57Z</time>
      </trkpt>
      <trkpt lat="44.31897" lon="1.13786">
        <ele>235</ele>
        <time>2012-09-23T07:20:02Z</time>
      </trkpt>
      <trkpt lat="44.31915" lon="1.13786">
        <ele>237</ele>
        <time>2012-09-23T07:20:07Z</time>
      </trkpt>
      <trkpt lat="44.3193" lon="1.13788">
        <ele>239</ele>
        <time>2012-09-23T07:20:12Z</time>
      </trkpt>
      <trkpt lat="44.31945" lon="1.13799">
        <ele>241</ele>
        <time>2012-09-23T07:20:17Z</time>
      </trkpt>
      <trkpt lat="44.31947" lon="1.13827">
        <ele>242</ele>
        <time>2012-09-23T07:20:22Z</time>
      </trkpt>
      <trkpt lat="44.31938" lon="1.13868">
        <ele>242</ele>
        <time>2012-09-23T07:20:27Z</time>
      </trkpt>
      <trkpt lat="44.31933" lon="1.13902">
        <ele>242</ele>
        <time>2012-09-23T07:20:32Z</time>
      </trkpt>
      <trkpt lat="44.31953" lon="1.13912">
        <ele>241</ele>
        <time>2012-09-23T07:20:37Z</time>
      </trkpt>
      <trkpt lat="44.31992" lon="1.13917">
        <ele>238</ele>
        <time>2012-09-23T07:20:42Z</time>
      </trkpt>
      <trkpt lat="44.32033" lon="1.13949">
        <ele>235</ele>
        <time>2012-09-23T07:20:47Z</time>
      </trkpt>
      <trkpt lat="44.32063" lon="1.13997">
        <ele>233</ele>
        <time>2012-09-23T07:20:52Z</time>
      </trkpt>
      <trkpt lat="44.32086" lon="1.14039">
        <ele>233</ele>
        <time>2012-09-23T07:20:57Z</time>
      </trkpt>
      <trkpt lat="44.32107" lon="1.14066">
        <ele>233</ele>
        <time>2012-09-23T07:21:02Z</time>
      </trkpt>
      <trkpt lat="44.32132" lon="1.1407">
        <ele>233</ele>
        <time>2012-09-23T07:21:07Z</time>
      </trkpt>
      <trkpt lat="44.32151" lon="1.1405">
        <ele>233</ele>
        <time>2012-09-23T07:21:12Z</time>
      </trkpt>
      <trkpt lat="44.3217" lon="1.14018">
        <ele>231</ele>
        <time>2012-09-23T07:21:17Z</time>
      </trkpt>
      <trkpt lat="44.32197" lon="1.13983">
        <ele>229</ele>
        <time>2012-09-23T07:21:22Z</time>
      </trkpt>
      <trkpt lat="44.32229" lon="1.1394">
        <ele>225</ele>
        <time>2012-09-23T07:21:27Z</time>
      </trkpt>
      <trkpt lat="44.32264" lon="1.13897">
        <ele>221</ele>
        <time>2012-09-23T07:21:32Z</time>
      </trkpt>
      <trkpt lat="44.32305" lon="1.13857">
        <ele>218</ele>
        <time>2012-09-23T07:21:37Z</time>
      </trkpt>
      <trkpt lat="44.32341" lon="1.13828">
        <ele>213</ele>
        <time>2012-09-23T07:21:42Z</time>
      </trkpt>
      <trkpt lat="44.32367" lon="1.13816">
        <ele>211</ele>
        <time>2012-09-23T07:21:47Z</time>
      </trkpt>
      <trkpt lat="44.32379" lon="1.13827">
        <ele>211</ele>
        <time>2012-09-23T07:21:52Z</time>
      </trkpt>
      <trkpt lat="44.32391" lon="1.13836">
        <ele>211</ele>
        <time>2012-09-23T07:21:57Z</time>
      </trkpt>
      <trkpt lat="44.32404" lon="1.13839">
        <ele>211</ele>
        <time>2012-09-23T07:22:02Z</time>
      </trkpt>
      <trkpt lat="44.32415" lon="1.1385">
        <ele>213</ele>
        <time>2012-09-23T07:22:07Z</time>
      </trkpt>
      <trkpt lat="44.32427" lon="1.13859">
        <ele>215</ele>
        <time>2012-09-23T07:22:12Z</time>
      </trkpt>
      <trkpt lat="44.32438" lon="1.13858">
        <ele>216</ele>
        <time>2012-09-23T07:22:17Z</time>
      </trkpt>
      <trkpt lat="44.3245" lon="1.13855">
        <ele>216</ele>
        <time>2012-09-23T07:22:22Z</time>
      </trkpt>
      <trkpt lat="44.32462" lon="1.13849">
        <ele>219</ele>
        <time>2012-09-23T07:22:27Z</time>
      </trkpt>
      <trkpt lat="44.32477" lon="1.13844">
        <ele>220</ele>
        <time>2012-09-23T07:22:32Z</time>
      </trkpt>
      <trkpt lat="44.32493" lon="1.1384">
        <ele>221</ele>
        <time>2012-09-23T07:22:37Z</time>
      </trkpt>
      <trkpt lat="44.32507" lon="1.13828">
        <ele>222</ele>
        <time>2012-09-23T07:22:42Z</time>
      </trkpt>
      <trkpt lat="44.3252" lon="1.13815">
        <ele>222</ele>
        <time>2012-09-23T07:22:47Z</time>
      </trkpt>
      <trkpt lat="44.32533" lon="1.138">
        <ele>224</ele>
        <time>2012-09-23T07:22:52Z</time>
      </trkpt>
      <trkpt lat="44.32543" lon="1.13781">
        <ele>224</ele>
        <time>2012-09-23T07:22:57Z</time>
      </trkpt>
      <trkpt lat="44.32552" lon="1.1376">
        <ele>224</ele>
        <time>2012-09-23T07:23:02Z</time>
      </trkpt>
      <trkpt lat="44.32564" lon="1.13742">
        <ele>224</ele>
        <time>2012-09-23T07:23:07Z</time>
      </trkpt>
      <trkpt lat="44.32572" lon="1.13721">
        <ele>224</ele>
        <time>2012-09-23T07:23:12Z</time>
      </trkpt>
      <trkpt lat="44.32579" lon="1.137">
        <ele>224</ele>
        <time>2012-09-23T07:23:17Z</time>
      </trkpt>
      <trkpt lat="44.32585" lon="1.13681">
        <ele>224</ele>
        <time>2012-09-23T07:23:22Z</time>
      </trkpt>
      <trkpt lat="44.32591" lon="1.1366">
        <ele>224</ele>
        <time>2012-09-23T07:23:27Z</time>
      </trkpt>
      <trkpt lat="44.32594" lon="1.13639">
        <ele>224</ele>
        <time>2012-09-23T07:23:32Z</time>
      </trkpt>
      <trkpt lat="44.32601" lon="1.13619">
        <ele>226</ele>
        <time>2012-09-23T07:23:37Z</time>
      </trkpt>
      <trkpt lat="44.3261" lon="1.13602">
        <ele>226</ele>
        <time>2012-09-23T07:23:42Z</time>
      </trkpt>
      <trkpt lat="44.3262" lon="1.13587">
        <ele>226</ele>
        <time>2012-09-23T07:23:47Z</time>
      </trkpt>
      <trkpt lat="44.32631" lon="1.13575">
        <ele>226</ele>
        <time>2012-09-23T07:23:52Z</time>
      </trkpt>
      <trkpt lat="44.32643" lon="1.13566">
        <ele>226</ele>
        <time>2012-09-23T07:23:57Z</time>
      </trkpt>
      <trkpt lat="44.32656" lon="1.13557">
        <ele>227</ele>
        <time>2012-09-23T07:24:02Z</time>
      </trkpt>
      <trkpt lat="44.3267" lon="1.13547">
        <ele>228</ele>
        <time>2012-09-23T07:24:07Z</time>
      </trkpt>
      <trkpt lat="44.32684" lon="1.13538">
        <ele>230</ele>
        <time>2012-09-23T07:24:12Z</time>
      </trkpt>
      <trkpt lat="44.32698" lon="1.1353">
        <ele>232</ele>
        <time>2012-09-23T07:24:17Z</time>
      </trkpt>
      <trkpt lat="44.32711" lon="1.13521">
        <ele>233</ele>
        <time>2012-09-23T07:24:22Z</time>
      </trkpt>
      <trkpt lat="44.32724" lon="1.13513">
        <ele>234</ele>
        <time>2012-09-23T07:24:27Z</time>
      </trkpt>
      <trkpt lat="44.32737" lon="1.13508">
        <ele>235</ele>
        <time>2012-09-23T07:24:32Z</time>
      </trkpt>
      <trkpt lat="44.32751" lon="1.13504">
        <ele>237</ele>
        <time>2012-09-23T07:24:37Z</time>
      </trkpt>
      <trkpt lat="44.32764" lon="1.135">
        <ele>239</ele>
        <time>2012-09-23T07:24:42Z</time>
      </trkpt>
      <trkpt lat="44.32782" lon="1.13497">
        <ele>241</ele>
        <time>2012-09-23T07:24:48Z</time>
      </trkpt>
      <trkpt lat="44.32797" lon="1.13495">
        <ele>241</ele>
        <time>2012-09-23T07:24:53Z</time>
      </trkpt>
      <trkpt lat="44.32811" lon="1.13488">
        <ele>242</ele>
        <time>2012-09-23T07:24:58Z</time>
      </trkpt>
      <trkpt lat="44.32826" lon="1.13478">
        <ele>242</ele>
        <time>2012-09-23T07:25:03Z</time>
      </trkpt>
      <trkpt lat="44.32843" lon="1.13465">
        <ele>242</ele>
        <time>2012-09-23T07:25:08Z</time>
      </trkpt>
      <trkpt lat="44.32859" lon="1.13451">
        <ele>242</ele>
        <time>2012-09-23T07:25:13Z</time>
      </trkpt>
      <trkpt lat="44.32873" lon="1.13434">
        <ele>242</ele>
        <time>2012-09-23T07:25:18Z</time>
      </trkpt>
      <trkpt lat="44.32888" lon="1.13415">
        <ele>242</ele>
        <time>2012-09-23T07:25:23Z</time>
      </trkpt>
      <trkpt lat="44.32902" lon="1.13394">
        <ele>242</ele>
        <time>2012-09-23T07:25:28Z</time>
      </trkpt>
      <trkpt lat="44.32919" lon="1.13377">
        <ele>242</ele>
        <time>2012-09-23T07:25:33Z</time>
      </trkpt>
      <trkpt lat="44.32937" lon="1.1336">
        <ele>242</ele>
        <time>2012-09-23T07:25:39Z</time>
      </trkpt>
      <trkpt lat="44.3295" lon="1.13343">
        <ele>242</ele>
        <time>2012-09-23T07:25:44Z</time>
      </trkpt>
      <trkpt lat="44.3296" lon="1.13321">
        <ele>242</ele>
        <time>2012-09-23T07:25:49Z</time>
      </trkpt>
      <trkpt lat="44.32966" lon="1.13298">
        <ele>242</ele>
        <time>2012-09-23T07:25:54Z</time>
      </trkpt>
      <trkpt lat="44.32971" lon="1.13272">
        <ele>247</ele>
        <time>2012-09-23T07:26:00Z</time>
      </trkpt>
      <trkpt lat="44.32976" lon="1.13249">
        <ele>251</ele>
        <time>2012-09-23T07:26:05Z</time>
      </trkpt>
      <trkpt lat="44.32978" lon="1.13222">
        <ele>255</ele>
        <time>2012-09-23T07:26:10Z</time>
      </trkpt>
      <trkpt lat="44.32981" lon="1.13181">
        <ele>255</ele>
        <time>2012-09-23T07:26:16Z</time>
      </trkpt>
      <trkpt lat="44.32986" lon="1.13144">
        <ele>255</ele>
        <time>2012-09-23T07:26:21Z</time>
      </trkpt>
      <trkpt lat="44.3299" lon="1.13109">
        <ele>255</ele>
        <time>2012-09-23T07:26:26Z</time>
      </trkpt>
      <trkpt lat="44.32995" lon="1.13068">
        <ele>255</ele>
        <time>2012-09-23T07:26:32Z</time>
      </trkpt>
      <trkpt lat="44.33007" lon="1.13065">
        <ele>255</ele>
        <time>2012-09-23T07:26:37Z</time>
      </trkpt>
      <trkpt lat="44.33019" lon="1.13086">
        <ele>255</ele>
        <time>2012-09-23T07:26:42Z</time>
      </trkpt>
      <trkpt lat="44.33038" lon="1.13113">
        <ele>255</ele>
        <time>2012-09-23T07:26:48Z</time>
      </trkpt>
      <trkpt lat="44.33055" lon="1.13146">
        <ele>255</ele>
        <time>2012-09-23T07:26:54Z</time>
      </trkpt>
      <trkpt lat="44.33068" lon="1.13186">
        <ele>255</ele>
        <time>2012-09-23T07:27:00Z</time>
      </trkpt>
      <trkpt lat="44.33072" lon="1.13209">
        <ele>255</ele>
        <time>2012-09-23T07:27:05Z</time>
      </trkpt>
      <trkpt lat="44.33073" lon="1.13209">
        <ele>255</ele>
        <time>2012-09-23T07:27:18Z</time>
      </trkpt>
      <trkpt lat="44.33076" lon="1.1321">
        <ele>254</ele>
        <time>2012-09-23T07:27:28Z</time>
      </trkpt>
      <trkpt lat="44.33075" lon="1.13209">
        <ele>254</ele>
        <time>2012-09-23T07:27:37Z</time>
      </trkpt>
      <trkpt lat="44.33074" lon="1.13208">
        <ele>254</ele>
        <time>2012-09-23T07:27:55Z</time>
      </trkpt>
      <trkpt lat="44.33073" lon="1.13209">
        <ele>251</ele>
        <time>2012-09-23T07:28:37Z</time>
      </trkpt>
      <trkpt lat="44.33074" lon="1.13212">
        <ele>251</ele>
        <time>2012-09-23T07:28:45Z</time>
      </trkpt>
      <trkpt lat="44.33075" lon="1.13214">
        <ele>251</ele>
        <time>2012-09-23T07:28:52Z</time>
      </trkpt>
      <trkpt lat="44.33077" lon="1.13215">
        <ele>255</ele>
        <time>2012-09-23T07:28:58Z</time>
      </trkpt>
      <trkpt lat="44.33078" lon="1.13214">
        <ele>259</ele>
        <time>2012-09-23T07:29:06Z</time>
      </trkpt>
      <trkpt lat="44.33076" lon="1.1321">
        <ele>259</ele>
        <time>2012-09-23T07:29:15Z</time>
      </trkpt>
      <trkpt lat="44.33075" lon="1.1321">
        <ele>259</ele>
        <time>2012-09-23T07:29:22Z</time>
      </trkpt>
      <trkpt lat="44.33075" lon="1.13208">
        <ele>259</ele>
        <time>2012-09-23T07:29:27Z</time>
      </trkpt>
      <trkpt lat="44.33074" lon="1.13208">
        <ele>256</ele>
        <time>2012-09-23T07:29:36Z</time>
      </trkpt>
      <trkpt lat="44.33074" lon="1.1321">
        <ele>250</ele>
        <time>2012-09-23T07:30:15Z</time>
      </trkpt>
      <trkpt lat="44.33076" lon="1.13224">
        <ele>249</ele>
        <time>2012-09-23T07:30:20Z</time>
      </trkpt>
      <trkpt lat="44.33079" lon="1.13246">
        <ele>249</ele>
        <time>2012-09-23T07:30:25Z</time>
      </trkpt>
      <trkpt lat="44.33083" lon="1.13269">
        <ele>249</ele>
        <time>2012-09-23T07:30:30Z</time>
      </trkpt>
      <trkpt lat="44.33087" lon="1.13293">
        <ele>249</ele>
        <time>2012-09-23T07:30:35Z</time>
      </trkpt>
      <trkpt lat="44.33091" lon="1.13316">
        <ele>249</ele>
        <time>2012-09-23T07:30:40Z</time>
      </trkpt>
      <trkpt lat="44.33096" lon="1.13338">
        <ele>249</ele>
        <time>2012-09-23T07:30:45Z</time>
      </trkpt>
      <trkpt lat="44.33102" lon="1.13359">
        <ele>249</ele>
        <time>2012-09-23T07:30:50Z</time>
      </trkpt>
      <trkpt lat="44.3311" lon="1.13378">
        <ele>249</ele>
        <time>2012-09-23T07:30:55Z</time>
      </trkpt>
      <trkpt lat="44.3312" lon="1.13397">
        <ele>249</ele>
        <time>2012-09-23T07:31:00Z</time>
      </trkpt>
      <trkpt lat="44.33128" lon="1.13417">
        <ele>249</ele>
        <time>2012-09-23T07:31:05Z</time>
      </trkpt>
      <trkpt lat="44.33135" lon="1.13439">
        <ele>249</ele>
        <time>2012-09-23T07:31:10Z</time>
      </trkpt>
      <trkpt lat="44.33139" lon="1.13466">
        <ele>249</ele>
        <time>2012-09-23T07:31:15Z</time>
      </trkpt>
      <trkpt lat="44.3314" lon="1.13493">
        <ele>250</ele>
        <time>2012-09-23T07:31:20Z</time>
      </trkpt>
      <trkpt lat="44.33138" lon="1.13521">
        <ele>252</ele>
        <time>2012-09-23T07:31:25Z</time>
      </trkpt>
      <trkpt lat="44.33135" lon="1.1355">
        <ele>253</ele>
        <time>2012-09-23T07:31:30Z</time>
      </trkpt>
      <trkpt lat="44.33133" lon="1.13587">
        <ele>254</ele>
        <time>2012-09-23T07:31:36Z</time>
      </trkpt>
      <trkpt lat="44.33133" lon="1.1362">
        <ele>255</ele>
        <time>2012-09-23T07:31:41Z</time>
      </trkpt>
      <trkpt lat="44.33134" lon="1.13651">
        <ele>255</ele>
        <time>2012-09-23T07:31:46Z</time>
      </trkpt>
      <trkpt lat="44.33134" lon="1.13682">
        <ele>255</ele>
        <time>2012-09-23T07:31:51Z</time>
      </trkpt>
      <trkpt lat="44.33134" lon="1.13714">
        <ele>255</ele>
        <time>2012-09-23T07:31:56Z</time>
      </trkpt>
      <trkpt lat="44.33134" lon="1.13747">
        <ele>255</ele>
        <time>2012-09-23T07:32:01Z</time>
      </trkpt>
      <trkpt lat="44.33133" lon="1.13781">
        <ele>255</ele>
        <time>2012-09-23T07:32:06Z</time>
      </trkpt>
      <trkpt lat="44.33134" lon="1.13815">
        <ele>255</ele>
        <time>2012-09-23T07:32:11Z</time>
      </trkpt>
      <trkpt lat="44.33135" lon="1.13851">
        <ele>255</ele>
        <time>2012-09-23T07:32:16Z</time>
      </trkpt>
      <trkpt lat="44.33138" lon="1.13886">
        <ele>255</ele>
        <time>2012-09-23T07:32:21Z</time>
      </trkpt>
      <trkpt lat="44.33142" lon="1.13921">
        <ele>255</ele>
        <time>2012-09-23T07:32:26Z</time>
      </trkpt>
      <trkpt lat="44.33146" lon="1.13956">
        <ele>255</ele>
        <time>2012-09-23T07:32:31Z</time>
      </trkpt>
      <trkpt lat="44.3315" lon="1.13993">
        <ele>255</ele>
        <time>2012-09-23T07:32:36Z</time>
      </trkpt>
      <trkpt lat="44.33154" lon="1.1403">
        <ele>256</ele>
        <time>2012-09-23T07:32:41Z</time>
      </trkpt>
      <trkpt lat="44.33158" lon="1.14064">
        <ele>259</ele>
        <time>2012-09-23T07:32:46Z</time>
      </trkpt>
      <trkpt lat="44.33162" lon="1.14098">
        <ele>259</ele>
        <time>2012-09-23T07:32:51Z</time>
      </trkpt>
      <trkpt lat="44.33165" lon="1.14129">
        <ele>260</ele>
        <time>2012-09-23T07:32:56Z</time>
      </trkpt>
      <trkpt lat="44.33173" lon="1.14137">
        <ele>261</ele>
        <time>2012-09-23T07:33:01Z</time>
      </trkpt>
      <trkpt lat="44.33181" lon="1.1411">
        <ele>261</ele>
        <time>2012-09-23T07:33:06Z</time>
      </trkpt>
      <trkpt lat="44.33196" lon="1.14084">
        <ele>260</ele>
        <time>2012-09-23T07:33:11Z</time>
      </trkpt>
      <trkpt lat="44.33212" lon="1.14055">
        <ele>258</ele>
        <time>2012-09-23T07:33:16Z</time>
      </trkpt>
      <trkpt lat="44.33231" lon="1.14031">
        <ele>256</ele>
        <time>2012-09-23T07:33:21Z</time>
      </trkpt>
      <trkpt lat="44.3325" lon="1.14006">
        <ele>255</ele>
        <time>2012-09-23T07:33:26Z</time>
      </trkpt>
      <trkpt lat="44.33274" lon="1.13986">
        <ele>253</ele>
        <time>2012-09-23T07:33:31Z</time>
      </trkpt>
      <trkpt lat="44.33297" lon="1.13964">
        <ele>252</ele>
        <time>2012-09-23T07:33:36Z</time>
      </trkpt>
      <trkpt lat="44.3332" lon="1.1394">
        <ele>251</ele>
        <time>2012-09-23T07:33:41Z</time>
      </trkpt>
      <trkpt lat="44.33338" lon="1.13909">
        <ele>250</ele>
        <time>2012-09-23T07:33:46Z</time>
      </trkpt>
      <trkpt lat="44.33358" lon="1.13882">
        <ele>249</ele>
        <time>2012-09-23T07:33:51Z</time>
      </trkpt>
      <trkpt lat="44.33379" lon="1.13856">
        <ele>249</ele>
        <time>2012-09-23T07:33:56Z</time>
      </trkpt>
      <trkpt lat="44.33402" lon="1.13832">
        <ele>249</ele>
        <time>2012-09-23T07:34:01Z</time>
      </trkpt>
      <trkpt lat="44.33426" lon="1.13807">
        <ele>248</ele>
        <time>2012-09-23T07:34:06Z</time>
      </trkpt>
      <trkpt lat="44.3345" lon="1.13778">
        <ele>248</ele>
        <time>2012-09-23T07:34:11Z</time>
      </trkpt>
      <trkpt lat="44.33465" lon="1.13741">
        <ele>248</ele>
        <time>2012-09-23T07:34:16Z</time>
      </trkpt>
      <trkpt lat="44.33482" lon="1.13699">
        <ele>248</ele>
        <time>2012-09-23T07:34:21Z</time>
      </trkpt>
      <trkpt lat="44.33506" lon="1.13658">
        <ele>247</ele>
        <time>2012-09-23T07:34:26Z</time>
      </trkpt>
      <trkpt lat="44.33526" lon="1.13615">
        <ele>245</ele>
        <time>2012-09-23T07:34:31Z</time>
      </trkpt>
      <trkpt lat="44.33546" lon="1.13576">
        <ele>243</ele>
        <time>2012-09-23T07:34:36Z</time>
      </trkpt>
      <trkpt lat="44.33572" lon="1.13549">
        <ele>242</ele>
        <time>2012-09-23T07:34:41Z</time>
      </trkpt>
      <trkpt lat="44.33598" lon="1.13527">
        <ele>242</ele>
        <time>2012-09-23T07:34:46Z</time>
      </trkpt>
      <trkpt lat="44.33616" lon="1.13491">
        <ele>242</ele>
        <time>2012-09-23T07:34:51Z</time>
      </trkpt>
      <trkpt lat="44.33649" lon="1.13466">
        <ele>238</ele>
        <time>2012-09-23T07:34:56Z</time>
      </trkpt>
      <trkpt lat="44.33694" lon="1.1345">
        <ele>235</ele>
        <time>2012-09-23T07:35:01Z</time>
      </trkpt>
      <trkpt lat="44.3374" lon="1.13427">
        <ele>231</ele>
        <time>2012-09-23T07:35:06Z</time>
      </trkpt>
      <trkpt lat="44.33778" lon="1.13402">
        <ele>228</ele>
        <time>2012-09-23T07:35:11Z</time>
      </trkpt>
      <trkpt lat="44.33801" lon="1.13382">
        <ele>226</ele>
        <time>2012-09-23T07:35:16Z</time>
      </trkpt>
      <trkpt lat="44.33834" lon="1.1338">
        <ele>224</ele>
        <time>2012-09-23T07:35:21Z</time>
      </trkpt>
      <trkpt lat="44.33863" lon="1.13358">
        <ele>222</ele>
        <time>2012-09-23T07:35:26Z</time>
      </trkpt>
      <trkpt lat="44.33881" lon="1.13318">
        <ele>222</ele>
        <time>2012-09-23T07:35:31Z</time>
      </trkpt>
      <trkpt lat="44.33901" lon="1.13281">
        <ele>222</ele>
        <time>2012-09-23T07:35:36Z</time>
      </trkpt>
      <trkpt lat="44.33918" lon="1.13246">
        <ele>222</ele>
        <time>2012-09-23T07:35:41Z</time>
      </trkpt>
      <trkpt lat="44.33932" lon="1.13216">
        <ele>222</ele>
        <time>2012-09-23T07:35:46Z</time>
      </trkpt>
      <trkpt lat="44.33941" lon="1.1319">
        <ele>223</ele>
        <time>2012-09-23T07:35:51Z</time>
      </trkpt>
      <trkpt lat="44.33952" lon="1.13162">
        <ele>224</ele>
        <time>2012-09-23T07:35:56Z</time>
      </trkpt>
      <trkpt lat="44.33964" lon="1.13138">
        <ele>224</ele>
        <time>2012-09-23T07:36:01Z</time>
      </trkpt>
      <trkpt lat="44.33978" lon="1.13111">
        <ele>225</ele>
        <time>2012-09-23T07:36:06Z</time>
      </trkpt>
      <trkpt lat="44.33993" lon="1.13085">
        <ele>226</ele>
        <time>2012-09-23T07:36:11Z</time>
      </trkpt>
      <trkpt lat="44.34012" lon="1.13081">
        <ele>226</ele>
        <time>2012-09-23T07:36:16Z</time>
      </trkpt>
      <trkpt lat="44.34036" lon="1.13078">
        <ele>228</ele>
        <time>2012-09-23T07:36:21Z</time>
      </trkpt>
      <trkpt lat="44.34058" lon="1.13073">
        <ele>230</ele>
        <time>2012-09-23T07:36:26Z</time>
      </trkpt>
      <trkpt lat="44.3408" lon="1.13071">
        <ele>230</ele>
        <time>2012-09-23T07:36:31Z</time>
      </trkpt>
      <trkpt lat="44.34102" lon="1.1307">
        <ele>230</ele>
        <time>2012-09-23T07:36:36Z</time>
      </trkpt>
      <trkpt lat="44.34127" lon="1.13071">
        <ele>230</ele>
        <time>2012-09-23T07:36:41Z</time>
      </trkpt>
      <trkpt lat="44.34155" lon="1.13074">
        <ele>230</ele>
        <time>2012-09-23T07:36:46Z</time>
      </trkpt>
      <trkpt lat="44.34182" lon="1.13079">
        <ele>230</ele>
        <time>2012-09-23T07:36:51Z</time>
      </trkpt>
      <trkpt lat="44.34202" lon="1.13084">
        <ele>230</ele>
        <time>2012-09-23T07:36:56Z</time>
      </trkpt>
      <trkpt lat="44.34218" lon="1.1309">
        <ele>230</ele>
        <time>2012-09-23T07:37:01Z</time>
      </trkpt>
      <trkpt lat="44.34237" lon="1.13097">
        <ele>230</ele>
        <time>2012-09-23T07:37:06Z</time>
      </trkpt>
      <trkpt lat="44.34262" lon="1.13108">
        <ele>230</ele>
        <time>2012-09-23T07:37:11Z</time>
      </trkpt>
      <trkpt lat="44.34286" lon="1.13118">
        <ele>230</ele>
        <time>2012-09-23T07:37:16Z</time>
      </trkpt>
      <trkpt lat="44.34312" lon="1.13129">
        <ele>230</ele>
        <time>2012-09-23T07:37:21Z</time>
      </trkpt>
      <trkpt lat="44.34335" lon="1.13142">
        <ele>230</ele>
        <time>2012-09-23T07:37:26Z</time>
      </trkpt>
      <trkpt lat="44.34355" lon="1.13156">
        <ele>230</ele>
        <time>2012-09-23T07:37:31Z</time>
      </trkpt>
      <trkpt lat="44.34377" lon="1.13181">
        <ele>230</ele>
        <time>2012-09-23T07:37:36Z</time>
      </trkpt>
      <trkpt lat="44.34416" lon="1.13209">
        <ele>230</ele>
        <time>2012-09-23T07:37:41Z</time>
      </trkpt>
      <trkpt lat="44.34457" lon="1.1324">
        <ele>230</ele>
        <time>2012-09-23T07:37:46Z</time>
      </trkpt>
      <trkpt lat="44.34491" lon="1.13241">
        <ele>228</ele>
        <time>2012-09-23T07:37:51Z</time>
      </trkpt>
      <trkpt lat="44.34525" lon="1.13247">
        <ele>227</ele>
        <time>2012-09-23T07:37:56Z</time>
      </trkpt>
      <trkpt lat="44.34565" lon="1.13264">
        <ele>226</ele>
        <time>2012-09-23T07:38:01Z</time>
      </trkpt>
      <trkpt lat="44.34601" lon="1.13269">
        <ele>226</ele>
        <time>2012-09-23T07:38:06Z</time>
      </trkpt>
      <trkpt lat="44.34628" lon="1.13286">
        <ele>226</ele>
        <time>2012-09-23T07:38:11Z</time>
      </trkpt>
      <trkpt lat="44.34648" lon="1.13322">
        <ele>226</ele>
        <time>2012-09-23T07:38:16Z</time>
      </trkpt>
      <trkpt lat="44.3467" lon="1.13355">
        <ele>227</ele>
        <time>2012-09-23T07:38:21Z</time>
      </trkpt>
      <trkpt lat="44.34693" lon="1.13383">
        <ele>230</ele>
        <time>2012-09-23T07:38:26Z</time>
      </trkpt>
      <trkpt lat="44.34712" lon="1.13415">
        <ele>232</ele>
        <time>2012-09-23T07:38:31Z</time>
      </trkpt>
      <trkpt lat="44.34727" lon="1.13439">
        <ele>233</ele>
        <time>2012-09-23T07:38:36Z</time>
      </trkpt>
      <trkpt lat="44.34744" lon="1.13456">
        <ele>234</ele>
        <time>2012-09-23T07:38:41Z</time>
      </trkpt>
      <trkpt lat="44.34761" lon="1.13472">
        <ele>234</ele>
        <time>2012-09-23T07:38:46Z</time>
      </trkpt>
      <trkpt lat="44.34776" lon="1.13487">
        <ele>234</ele>
        <time>2012-09-23T07:38:51Z</time>
      </trkpt>
      <trkpt lat="44.34793" lon="1.13502">
        <ele>234</ele>
        <time>2012-09-23T07:38:56Z</time>
      </trkpt>
      <trkpt lat="44.34809" lon="1.13518">
        <ele>235</ele>
        <time>2012-09-23T07:39:01Z</time>
      </trkpt>
      <trkpt lat="44.34823" lon="1.13535">
        <ele>235</ele>
        <time>2012-09-23T07:39:06Z</time>
      </trkpt>
      <trkpt lat="44.34835" lon="1.13549">
        <ele>237</ele>
        <time>2012-09-23T07:39:11Z</time>
      </trkpt>
      <trkpt lat="44.34839" lon="1.13572">
        <ele>241</ele>
        <time>2012-09-23T07:39:16Z</time>
      </trkpt>
      <trkpt lat="44.3484" lon="1.13594">
        <ele>243</ele>
        <time>2012-09-23T07:39:21Z</time>
      </trkpt>
      <trkpt lat="44.34841" lon="1.13619">
        <ele>244</ele>
        <time>2012-09-23T07:39:26Z</time>
      </trkpt>
      <trkpt lat="44.34838" lon="1.13646">
        <ele>244</ele>
        <time>2012-09-23T07:39:31Z</time>
      </trkpt>
      <trkpt lat="44.34832" lon="1.13675">
        <ele>244</ele>
        <time>2012-09-23T07:39:36Z</time>
      </trkpt>
      <trkpt lat="44.34824" lon="1.13706">
        <ele>244</ele>
        <time>2012-09-23T07:39:41Z</time>
      </trkpt>
      <trkpt lat="44.34812" lon="1.13735">
        <ele>244</ele>
        <time>2012-09-23T07:39:46Z</time>
      </trkpt>
      <trkpt lat="44.34803" lon="1.13767">
        <ele>244</ele>
        <time>2012-09-23T07:39:51Z</time>
      </trkpt>
      <trkpt lat="44.34795" lon="1.13799">
        <ele>244</ele>
        <time>2012-09-23T07:39:56Z</time>
      </trkpt>
      <trkpt lat="44.34788" lon="1.1383">
        <ele>244</ele>
        <time>2012-09-23T07:40:01Z</time>
      </trkpt>
      <trkpt lat="44.34785" lon="1.13858">
        <ele>244</ele>
        <time>2012-09-23T07:40:06Z</time>
      </trkpt>
      <trkpt lat="44.34785" lon="1.13883">
        <ele>244</ele>
        <time>2012-09-23T07:40:11Z</time>
      </trkpt>
      <trkpt lat="44.34787" lon="1.13909">
        <ele>244</ele>
        <time>2012-09-23T07:40:16Z</time>
      </trkpt>
      <trkpt lat="44.34789" lon="1.13938">
        <ele>244</ele>
        <time>2012-09-23T07:40:21Z</time>
      </trkpt>
      <trkpt lat="44.34792" lon="1.13967">
        <ele>244</ele>
        <time>2012-09-23T07:40:26Z</time>
      </trkpt>
      <trkpt lat="44.34799" lon="1.13994">
        <ele>244</ele>
        <time>2012-09-23T07:40:31Z</time>
      </trkpt>
      <trkpt lat="44.34809" lon="1.14021">
        <ele>244</ele>
        <time>2012-09-23T07:40:36Z</time>
      </trkpt>
      <trkpt lat="44.34823" lon="1.14037">
        <ele>245</ele>
        <time>2012-09-23T07:40:41Z</time>
      </trkpt>
      <trkpt lat="44.34841" lon="1.14027">
        <ele>245</ele>
        <time>2012-09-23T07:40:46Z</time>
      </trkpt>
      <trkpt lat="44.3486" lon="1.1401">
        <ele>245</ele>
        <time>2012-09-23T07:40:51Z</time>
      </trkpt>
      <trkpt lat="44.34882" lon="1.13989">
        <ele>243</ele>
        <time>2012-09-23T07:40:56Z</time>
      </trkpt>
      <trkpt lat="44.34914" lon="1.13976">
        <ele>239</ele>
        <time>2012-09-23T07:41:01Z</time>
      </trkpt>
      <trkpt lat="44.34948" lon="1.13969">
        <ele>235</ele>
        <time>2012-09-23T07:41:06Z</time>
      </trkpt>
      <trkpt lat="44.34972" lon="1.13973">
        <ele>233</ele>
        <time>2012-09-23T07:41:11Z</time>
      </trkpt>
      <trkpt lat="44.35001" lon="1.13985">
        <ele>233</ele>
        <time>2012-09-23T07:41:16Z</time>
      </trkpt>
      <trkpt lat="44.35035" lon="1.14004">
        <ele>233</ele>
        <time>2012-09-23T07:41:21Z</time>
      </trkpt>
      <trkpt lat="44.35069" lon="1.14019">
        <ele>233</ele>
        <time>2012-09-23T07:41:26Z</time>
      </trkpt>
      <trkpt lat="44.35088" lon="1.14034">
        <ele>233</ele>
        <time>2012-09-23T07:41:32Z</time>
      </trkpt>
      <trkpt lat="44.35089" lon="1.14036">
        <ele>234</ele>
        <time>2012-09-23T07:41:48Z</time>
      </trkpt>
      <trkpt lat="44.35088" lon="1.14038">
        <ele>237</ele>
        <time>2012-09-23T07:41:59Z</time>
      </trkpt>
      <trkpt lat="44.35088" lon="1.14039">
        <ele>241</ele>
        <time>2012-09-23T07:42:24Z</time>
      </trkpt>
      <trkpt lat="44.35087" lon="1.1404">
        <ele>252</ele>
        <time>2012-09-23T07:49:32Z</time>
      </trkpt>
      <trkpt lat="44.35088" lon="1.14041">
        <ele>251</ele>
        <time>2012-09-23T07:50:13Z</time>
      </trkpt>
      <trkpt lat="44.35088" lon="1.14043">
        <ele>249</ele>
        <time>2012-09-23T07:50:33Z</time>
      </trkpt>
      <trkpt lat="44.35088" lon="1.14045">
        <ele>248</ele>
        <time>2012-09-23T07:50:40Z</time>
      </trkpt>
      <trkpt lat="44.35089" lon="1.14043">
        <ele>247</ele>
        <time>2012-09-23T07:50:55Z</time>
      </trkpt>
      <trkpt lat="44.35088" lon="1.14045">
        <ele>247</ele>
        <time>2012-09-23T07:51:10Z</time>
      </trkpt>
      <trkpt lat="44.35089" lon="1.14043">
        <ele>245</ele>
        <time>2012-09-23T07:51:39Z</time>
      </trkpt>
      <trkpt lat="44.35089" lon="1.14042">
        <ele>245</ele>
        <time>2012-09-23T07:51:51Z</time>
      </trkpt>
      <trkpt lat="44.35091" lon="1.14041">
        <ele>247</ele>
        <time>2012-09-23T07:52:10Z</time>
      </trkpt>
      <trkpt lat="44.3509" lon="1.1404">
        <ele>247</ele>
        <time>2012-09-23T07:52:19Z</time>
      </trkpt>
      <trkpt lat="44.3509" lon="1.14038">
        <ele>250</ele>
        <time>2012-09-23T07:52:32Z</time>
      </trkpt>
      <trkpt lat="44.3509" lon="1.1404">
        <ele>254</ele>
        <time>2012-09-23T07:53:09Z</time>
      </trkpt>
      <trkpt lat="44.35091" lon="1.14037">
        <ele>254</ele>
        <time>2012-09-23T07:53:14Z</time>
      </trkpt>
      <trkpt lat="44.35091" lon="1.14033">
        <ele>254</ele>
        <time>2012-09-23T07:53:22Z</time>
      </trkpt>
      <trkpt lat="44.35089" lon="1.14034">
        <ele>254</ele>
        <time>2012-09-23T07:53:31Z</time>
      </trkpt>
      <trkpt lat="44.35088" lon="1.14033">
        <ele>254</ele>
        <time>2012-09-23T07:53:39Z</time>
      </trkpt>
      <trkpt lat="44.3509" lon="1.14025">
        <ele>254</ele>
        <time>2012-09-23T07:53:44Z</time>
      </trkpt>
      <trkpt lat="44.35091" lon="1.14011">
        <ele>254</ele>
        <time>2012-09-23T07:53:49Z</time>
      </trkpt>
      <trkpt lat="44.35083" lon="1.13996">
        <ele>253</ele>
        <time>2012-09-23T07:53:54Z</time>
      </trkpt>
      <trkpt lat="44.35073" lon="1.13975">
        <ele>252</ele>
        <time>2012-09-23T07:53:59Z</time>
      </trkpt>
      <trkpt lat="44.35068" lon="1.13945">
        <ele>250</ele>
        <time>2012-09-23T07:54:04Z</time>
      </trkpt>
      <trkpt lat="44.35075" lon="1.13918">
        <ele>250</ele>
        <time>2012-09-23T07:54:09Z</time>
      </trkpt>
      <trkpt lat="44.35097" lon="1.13897">
        <ele>246</ele>
        <time>2012-09-23T07:54:14Z</time>
      </trkpt>
      <trkpt lat="44.35118" lon="1.13879">
        <ele>241</ele>
        <time>2012-09-23T07:54:19Z</time>
      </trkpt>
      <trkpt lat="44.35125" lon="1.13843">
        <ele>236</ele>
        <time>2012-09-23T07:54:24Z</time>
      </trkpt>
      <trkpt lat="44.35147" lon="1.13816">
        <ele>231</ele>
        <time>2012-09-23T07:54:29Z</time>
      </trkpt>
      <trkpt lat="44.35162" lon="1.13794">
        <ele>226</ele>
        <time>2012-09-23T07:54:34Z</time>
      </trkpt>
      <trkpt lat="44.35165" lon="1.13749">
        <ele>221</ele>
        <time>2012-09-23T07:54:39Z</time>
      </trkpt>
      <trkpt lat="44.35181" lon="1.13698">
        <ele>216</ele>
        <time>2012-09-23T07:54:44Z</time>
      </trkpt>
      <trkpt lat="44.35202" lon="1.13643">
        <ele>211</ele>
        <time>2012-09-23T07:54:49Z</time>
      </trkpt>
      <trkpt lat="44.35218" lon="1.13588">
        <ele>208</ele>
        <time>2012-09-23T07:54:54Z</time>
      </trkpt>
      <trkpt lat="44.35221" lon="1.13546">
        <ele>208</ele>
        <time>2012-09-23T07:54:59Z</time>
      </trkpt>
      <trkpt lat="44.35198" lon="1.13537">
        <ele>209</ele>
        <time>2012-09-23T07:55:04Z</time>
      </trkpt>
      <trkpt lat="44.35176" lon="1.13524">
        <ele>213</ele>
        <time>2012-09-23T07:55:09Z</time>
      </trkpt>
      <trkpt lat="44.35157" lon="1.13515">
        <ele>214</ele>
        <time>2012-09-23T07:55:14Z</time>
      </trkpt>
      <trkpt lat="44.35139" lon="1.13497">
        <ele>215</ele>
        <time>2012-09-23T07:55:19Z</time>
      </trkpt>
      <trkpt lat="44.35133" lon="1.13482">
        <ele>216</ele>
        <time>2012-09-23T07:55:24Z</time>
      </trkpt>
      <trkpt lat="44.35127" lon="1.13468">
        <ele>217</ele>
        <time>2012-09-23T07:55:29Z</time>
      </trkpt>
      <trkpt lat="44.35119" lon="1.13466">
        <ele>218</ele>
        <time>2012-09-23T07:55:34Z</time>
      </trkpt>
      <trkpt lat="44.3511" lon="1.13462">
        <ele>218</ele>
        <time>2012-09-23T07:55:39Z</time>
      </trkpt>
      <trkpt lat="44.35103" lon="1.13461">
        <ele>219</ele>
        <time>2012-09-23T07:55:44Z</time>
      </trkpt>
      <trkpt lat="44.35094" lon="1.13464">
        <ele>220</ele>
        <time>2012-09-23T07:55:50Z</time>
      </trkpt>
      <trkpt lat="44.35081" lon="1.13463">
        <ele>223</ele>
        <time>2012-09-23T07:55:55Z</time>
      </trkpt>
      <trkpt lat="44.3507" lon="1.13464">
        <ele>224</ele>
        <time>2012-09-23T07:56:00Z</time>
      </trkpt>
      <trkpt lat="44.35059" lon="1.13467">
        <ele>225</ele>
        <time>2012-09-23T07:56:05Z</time>
      </trkpt>
      <trkpt lat="44.35051" lon="1.13467">
        <ele>226</ele>
        <time>2012-09-23T07:56:10Z</time>
      </trkpt>
      <trkpt lat="44.3504" lon="1.13464">
        <ele>226</ele>
        <time>2012-09-23T07:56:15Z</time>
      </trkpt>
      <trkpt lat="44.35028" lon="1.13467">
        <ele>227</ele>
        <time>2012-09-23T07:56:20Z</time>
      </trkpt>
      <trkpt lat="44.35017" lon="1.13468">
        <ele>228</ele>
        <time>2012-09-23T07:56:25Z</time>
      </trkpt>
      <trkpt lat="44.35004" lon="1.13468">
        <ele>228</ele>
        <time>2012-09-23T07:56:30Z</time>
      </trkpt>
      <trkpt lat="44.34989" lon="1.1347">
        <ele>229</ele>
        <time>2012-09-23T07:56:35Z</time>
      </trkpt>
      <trkpt lat="44.34972" lon="1.13471">
        <ele>229</ele>
        <time>2012-09-23T07:56:40Z</time>
      </trkpt>
      <trkpt lat="44.34955" lon="1.13474">
        <ele>229</ele>
        <time>2012-09-23T07:56:45Z</time>
      </trkpt>
      <trkpt lat="44.34938" lon="1.13475">
        <ele>230</ele>
        <time>2012-09-23T07:56:50Z</time>
      </trkpt>
      <trkpt lat="44.34922" lon="1.13477">
        <ele>230</ele>
        <time>2012-09-23T07:56:55Z</time>
      </trkpt>
      <trkpt lat="44.34906" lon="1.13479">
        <ele>230</ele>
        <time>2012-09-23T07:57:00Z</time>
      </trkpt>
      <trkpt lat="44.34891" lon="1.1348">
        <ele>230</ele>
        <time>2012-09-23T07:57:05Z</time>
      </trkpt>
      <trkpt lat="44.34879" lon="1.13471">
        <ele>231</ele>
        <time>2012-09-23T07:57:10Z</time>
      </trkpt>
      <trkpt lat="44.34865" lon="1.13464">
        <ele>232</ele>
        <time>2012-09-23T07:57:15Z</time>
      </trkpt>
      <trkpt lat="44.3485" lon="1.13461">
        <ele>233</ele>
        <time>2012-09-23T07:57:20Z</time>
      </trkpt>
      <trkpt lat="44.34835" lon="1.13455">
        <ele>234</ele>
        <time>2012-09-23T07:57:25Z</time>
      </trkpt>
      <trkpt lat="44.34825" lon="1.13434">
        <ele>236</ele>
        <time>2012-09-23T07:57:30Z</time>
      </trkpt>
      <trkpt lat="44.34816" lon="1.13407">
        <ele>239</ele>
        <time>2012-09-23T07:57:35Z</time>
      </trkpt>
      <trkpt lat="44.34811" lon="1.13378">
        <ele>240</ele>
        <time>2012-09-23T07:57:40Z</time>
      </trkpt>
      <trkpt lat="44.34811" lon="1.13349">
        <ele>242</ele>
        <time>2012-09-23T07:57:45Z</time>
      </trkpt>
      <trkpt lat="44.34815" lon="1.13321">
        <ele>243</ele>
        <time>2012-09-23T07:57:50Z</time>
      </trkpt>
      <trkpt lat="44.34819" lon="1.13295">
        <ele>245</ele>
        <time>2012-09-23T07:57:55Z</time>
      </trkpt>
      <trkpt lat="44.34822" lon="1.13274">
        <ele>246</ele>
        <time>2012-09-23T07:58:00Z</time>
      </trkpt>
      <trkpt lat="44.34823" lon="1.1325">
        <ele>246</ele>
        <time>2012-09-23T07:58:05Z</time>
      </trkpt>
      <trkpt lat="44.34821" lon="1.13223">
        <ele>246</ele>
        <time>2012-09-23T07:58:10Z</time>
      </trkpt>
      <trkpt lat="44.34818" lon="1.13196">
        <ele>246</ele>
        <time>2012-09-23T07:58:15Z</time>
      </trkpt>
      <trkpt lat="44.34824" lon="1.13184">
        <ele>246</ele>
        <time>2012-09-23T07:58:20Z</time>
      </trkpt>
      <trkpt lat="44.34843" lon="1.13181">
        <ele>246</ele>
        <time>2012-09-23T07:58:25Z</time>
      </trkpt>
      <trkpt lat="44.34867" lon="1.13175">
        <ele>245</ele>
        <time>2012-09-23T07:58:30Z</time>
      </trkpt>
      <trkpt lat="44.34902" lon="1.13171">
        <ele>240</ele>
        <time>2012-09-23T07:58:35Z</time>
      </trkpt>
      <trkpt lat="44.34935" lon="1.13166">
        <ele>235</ele>
        <time>2012-09-23T07:58:40Z</time>
      </trkpt>
      <trkpt lat="44.34956" lon="1.13159">
        <ele>232</ele>
        <time>2012-09-23T07:58:45Z</time>
      </trkpt>
      <trkpt lat="44.34957" lon="1.13134">
        <ele>230</ele>
        <time>2012-09-23T07:58:50Z</time>
      </trkpt>
      <trkpt lat="44.34962" lon="1.13124">
        <ele>229</ele>
        <time>2012-09-23T07:58:55Z</time>
      </trkpt>
      <trkpt lat="44.34983" lon="1.1312">
        <ele>229</ele>
        <time>2012-09-23T07:59:00Z</time>
      </trkpt>
      <trkpt lat="44.35005" lon="1.13107">
        <ele>226</ele>
        <time>2012-09-23T07:59:05Z</time>
      </trkpt>
      <trkpt lat="44.35027" lon="1.13107">
        <ele>224</ele>
        <time>2012-09-23T07:59:10Z</time>
      </trkpt>
      <trkpt lat="44.35048" lon="1.13091">
        <ele>221</ele>
        <time>2012-09-23T07:59:15Z</time>
      </trkpt>
      <trkpt lat="44.35076" lon="1.13076">
        <ele>216</ele>
        <time>2012-09-23T07:59:20Z</time>
      </trkpt>
      <trkpt lat="44.35091" lon="1.13062">
        <ele>213</ele>
        <time>2012-09-23T07:59:25Z</time>
      </trkpt>
      <trkpt lat="44.35082" lon="1.13037">
        <ele>211</ele>
        <time>2012-09-23T07:59:30Z</time>
      </trkpt>
      <trkpt lat="44.35067" lon="1.13014">
        <ele>206</ele>
        <time>2012-09-23T07:59:35Z</time>
      </trkpt>
      <trkpt lat="44.35061" lon="1.13006">
        <ele>202</ele>
        <time>2012-09-23T07:59:40Z</time>
      </trkpt>
      <trkpt lat="44.35084" lon="1.13007">
        <ele>198</ele>
        <time>2012-09-23T07:59:45Z</time>
      </trkpt>
      <trkpt lat="44.35115" lon="1.1303">
        <ele>195</ele>
        <time>2012-09-23T07:59:50Z</time>
      </trkpt>
      <trkpt lat="44.35136" lon="1.13056">
        <ele>195</ele>
        <time>2012-09-23T07:59:55Z</time>
      </trkpt>
      <trkpt lat="44.35153" lon="1.1307">
        <ele>194</ele>
        <time>2012-09-23T08:00:00Z</time>
      </trkpt>
      <trkpt lat="44.35157" lon="1.13063">
        <ele>193</ele>
        <time>2012-09-23T08:00:05Z</time>
      </trkpt>
      <trkpt lat="44.35149" lon="1.1303">
        <ele>193</ele>
        <time>2012-09-23T08:00:10Z</time>
      </trkpt>
      <trkpt lat="44.35147" lon="1.12987">
        <ele>192</ele>
        <time>2012-09-23T08:00:15Z</time>
      </trkpt>
      <trkpt lat="44.35159" lon="1.12966">
        <ele>190</ele>
        <time>2012-09-23T08:00:20Z</time>
      </trkpt>
      <trkpt lat="44.3517" lon="1.12946">
        <ele>187</ele>
        <time>2012-09-23T08:00:25Z</time>
      </trkpt>
      <trkpt lat="44.35169" lon="1.129">
        <ele>182</ele>
        <time>2012-09-23T08:00:30Z</time>
      </trkpt>
      <trkpt lat="44.35175" lon="1.12852">
        <ele>177</ele>
        <time>2012-09-23T08:00:35Z</time>
      </trkpt>
      <trkpt lat="44.35192" lon="1.1284">
        <ele>172</ele>
        <time>2012-09-23T08:00:40Z</time>
      </trkpt>
      <trkpt lat="44.35207" lon="1.12845">
        <ele>168</ele>
        <time>2012-09-23T08:00:45Z</time>
      </trkpt>
      <trkpt lat="44.35215" lon="1.12872">
        <ele>168</ele>
        <time>2012-09-23T08:00:50Z</time>
      </trkpt>
      <trkpt lat="44.35225" lon="1.129">
        <ele>168</ele>
        <time>2012-09-23T08:00:55Z</time>
      </trkpt>
      <trkpt lat="44.35241" lon="1.12925">
        <ele>168</ele>
        <time>2012-09-23T08:01:00Z</time>
      </trkpt>
      <trkpt lat="44.35259" lon="1.12949">
        <ele>168</ele>
        <time>2012-09-23T08:01:05Z</time>
      </trkpt>
      <trkpt lat="44.35269" lon="1.12982">
        <ele>168</ele>
        <time>2012-09-23T08:01:10Z</time>
      </trkpt>
      <trkpt lat="44.3528" lon="1.13009">
        <ele>168</ele>
        <time>2012-09-23T08:01:15Z</time>
      </trkpt>
      <trkpt lat="44.35289" lon="1.13007">
        <ele>168</ele>
        <time>2012-09-23T08:01:20Z</time>
      </trkpt>
      <trkpt lat="44.35286" lon="1.12981">
        <ele>169</ele>
        <time>2012-09-23T08:01:25Z</time>
      </trkpt>
      <trkpt lat="44.35275" lon="1.12953">
        <ele>170</ele>
        <time>2012-09-23T08:01:30Z</time>
      </trkpt>
      <trkpt lat="44.35268" lon="1.12928">
        <ele>170</ele>
        <time>2012-09-23T08:01:35Z</time>
      </trkpt>
      <trkpt lat="44.35257" lon="1.12905">
        <ele>170</ele>
        <time>2012-09-23T08:01:40Z</time>
      </trkpt>
      <trkpt lat="44.35243" lon="1.1288">
        <ele>170</ele>
        <time>2012-09-23T08:01:45Z</time>
      </trkpt>
      <trkpt lat="44.35233" lon="1.12851">
        <ele>170</ele>
        <time>2012-09-23T08:01:50Z</time>
      </trkpt>
      <trkpt lat="44.35224" lon="1.12827">
        <ele>170</ele>
        <time>2012-09-23T08:01:55Z</time>
      </trkpt>
      <trkpt lat="44.3521" lon="1.12807">
        <ele>170</ele>
        <time>2012-09-23T08:02:00Z</time>
      </trkpt>
      <trkpt lat="44.35203" lon="1.1278">
        <ele>170</ele>
        <time>2012-09-23T08:02:05Z</time>
      </trkpt>
      <trkpt lat="44.35204" lon="1.12748">
        <ele>170</ele>
        <time>2012-09-23T08:02:10Z</time>
      </trkpt>
      <trkpt lat="44.35197" lon="1.1272">
        <ele>170</ele>
        <time>2012-09-23T08:02:15Z</time>
      </trkpt>
      <trkpt lat="44.35187" lon="1.12692">
        <ele>171</ele>
        <time>2012-09-23T08:02:20Z</time>
      </trkpt>
      <trkpt lat="44.35176" lon="1.12675">
        <ele>171</ele>
        <time>2012-09-23T08:02:25Z</time>
      </trkpt>
      <trkpt lat="44.35162" lon="1.12651">
        <ele>171</ele>
        <time>2012-09-23T08:02:30Z</time>
      </trkpt>
      <trkpt lat="44.3515" lon="1.12625">
        <ele>171</ele>
        <time>2012-09-23T08:02:35Z</time>
      </trkpt>
      <trkpt lat="44.35145" lon="1.12595">
        <ele>171</ele>
        <time>2012-09-23T08:02:40Z</time>
      </trkpt>
      <trkpt lat="44.35162" lon="1.12578">
        <ele>171</ele>
        <time>2012-09-23T08:02:45Z</time>
      </trkpt>
      <trkpt lat="44.35181" lon="1.12571">
        <ele>170</ele>
        <time>2012-09-23T08:02:50Z</time>
      </trkpt>
      <trkpt lat="44.35201" lon="1.1256">
        <ele>170</ele>
        <time>2012-09-23T08:02:55Z</time>
      </trkpt>
      <trkpt lat="44.35216" lon="1.12553">
        <ele>169</ele>
        <time>2012-09-23T08:03:00Z</time>
      </trkpt>
      <trkpt lat="44.35229" lon="1.12547">
        <ele>169</ele>
        <time>2012-09-23T08:03:05Z</time>
      </trkpt>
      <trkpt lat="44.35241" lon="1.12549">
        <ele>169</ele>
        <time>2012-09-23T08:03:10Z</time>
      </trkpt>
      <trkpt lat="44.35237" lon="1.12529">
        <ele>169</ele>
        <time>2012-09-23T08:03:15Z</time>
      </trkpt>
      <trkpt lat="44.35224" lon="1.12498">
        <ele>169</ele>
        <time>2012-09-23T08:03:20Z</time>
      </trkpt>
      <trkpt lat="44.35209" lon="1.12466">
        <ele>168</ele>
        <time>2012-09-23T08:03:25Z</time>
      </trkpt>
      <trkpt lat="44.35193" lon="1.12435">
        <ele>168</ele>
        <time>2012-09-23T08:03:30Z</time>
      </trkpt>
      <trkpt lat="44.35178" lon="1.12404">
        <ele>168</ele>
        <time>2012-09-23T08:03:35Z</time>
      </trkpt>
      <trkpt lat="44.35157" lon="1.12368">
        <ele>168</ele>
        <time>2012-09-23T08:03:40Z</time>
      </trkpt>
      <trkpt lat="44.35139" lon="1.12329">
        <ele>168</ele>
        <time>2012-09-23T08:03:45Z</time>
      </trkpt>
      <trkpt lat="44.35118" lon="1.12288">
        <ele>168</ele>
        <time>2012-09-23T08:03:50Z</time>
      </trkpt>
      <trkpt lat="44.35106" lon="1.12243">
        <ele>168</ele>
        <time>2012-09-23T08:03:55Z</time>
      </trkpt>
      <trkpt lat="44.35097" lon="1.12195">
        <ele>168</ele>
        <time>2012-09-23T08:04:00Z</time>
      </trkpt>
      <trkpt lat="44.3509" lon="1.12141">
        <ele>167</ele>
        <time>2012-09-23T08:04:05Z</time>
      </trkpt>
      <trkpt lat="44.35083" lon="1.12088">
        <ele>167</ele>
        <time>2012-09-23T08:04:10Z</time>
      </trkpt>
      <trkpt lat="44.35077" lon="1.12034">
        <ele>167</ele>
        <time>2012-09-23T08:04:15Z</time>
      </trkpt>
      <trkpt lat="44.35062" lon="1.11986">
        <ele>167</ele>
        <time>2012-09-23T08:04:20Z</time>
      </trkpt>
      <trkpt lat="44.35043" lon="1.1194">
        <ele>165</ele>
        <time>2012-09-23T08:04:25Z</time>
      </trkpt>
      <trkpt lat="44.35023" lon="1.11899">
        <ele>163</ele>
        <time>2012-09-23T08:04:30Z</time>
      </trkpt>
      <trkpt lat="44.35" lon="1.1187">
        <ele>159</ele>
        <time>2012-09-23T08:04:35Z</time>
      </trkpt>
      <trkpt lat="44.34972" lon="1.11862">
        <ele>158</ele>
        <time>2012-09-23T08:04:40Z</time>
      </trkpt>
      <trkpt lat="44.34968" lon="1.11849">
        <ele>158</ele>
        <time>2012-09-23T08:04:45Z</time>
      </trkpt>
      <trkpt lat="44.3499" lon="1.11825">
        <ele>158</ele>
        <time>2012-09-23T08:04:50Z</time>
      </trkpt>
      <trkpt lat="44.35004" lon="1.11802">
        <ele>158</ele>
        <time>2012-09-23T08:04:55Z</time>
      </trkpt>
      <trkpt lat="44.35015" lon="1.11782">
        <ele>158</ele>
        <time>2012-09-23T08:05:00Z</time>
      </trkpt>
      <trkpt lat="44.35021" lon="1.11766">
        <ele>162</ele>
        <time>2012-09-23T08:05:05Z</time>
      </trkpt>
      <trkpt lat="44.3502" lon="1.11751">
        <ele>166</ele>
        <time>2012-09-23T08:05:10Z</time>
      </trkpt>
      <trkpt lat="44.35023" lon="1.11739">
        <ele>169</ele>
        <time>2012-09-23T08:05:15Z</time>
      </trkpt>
      <trkpt lat="44.35029" lon="1.11729">
        <ele>170</ele>
        <time>2012-09-23T08:05:20Z</time>
      </trkpt>
      <trkpt lat="44.35033" lon="1.11715">
        <ele>174</ele>
        <time>2012-09-23T08:05:25Z</time>
      </trkpt>
      <trkpt lat="44.3504" lon="1.11703">
        <ele>176</ele>
        <time>2012-09-23T08:05:30Z</time>
      </trkpt>
      <trkpt lat="44.35041" lon="1.11689">
        <ele>176</ele>
        <time>2012-09-23T08:05:35Z</time>
      </trkpt>
      <trkpt lat="44.35044" lon="1.11676">
        <ele>176</ele>
        <time>2012-09-23T08:05:40Z</time>
      </trkpt>
      <trkpt lat="44.35046" lon="1.11662">
        <ele>176</ele>
        <time>2012-09-23T08:05:45Z</time>
      </trkpt>
      <trkpt lat="44.35054" lon="1.11646">
        <ele>177</ele>
        <time>2012-09-23T08:05:50Z</time>
      </trkpt>
      <trkpt lat="44.35062" lon="1.11628">
        <ele>177</ele>
        <time>2012-09-23T08:05:55Z</time>
      </trkpt>
      <trkpt lat="44.35073" lon="1.11608">
        <ele>177</ele>
        <time>2012-09-23T08:06:00Z</time>
      </trkpt>
      <trkpt lat="44.35083" lon="1.1159">
        <ele>177</ele>
        <time>2012-09-23T08:06:05Z</time>
      </trkpt>
      <trkpt lat="44.35096" lon="1.11572">
        <ele>177</ele>
        <time>2012-09-23T08:06:10Z</time>
      </trkpt>
      <trkpt lat="44.35111" lon="1.11557">
        <ele>177</ele>
        <time>2012-09-23T08:06:15Z</time>
      </trkpt>
      <trkpt lat="44.35125" lon="1.11547">
        <ele>177</ele>
        <time>2012-09-23T08:06:20Z</time>
      </trkpt>
      <trkpt lat="44.35138" lon="1.11536">
        <ele>177</ele>
        <time>2012-09-23T08:06:25Z</time>
      </trkpt>
      <trkpt lat="44.35151" lon="1.11522">
        <ele>177</ele>
        <time>2012-09-23T08:06:30Z</time>
      </trkpt>
      <trkpt lat="44.35163" lon="1.11504">
        <ele>177</ele>
        <time>2012-09-23T08:06:35Z</time>
      </trkpt>
      <trkpt lat="44.35171" lon="1.11489">
        <ele>177</ele>
        <time>2012-09-23T08:06:40Z</time>
      </trkpt>
      <trkpt lat="44.35179" lon="1.11472">
        <ele>177</ele>
        <time>2012-09-23T08:06:45Z</time>
      </trkpt>
      <trkpt lat="44.35185" lon="1.11459">
        <ele>177</ele>
        <time>2012-09-23T08:06:50Z</time>
      </trkpt>
      <trkpt lat="44.35195" lon="1.11443">
        <ele>179</ele>
        <time>2012-09-23T08:06:55Z</time>
      </trkpt>
      <trkpt lat="44.35205" lon="1.1142">
        <ele>181</ele>
        <time>2012-09-23T08:07:00Z</time>
      </trkpt>
      <trkpt lat="44.3522" lon="1.11395">
        <ele>181</ele>
        <time>2012-09-23T08:07:05Z</time>
      </trkpt>
      <trkpt lat="44.35238" lon="1.11373">
        <ele>181</ele>
        <time>2012-09-23T08:07:10Z</time>
      </trkpt>
      <trkpt lat="44.35256" lon="1.11357">
        <ele>179</ele>
        <time>2012-09-23T08:07:15Z</time>
      </trkpt>
      <trkpt lat="44.35272" lon="1.11344">
        <ele>179</ele>
        <time>2012-09-23T08:07:20Z</time>
      </trkpt>
      <trkpt lat="44.35281" lon="1.11332">
        <ele>179</ele>
        <time>2012-09-23T08:07:25Z</time>
      </trkpt>
      <trkpt lat="44.35289" lon="1.11317">
        <ele>183</ele>
        <time>2012-09-23T08:07:30Z</time>
      </trkpt>
      <trkpt lat="44.35294" lon="1.11294">
        <ele>185</ele>
        <time>2012-09-23T08:07:35Z</time>
      </trkpt>
      <trkpt lat="44.35303" lon="1.11268">
        <ele>187</ele>
        <time>2012-09-23T08:07:40Z</time>
      </trkpt>
      <trkpt lat="44.35313" lon="1.11243">
        <ele>188</ele>
        <time>2012-09-23T08:07:45Z</time>
      </trkpt>
      <trkpt lat="44.35323" lon="1.11207">
        <ele>188</ele>
        <time>2012-09-23T08:07:50Z</time>
      </trkpt>
      <trkpt lat="44.35337" lon="1.11163">
        <ele>188</ele>
        <time>2012-09-23T08:07:55Z</time>
      </trkpt>
      <trkpt lat="44.35357" lon="1.1112">
        <ele>185</ele>
        <time>2012-09-23T08:08:00Z</time>
      </trkpt>
      <trkpt lat="44.35374" lon="1.11079">
        <ele>182</ele>
        <time>2012-09-23T08:08:05Z</time>
      </trkpt>
      <trkpt lat="44.35385" lon="1.11048">
        <ele>182</ele>
        <time>2012-09-23T08:08:10Z</time>
      </trkpt>
      <trkpt lat="44.35397" lon="1.11027">
        <ele>182</ele>
        <time>2012-09-23T08:08:15Z</time>
      </trkpt>
      <trkpt lat="44.35406" lon="1.1101">
        <ele>183</ele>
        <time>2012-09-23T08:08:20Z</time>
      </trkpt>
      <trkpt lat="44.35411" lon="1.10994">
        <ele>185</ele>
        <time>2012-09-23T08:08:25Z</time>
      </trkpt>
      <trkpt lat="44.35416" lon="1.10982">
        <ele>190</ele>
        <time>2012-09-23T08:08:30Z</time>
      </trkpt>
      <trkpt lat="44.35429" lon="1.10964">
        <ele>190</ele>
        <time>2012-09-23T08:08:35Z</time>
      </trkpt>
      <trkpt lat="44.3544" lon="1.10953">
        <ele>190</ele>
        <time>2012-09-23T08:08:40Z</time>
      </trkpt>
      <trkpt lat="44.35448" lon="1.10943">
        <ele>190</ele>
        <time>2012-09-23T08:08:45Z</time>
      </trkpt>
      <trkpt lat="44.35457" lon="1.10921">
        <ele>190</ele>
        <time>2012-09-23T08:08:50Z</time>
      </trkpt>
      <trkpt lat="44.35469" lon="1.10902">
        <ele>191</ele>
        <time>2012-09-23T08:08:55Z</time>
      </trkpt>
      <trkpt lat="44.35478" lon="1.10886">
        <ele>191</ele>
        <time>2012-09-23T08:09:00Z</time>
      </trkpt>
      <trkpt lat="44.35482" lon="1.10875">
        <ele>191</ele>
        <time>2012-09-23T08:09:05Z</time>
      </trkpt>
      <trkpt lat="44.35489" lon="1.10862">
        <ele>195</ele>
        <time>2012-09-23T08:09:10Z</time>
      </trkpt>
      <trkpt lat="44.35504" lon="1.10845">
        <ele>195</ele>
        <time>2012-09-23T08:09:15Z</time>
      </trkpt>
      <trkpt lat="44.35514" lon="1.10812">
        <ele>195</ele>
        <time>2012-09-23T08:09:20Z</time>
      </trkpt>
      <trkpt lat="44.35522" lon="1.10754">
        <ele>195</ele>
        <time>2012-09-23T08:09:25Z</time>
      </trkpt>
      <trkpt lat="44.35538" lon="1.10718">
        <ele>195</ele>
        <time>2012-09-23T08:09:30Z</time>
      </trkpt>
      <trkpt lat="44.35558" lon="1.10688">
        <ele>194</ele>
        <time>2012-09-23T08:09:35Z</time>
      </trkpt>
      <trkpt lat="44.35575" lon="1.10663">
        <ele>192</ele>
        <time>2012-09-23T08:09:40Z</time>
      </trkpt>
      <trkpt lat="44.35588" lon="1.10643">
        <ele>192</ele>
        <time>2012-09-23T08:09:45Z</time>
      </trkpt>
      <trkpt lat="44.35604" lon="1.1062">
        <ele>192</ele>
        <time>2012-09-23T08:09:50Z</time>
      </trkpt>
      <trkpt lat="44.3562" lon="1.10599">
        <ele>192</ele>
        <time>2012-09-23T08:09:55Z</time>
      </trkpt>
      <trkpt lat="44.35636" lon="1.10574">
        <ele>192</ele>
        <time>2012-09-23T08:10:00Z</time>
      </trkpt>
      <trkpt lat="44.35648" lon="1.10555">
        <ele>192</ele>
        <time>2012-09-23T08:10:05Z</time>
      </trkpt>
      <trkpt lat="44.35656" lon="1.10538">
        <ele>192</ele>
        <time>2012-09-23T08:10:10Z</time>
      </trkpt>
      <trkpt lat="44.35672" lon="1.10518">
        <ele>194</ele>
        <time>2012-09-23T08:10:15Z</time>
      </trkpt>
      <trkpt lat="44.35684" lon="1.10501">
        <ele>194</ele>
        <time>2012-09-23T08:10:20Z</time>
      </trkpt>
      <trkpt lat="44.35691" lon="1.10484">
        <ele>194</ele>
        <time>2012-09-23T08:10:25Z</time>
      </trkpt>
      <trkpt lat="44.35683" lon="1.10457">
        <ele>194</ele>
        <time>2012-09-23T08:10:30Z</time>
      </trkpt>
      <trkpt lat="44.35664" lon="1.10432">
        <ele>192</ele>
        <time>2012-09-23T08:10:35Z</time>
      </trkpt>
      <trkpt lat="44.35646" lon="1.1042">
        <ele>192</ele>
        <time>2012-09-23T08:10:40Z</time>
      </trkpt>
      <trkpt lat="44.35634" lon="1.10405">
        <ele>192</ele>
        <time>2012-09-23T08:10:45Z</time>
      </trkpt>
      <trkpt lat="44.35634" lon="1.10395">
        <ele>192</ele>
        <time>2012-09-23T08:10:50Z</time>
      </trkpt>
      <trkpt lat="44.35635" lon="1.10387">
        <ele>193</ele>
        <time>2012-09-23T08:10:55Z</time>
      </trkpt>
      <trkpt lat="44.35641" lon="1.1038">
        <ele>195</ele>
        <time>2012-09-23T08:11:00Z</time>
      </trkpt>
      <trkpt lat="44.35647" lon="1.10375">
        <ele>195</ele>
        <time>2012-09-23T08:11:05Z</time>
      </trkpt>
      <trkpt lat="44.35656" lon="1.10365">
        <ele>195</ele>
        <time>2012-09-23T08:11:10Z</time>
      </trkpt>
      <trkpt lat="44.35664" lon="1.10357">
        <ele>195</ele>
        <time>2012-09-23T08:11:15Z</time>
      </trkpt>
      <trkpt lat="44.35671" lon="1.10348">
        <ele>195</ele>
        <time>2012-09-23T08:11:20Z</time>
      </trkpt>
      <trkpt lat="44.3568" lon="1.1034">
        <ele>195</ele>
        <time>2012-09-23T08:11:25Z</time>
      </trkpt>
      <trkpt lat="44.35687" lon="1.10332">
        <ele>196</ele>
        <time>2012-09-23T08:11:30Z</time>
      </trkpt>
      <trkpt lat="44.35694" lon="1.10323">
        <ele>196</ele>
        <time>2012-09-23T08:11:35Z</time>
      </trkpt>
      <trkpt lat="44.35699" lon="1.10316">
        <ele>198</ele>
        <time>2012-09-23T08:11:40Z</time>
      </trkpt>
      <trkpt lat="44.35702" lon="1.10305">
        <ele>201</ele>
        <time>2012-09-23T08:11:45Z</time>
      </trkpt>
      <trkpt lat="44.35708" lon="1.10291">
        <ele>202</ele>
        <time>2012-09-23T08:11:50Z</time>
      </trkpt>
      <trkpt lat="44.35711" lon="1.10281">
        <ele>203</ele>
        <time>2012-09-23T08:11:55Z</time>
      </trkpt>
      <trkpt lat="44.35716" lon="1.10268">
        <ele>205</ele>
        <time>2012-09-23T08:12:00Z</time>
      </trkpt>
      <trkpt lat="44.3572" lon="1.10248">
        <ele>208</ele>
        <time>2012-09-23T08:12:06Z</time>
      </trkpt>
      <trkpt lat="44.35721" lon="1.10223">
        <ele>210</ele>
        <time>2012-09-23T08:12:11Z</time>
      </trkpt>
      <trkpt lat="44.3572" lon="1.10201">
        <ele>214</ele>
        <time>2012-09-23T08:12:16Z</time>
      </trkpt>
      <trkpt lat="44.35724" lon="1.10176">
        <ele>216</ele>
        <time>2012-09-23T08:12:22Z</time>
      </trkpt>
      <trkpt lat="44.35725" lon="1.1014">
        <ele>218</ele>
        <time>2012-09-23T08:12:28Z</time>
      </trkpt>
      <trkpt lat="44.35724" lon="1.10118">
        <ele>219</ele>
        <time>2012-09-23T08:12:33Z</time>
      </trkpt>
      <trkpt lat="44.35732" lon="1.101">
        <ele>219</ele>
        <time>2012-09-23T08:12:39Z</time>
      </trkpt>
      <trkpt lat="44.35735" lon="1.10093">
        <ele>219</ele>
        <time>2012-09-23T08:12:45Z</time>
      </trkpt>
      <trkpt lat="44.35737" lon="1.10088">
        <ele>219</ele>
        <time>2012-09-23T08:12:50Z</time>
      </trkpt>
      <trkpt lat="44.35739" lon="1.10076">
        <ele>219</ele>
        <time>2012-09-23T08:12:55Z</time>
      </trkpt>
      <trkpt lat="44.3574" lon="1.10063">
        <ele>220</ele>
        <time>2012-09-23T08:13:00Z</time>
      </trkpt>
      <trkpt lat="44.35739" lon="1.10053">
        <ele>220</ele>
        <time>2012-09-23T08:13:05Z</time>
      </trkpt>
      <trkpt lat="44.3574" lon="1.10041">
        <ele>220</ele>
        <time>2012-09-23T08:13:11Z</time>
      </trkpt>
      <trkpt lat="44.3574" lon="1.10032">
        <ele>220</ele>
        <time>2012-09-23T08:13:16Z</time>
      </trkpt>
      <trkpt lat="44.35744" lon="1.10018">
        <ele>222</ele>
        <time>2012-09-23T08:13:22Z</time>
      </trkpt>
      <trkpt lat="44.35745" lon="1.10008">
        <ele>226</ele>
        <time>2012-09-23T08:13:27Z</time>
      </trkpt>
      <trkpt lat="44.35749" lon="1.09999">
        <ele>230</ele>
        <time>2012-09-23T08:13:32Z</time>
      </trkpt>
      <trkpt lat="44.35755" lon="1.09983">
        <ele>232</ele>
        <time>2012-09-23T08:13:37Z</time>
      </trkpt>
      <trkpt lat="44.35762" lon="1.0997">
        <ele>232</ele>
        <time>2012-09-23T08:13:42Z</time>
      </trkpt>
      <trkpt lat="44.35767" lon="1.09959">
        <ele>232</ele>
        <time>2012-09-23T08:13:47Z</time>
      </trkpt>
      <trkpt lat="44.3577" lon="1.0995">
        <ele>232</ele>
        <time>2012-09-23T08:13:52Z</time>
      </trkpt>
      <trkpt lat="44.35772" lon="1.09947">
        <ele>232</ele>
        <time>2012-09-23T08:13:57Z</time>
      </trkpt>
      <trkpt lat="44.35776" lon="1.09944">
        <ele>232</ele>
        <time>2012-09-23T08:14:05Z</time>
      </trkpt>
      <trkpt lat="44.35785" lon="1.09936">
        <ele>232</ele>
        <time>2012-09-23T08:14:10Z</time>
      </trkpt>
      <trkpt lat="44.35797" lon="1.09925">
        <ele>232</ele>
        <time>2012-09-23T08:14:16Z</time>
      </trkpt>
      <trkpt lat="44.35802" lon="1.09914">
        <ele>232</ele>
        <time>2012-09-23T08:14:21Z</time>
      </trkpt>
      <trkpt lat="44.35818" lon="1.09917">
        <ele>232</ele>
        <time>2012-09-23T08:14:26Z</time>
      </trkpt>
      <trkpt lat="44.35836" lon="1.09921">
        <ele>232</ele>
        <time>2012-09-23T08:14:31Z</time>
      </trkpt>
      <trkpt lat="44.35857" lon="1.09921">
        <ele>232</ele>
        <time>2012-09-23T08:14:36Z</time>
      </trkpt>
      <trkpt lat="44.3588" lon="1.09936">
        <ele>232</ele>
        <time>2012-09-23T08:14:41Z</time>
      </trkpt>
      <trkpt lat="44.35891" lon="1.09967">
        <ele>232</ele>
        <time>2012-09-23T08:14:46Z</time>
      </trkpt>
      <trkpt lat="44.35911" lon="1.09976">
        <ele>233</ele>
        <time>2012-09-23T08:14:51Z</time>
      </trkpt>
      <trkpt lat="44.35943" lon="1.09968">
        <ele>233</ele>
        <time>2012-09-23T08:14:57Z</time>
      </trkpt>
      <trkpt lat="44.35971" lon="1.09916">
        <ele>229</ele>
        <time>2012-09-23T08:15:03Z</time>
      </trkpt>
      <trkpt lat="44.35991" lon="1.09867">
        <ele>224</ele>
        <time>2012-09-23T08:15:08Z</time>
      </trkpt>
      <trkpt lat="44.35998" lon="1.09848">
        <ele>224</ele>
        <time>2012-09-23T08:15:13Z</time>
      </trkpt>
      <trkpt lat="44.36" lon="1.09834">
        <ele>224</ele>
        <time>2012-09-23T08:15:18Z</time>
      </trkpt>
      <trkpt lat="44.36004" lon="1.09818">
        <ele>226</ele>
        <time>2012-09-23T08:15:24Z</time>
      </trkpt>
      <trkpt lat="44.36007" lon="1.09803">
        <ele>228</ele>
        <time>2012-09-23T08:15:29Z</time>
      </trkpt>
      <trkpt lat="44.36013" lon="1.09784">
        <ele>230</ele>
        <time>2012-09-23T08:15:35Z</time>
      </trkpt>
      <trkpt lat="44.36021" lon="1.09766">
        <ele>232</ele>
        <time>2012-09-23T08:15:40Z</time>
      </trkpt>
      <trkpt lat="44.36027" lon="1.0975">
        <ele>232</ele>
        <time>2012-09-23T08:15:45Z</time>
      </trkpt>
      <trkpt lat="44.36035" lon="1.09732">
        <ele>234</ele>
        <time>2012-09-23T08:15:50Z</time>
      </trkpt>
      <trkpt lat="44.36042" lon="1.09707">
        <ele>234</ele>
        <time>2012-09-23T08:15:55Z</time>
      </trkpt>
      <trkpt lat="44.36056" lon="1.09686">
        <ele>234</ele>
        <time>2012-09-23T08:16:00Z</time>
      </trkpt>
      <trkpt lat="44.36068" lon="1.09667">
        <ele>234</ele>
        <time>2012-09-23T08:16:05Z</time>
      </trkpt>
      <trkpt lat="44.36077" lon="1.09648">
        <ele>234</ele>
        <time>2012-09-23T08:16:10Z</time>
      </trkpt>
      <trkpt lat="44.36087" lon="1.09628">
        <ele>234</ele>
        <time>2012-09-23T08:16:15Z</time>
      </trkpt>
      <trkpt lat="44.36095" lon="1.09611">
        <ele>234</ele>
        <time>2012-09-23T08:16:20Z</time>
      </trkpt>
      <trkpt lat="44.36104" lon="1.09596">
        <ele>234</ele>
        <time>2012-09-23T08:16:25Z</time>
      </trkpt>
      <trkpt lat="44.36115" lon="1.09581">
        <ele>234</ele>
        <time>2012-09-23T08:16:30Z</time>
      </trkpt>
      <trkpt lat="44.36125" lon="1.09569">
        <ele>235</ele>
        <time>2012-09-23T08:16:35Z</time>
      </trkpt>
      <trkpt lat="44.36129" lon="1.09563">
        <ele>237</ele>
        <time>2012-09-23T08:16:40Z</time>
      </trkpt>
      <trkpt lat="44.36133" lon="1.09552">
        <ele>237</ele>
        <time>2012-09-23T08:16:46Z</time>
      </trkpt>
      <trkpt lat="44.3614" lon="1.0954">
        <ele>238</ele>
        <time>2012-09-23T08:16:51Z</time>
      </trkpt>
      <trkpt lat="44.36148" lon="1.09531">
        <ele>238</ele>
        <time>2012-09-23T08:16:56Z</time>
      </trkpt>
      <trkpt lat="44.36153" lon="1.09522">
        <ele>238</ele>
        <time>2012-09-23T08:17:01Z</time>
      </trkpt>
      <trkpt lat="44.36161" lon="1.09512">
        <ele>241</ele>
        <time>2012-09-23T08:17:08Z</time>
      </trkpt>
      <trkpt lat="44.36169" lon="1.09503">
        <ele>246</ele>
        <time>2012-09-23T08:17:13Z</time>
      </trkpt>
      <trkpt lat="44.36172" lon="1.09493">
        <ele>248</ele>
        <time>2012-09-23T08:17:18Z</time>
      </trkpt>
      <trkpt lat="44.36176" lon="1.09482">
        <ele>250</ele>
        <time>2012-09-23T08:17:23Z</time>
      </trkpt>
      <trkpt lat="44.36183" lon="1.0947">
        <ele>251</ele>
        <time>2012-09-23T08:17:28Z</time>
      </trkpt>
      <trkpt lat="44.36188" lon="1.09458">
        <ele>251</ele>
        <time>2012-09-23T08:17:33Z</time>
      </trkpt>
      <trkpt lat="44.36196" lon="1.09445">
        <ele>251</ele>
        <time>2012-09-23T08:17:38Z</time>
      </trkpt>
      <trkpt lat="44.36203" lon="1.09432">
        <ele>251</ele>
        <time>2012-09-23T08:17:43Z</time>
      </trkpt>
      <trkpt lat="44.3621" lon="1.09418">
        <ele>251</ele>
        <time>2012-09-23T08:17:48Z</time>
      </trkpt>
      <trkpt lat="44.36219" lon="1.09403">
        <ele>252</ele>
        <time>2012-09-23T08:17:53Z</time>
      </trkpt>
      <trkpt lat="44.36229" lon="1.09385">
        <ele>253</ele>
        <time>2012-09-23T08:17:58Z</time>
      </trkpt>
      <trkpt lat="44.36238" lon="1.09368">
        <ele>253</ele>
        <time>2012-09-23T08:18:03Z</time>
      </trkpt>
      <trkpt lat="44.36244" lon="1.09351">
        <ele>253</ele>
        <time>2012-09-23T08:18:08Z</time>
      </trkpt>
      <trkpt lat="44.36242" lon="1.0933">
        <ele>255</ele>
        <time>2012-09-23T08:18:13Z</time>
      </trkpt>
      <trkpt lat="44.36241" lon="1.09303">
        <ele>256</ele>
        <time>2012-09-23T08:18:18Z</time>
      </trkpt>
      <trkpt lat="44.36243" lon="1.09278">
        <ele>256</ele>
        <time>2012-09-23T08:18:23Z</time>
      </trkpt>
      <trkpt lat="44.36244" lon="1.09254">
        <ele>258</ele>
        <time>2012-09-23T08:18:28Z</time>
      </trkpt>
      <trkpt lat="44.36236" lon="1.09228">
        <ele>259</ele>
        <time>2012-09-23T08:18:33Z</time>
      </trkpt>
      <trkpt lat="44.36216" lon="1.09212">
        <ele>259</ele>
        <time>2012-09-23T08:18:38Z</time>
      </trkpt>
      <trkpt lat="44.36193" lon="1.09196">
        <ele>260</ele>
        <time>2012-09-23T08:18:43Z</time>
      </trkpt>
      <trkpt lat="44.3617" lon="1.0918">
        <ele>260</ele>
        <time>2012-09-23T08:18:48Z</time>
      </trkpt>
      <trkpt lat="44.36149" lon="1.09165">
        <ele>261</ele>
        <time>2012-09-23T08:18:53Z</time>
      </trkpt>
      <trkpt lat="44.36125" lon="1.09153">
        <ele>261</ele>
        <time>2012-09-23T08:18:58Z</time>
      </trkpt>
      <trkpt lat="44.36101" lon="1.09154">
        <ele>261</ele>
        <time>2012-09-23T08:19:03Z</time>
      </trkpt>
      <trkpt lat="44.36074" lon="1.0917">
        <ele>261</ele>
        <time>2012-09-23T08:19:09Z</time>
      </trkpt>
      <trkpt lat="44.36052" lon="1.09183">
        <ele>261</ele>
        <time>2012-09-23T08:19:14Z</time>
      </trkpt>
      <trkpt lat="44.36027" lon="1.09177">
        <ele>261</ele>
        <time>2012-09-23T08:19:19Z</time>
      </trkpt>
      <trkpt lat="44.36002" lon="1.09153">
        <ele>260</ele>
        <time>2012-09-23T08:19:24Z</time>
      </trkpt>
      <trkpt lat="44.35975" lon="1.09128">
        <ele>260</ele>
        <time>2012-09-23T08:19:29Z</time>
      </trkpt>
      <trkpt lat="44.35947" lon="1.09102">
        <ele>260</ele>
        <time>2012-09-23T08:19:34Z</time>
      </trkpt>
      <trkpt lat="44.35921" lon="1.09078">
        <ele>260</ele>
        <time>2012-09-23T08:19:39Z</time>
      </trkpt>
      <trkpt lat="44.3589" lon="1.0905">
        <ele>260</ele>
        <time>2012-09-23T08:19:45Z</time>
      </trkpt>
      <trkpt lat="44.3587" lon="1.09021">
        <ele>257</ele>
        <time>2012-09-23T08:19:50Z</time>
      </trkpt>
      <trkpt lat="44.35853" lon="1.08988">
        <ele>256</ele>
        <time>2012-09-23T08:19:55Z</time>
      </trkpt>
      <trkpt lat="44.35834" lon="1.08987">
        <ele>256</ele>
        <time>2012-09-23T08:20:00Z</time>
      </trkpt>
      <trkpt lat="44.35815" lon="1.08992">
        <ele>256</ele>
        <time>2012-09-23T08:20:05Z</time>
      </trkpt>
      <trkpt lat="44.35796" lon="1.08966">
        <ele>256</ele>
        <time>2012-09-23T08:20:10Z</time>
      </trkpt>
      <trkpt lat="44.35777" lon="1.08938">
        <ele>256</ele>
        <time>2012-09-23T08:20:15Z</time>
      </trkpt>
      <trkpt lat="44.35757" lon="1.08905">
        <ele>255</ele>
        <time>2012-09-23T08:20:20Z</time>
      </trkpt>
      <trkpt lat="44.35736" lon="1.08875">
        <ele>255</ele>
        <time>2012-09-23T08:20:25Z</time>
      </trkpt>
      <trkpt lat="44.35717" lon="1.08846">
        <ele>254</ele>
        <time>2012-09-23T08:20:30Z</time>
      </trkpt>
      <trkpt lat="44.35699" lon="1.08822">
        <ele>254</ele>
        <time>2012-09-23T08:20:35Z</time>
      </trkpt>
      <trkpt lat="44.3568" lon="1.08798">
        <ele>254</ele>
        <time>2012-09-23T08:20:40Z</time>
      </trkpt>
      <trkpt lat="44.35661" lon="1.08775">
        <ele>254</ele>
        <time>2012-09-23T08:20:45Z</time>
      </trkpt>
      <trkpt lat="44.35641" lon="1.08751">
        <ele>254</ele>
        <time>2012-09-23T08:20:50Z</time>
      </trkpt>
      <trkpt lat="44.35624" lon="1.08727">
        <ele>254</ele>
        <time>2012-09-23T08:20:55Z</time>
      </trkpt>
      <trkpt lat="44.35606" lon="1.087">
        <ele>253</ele>
        <time>2012-09-23T08:21:00Z</time>
      </trkpt>
      <trkpt lat="44.35587" lon="1.08672">
        <ele>253</ele>
        <time>2012-09-23T08:21:05Z</time>
      </trkpt>
      <trkpt lat="44.3557" lon="1.08648">
        <ele>253</ele>
        <time>2012-09-23T08:21:10Z</time>
      </trkpt>
      <trkpt lat="44.3555" lon="1.08628">
        <ele>253</ele>
        <time>2012-09-23T08:21:15Z</time>
      </trkpt>
      <trkpt lat="44.35528" lon="1.08611">
        <ele>253</ele>
        <time>2012-09-23T08:21:20Z</time>
      </trkpt>
      <trkpt lat="44.35509" lon="1.08594">
        <ele>253</ele>
        <time>2012-09-23T08:21:25Z</time>
      </trkpt>
      <trkpt lat="44.35492" lon="1.0857">
        <ele>253</ele>
        <time>2012-09-23T08:21:30Z</time>
      </trkpt>
      <trkpt lat="44.35486" lon="1.08535">
        <ele>253</ele>
        <time>2012-09-23T08:21:35Z</time>
      </trkpt>
      <trkpt lat="44.35479" lon="1.08495">
        <ele>253</ele>
        <time>2012-09-23T08:21:40Z</time>
      </trkpt>
      <trkpt lat="44.35473" lon="1.08457">
        <ele>253</ele>
        <time>2012-09-23T08:21:45Z</time>
      </trkpt>
      <trkpt lat="44.35468" lon="1.08419">
        <ele>253</ele>
        <time>2012-09-23T08:21:50Z</time>
      </trkpt>
      <trkpt lat="44.35463" lon="1.08382">
        <ele>254</ele>
        <time>2012-09-23T08:21:55Z</time>
      </trkpt>
      <trkpt lat="44.35458" lon="1.08344">
        <ele>254</ele>
        <time>2012-09-23T08:22:00Z</time>
      </trkpt>
      <trkpt lat="44.35456" lon="1.08305">
        <ele>254</ele>
        <time>2012-09-23T08:22:05Z</time>
      </trkpt>
      <trkpt lat="44.35455" lon="1.08266">
        <ele>254</ele>
        <time>2012-09-23T08:22:10Z</time>
      </trkpt>
      <trkpt lat="44.35455" lon="1.08227">
        <ele>254</ele>
        <time>2012-09-23T08:22:15Z</time>
      </trkpt>
      <trkpt lat="44.35452" lon="1.0819">
        <ele>254</ele>
        <time>2012-09-23T08:22:20Z</time>
      </trkpt>
      <trkpt lat="44.35445" lon="1.08153">
        <ele>254</ele>
        <time>2012-09-23T08:22:25Z</time>
      </trkpt>
      <trkpt lat="44.35438" lon="1.08117">
        <ele>254</ele>
        <time>2012-09-23T08:22:30Z</time>
      </trkpt>
      <trkpt lat="44.3543" lon="1.08084">
        <ele>254</ele>
        <time>2012-09-23T08:22:35Z</time>
      </trkpt>
      <trkpt lat="44.35421" lon="1.08052">
        <ele>255</ele>
        <time>2012-09-23T08:22:40Z</time>
      </trkpt>
      <trkpt lat="44.35412" lon="1.08022">
        <ele>255</ele>
        <time>2012-09-23T08:22:45Z</time>
      </trkpt>
      <trkpt lat="44.35407" lon="1.07993">
        <ele>256</ele>
        <time>2012-09-23T08:22:50Z</time>
      </trkpt>
      <trkpt lat="44.35408" lon="1.07968">
        <ele>256</ele>
        <time>2012-09-23T08:22:55Z</time>
      </trkpt>
      <trkpt lat="44.35411" lon="1.07938">
        <ele>256</ele>
        <time>2012-09-23T08:23:00Z</time>
      </trkpt>
      <trkpt lat="44.35406" lon="1.07904">
        <ele>258</ele>
        <time>2012-09-23T08:23:05Z</time>
      </trkpt>
      <trkpt lat="44.35398" lon="1.07869">
        <ele>262</ele>
        <time>2012-09-23T08:23:10Z</time>
      </trkpt>
      <trkpt lat="44.35387" lon="1.07836">
        <ele>265</ele>
        <time>2012-09-23T08:23:15Z</time>
      </trkpt>
      <trkpt lat="44.35384" lon="1.07805">
        <ele>265</ele>
        <time>2012-09-23T08:23:20Z</time>
      </trkpt>
      <trkpt lat="44.35388" lon="1.07775">
        <ele>265</ele>
        <time>2012-09-23T08:23:25Z</time>
      </trkpt>
      <trkpt lat="44.35396" lon="1.0775">
        <ele>265</ele>
        <time>2012-09-23T08:23:30Z</time>
      </trkpt>
      <trkpt lat="44.354" lon="1.07729">
        <ele>266</ele>
        <time>2012-09-23T08:23:35Z</time>
      </trkpt>
      <trkpt lat="44.35404" lon="1.07706">
        <ele>267</ele>
        <time>2012-09-23T08:23:40Z</time>
      </trkpt>
      <trkpt lat="44.35411" lon="1.07683">
        <ele>268</ele>
        <time>2012-09-23T08:23:45Z</time>
      </trkpt>
      <trkpt lat="44.35416" lon="1.07659">
        <ele>269</ele>
        <time>2012-09-23T08:23:50Z</time>
      </trkpt>
      <trkpt lat="44.35418" lon="1.07632">
        <ele>269</ele>
        <time>2012-09-23T08:23:55Z</time>
      </trkpt>
      <trkpt lat="44.35418" lon="1.07604">
        <ele>269</ele>
        <time>2012-09-23T08:24:00Z</time>
      </trkpt>
      <trkpt lat="44.35416" lon="1.07585">
        <ele>269</ele>
        <time>2012-09-23T08:24:05Z</time>
      </trkpt>
      <trkpt lat="44.35415" lon="1.07551">
        <ele>269</ele>
        <time>2012-09-23T08:24:10Z</time>
      </trkpt>
      <trkpt lat="44.35405" lon="1.07515">
        <ele>268</ele>
        <time>2012-09-23T08:24:15Z</time>
      </trkpt>
      <trkpt lat="44.35397" lon="1.07482">
        <ele>268</ele>
        <time>2012-09-23T08:24:20Z</time>
      </trkpt>
      <trkpt lat="44.35387" lon="1.07446">
        <ele>268</ele>
        <time>2012-09-23T08:24:25Z</time>
      </trkpt>
      <trkpt lat="44.35376" lon="1.07404">
        <ele>268</ele>
        <time>2012-09-23T08:24:30Z</time>
      </trkpt>
      <trkpt lat="44.35368" lon="1.07367">
        <ele>268</ele>
        <time>2012-09-23T08:24:35Z</time>
      </trkpt>
      <trkpt lat="44.35367" lon="1.07344">
        <ele>266</ele>
        <time>2012-09-23T08:24:40Z</time>
      </trkpt>
      <trkpt lat="44.35363" lon="1.07319">
        <ele>263</ele>
        <time>2012-09-23T08:24:45Z</time>
      </trkpt>
      <trkpt lat="44.35354" lon="1.07283">
        <ele>260</ele>
        <time>2012-09-23T08:24:50Z</time>
      </trkpt>
      <trkpt lat="44.35341" lon="1.07244">
        <ele>257</ele>
        <time>2012-09-23T08:24:55Z</time>
      </trkpt>
      <trkpt lat="44.35333" lon="1.07209">
        <ele>257</ele>
        <time>2012-09-23T08:25:00Z</time>
      </trkpt>
      <trkpt lat="44.35332" lon="1.07176">
        <ele>257</ele>
        <time>2012-09-23T08:25:05Z</time>
      </trkpt>
      <trkpt lat="44.35334" lon="1.07148">
        <ele>257</ele>
        <time>2012-09-23T08:25:10Z</time>
      </trkpt>
      <trkpt lat="44.35335" lon="1.07118">
        <ele>257</ele>
        <time>2012-09-23T08:25:15Z</time>
      </trkpt>
      <trkpt lat="44.35336" lon="1.07088">
        <ele>257</ele>
        <time>2012-09-23T08:25:20Z</time>
      </trkpt>
      <trkpt lat="44.35329" lon="1.0707">
        <ele>257</ele>
        <time>2012-09-23T08:25:25Z</time>
      </trkpt>
      <trkpt lat="44.35319" lon="1.07048">
        <ele>257</ele>
        <time>2012-09-23T08:25:30Z</time>
      </trkpt>
      <trkpt lat="44.35317" lon="1.07022">
        <ele>258</ele>
        <time>2012-09-23T08:25:35Z</time>
      </trkpt>
      <trkpt lat="44.35313" lon="1.06995">
        <ele>260</ele>
        <time>2012-09-23T08:25:40Z</time>
      </trkpt>
      <trkpt lat="44.3531" lon="1.06963">
        <ele>260</ele>
        <time>2012-09-23T08:25:45Z</time>
      </trkpt>
      <trkpt lat="44.35305" lon="1.06928">
        <ele>260</ele>
        <time>2012-09-23T08:25:50Z</time>
      </trkpt>
      <trkpt lat="44.353" lon="1.06892">
        <ele>260</ele>
        <time>2012-09-23T08:25:55Z</time>
      </trkpt>
      <trkpt lat="44.35295" lon="1.06851">
        <ele>260</ele>
        <time>2012-09-23T08:26:00Z</time>
      </trkpt>
      <trkpt lat="44.35291" lon="1.0681">
        <ele>260</ele>
        <time>2012-09-23T08:26:05Z</time>
      </trkpt>
      <trkpt lat="44.35291" lon="1.06768">
        <ele>260</ele>
        <time>2012-09-23T08:26:10Z</time>
      </trkpt>
      <trkpt lat="44.3529" lon="1.06719">
        <ele>256</ele>
        <time>2012-09-23T08:26:15Z</time>
      </trkpt>
      <trkpt lat="44.35283" lon="1.06678">
        <ele>253</ele>
        <time>2012-09-23T08:26:20Z</time>
      </trkpt>
      <trkpt lat="44.35285" lon="1.06658">
        <ele>249</ele>
        <time>2012-09-23T08:26:25Z</time>
      </trkpt>
      <trkpt lat="44.35281" lon="1.06622">
        <ele>249</ele>
        <time>2012-09-23T08:26:30Z</time>
      </trkpt>
      <trkpt lat="44.35274" lon="1.06581">
        <ele>249</ele>
        <time>2012-09-23T08:26:35Z</time>
      </trkpt>
      <trkpt lat="44.35266" lon="1.06539">
        <ele>249</ele>
        <time>2012-09-23T08:26:40Z</time>
      </trkpt>
      <trkpt lat="44.35262" lon="1.06489">
        <ele>247</ele>
        <time>2012-09-23T08:26:45Z</time>
      </trkpt>
      <trkpt lat="44.35261" lon="1.06437">
        <ele>246</ele>
        <time>2012-09-23T08:26:50Z</time>
      </trkpt>
      <trkpt lat="44.35259" lon="1.06381">
        <ele>244</ele>
        <time>2012-09-23T08:26:55Z</time>
      </trkpt>
      <trkpt lat="44.35254" lon="1.06335">
        <ele>242</ele>
        <time>2012-09-23T08:27:00Z</time>
      </trkpt>
      <trkpt lat="44.35256" lon="1.06293">
        <ele>240</ele>
        <time>2012-09-23T08:27:05Z</time>
      </trkpt>
      <trkpt lat="44.3525" lon="1.0626">
        <ele>238</ele>
        <time>2012-09-23T08:27:10Z</time>
      </trkpt>
      <trkpt lat="44.35239" lon="1.06252">
        <ele>237</ele>
        <time>2012-09-23T08:27:15Z</time>
      </trkpt>
      <trkpt lat="44.35224" lon="1.06228">
        <ele>236</ele>
        <time>2012-09-23T08:27:20Z</time>
      </trkpt>
      <trkpt lat="44.35208" lon="1.062">
        <ele>233</ele>
        <time>2012-09-23T08:27:25Z</time>
      </trkpt>
      <trkpt lat="44.35193" lon="1.06177">
        <ele>230</ele>
        <time>2012-09-23T08:27:30Z</time>
      </trkpt>
      <trkpt lat="44.35175" lon="1.06166">
        <ele>227</ele>
        <time>2012-09-23T08:27:35Z</time>
      </trkpt>
      <trkpt lat="44.35163" lon="1.06153">
        <ele>226</ele>
        <time>2012-09-23T08:27:40Z</time>
      </trkpt>
      <trkpt lat="44.35166" lon="1.06133">
        <ele>225</ele>
        <time>2012-09-23T08:27:45Z</time>
      </trkpt>
      <trkpt lat="44.35186" lon="1.06113">
        <ele>225</ele>
        <time>2012-09-23T08:27:50Z</time>
      </trkpt>
      <trkpt lat="44.35201" lon="1.061">
        <ele>225</ele>
        <time>2012-09-23T08:27:55Z</time>
      </trkpt>
      <trkpt lat="44.35216" lon="1.06083">
        <ele>225</ele>
        <time>2012-09-23T08:28:00Z</time>
      </trkpt>
      <trkpt lat="44.35219" lon="1.06061">
        <ele>225</ele>
        <time>2012-09-23T08:28:05Z</time>
      </trkpt>
      <trkpt lat="44.35224" lon="1.06049">
        <ele>225</ele>
        <time>2012-09-23T08:28:10Z</time>
      </trkpt>
      <trkpt lat="44.35223" lon="1.06031">
        <ele>225</ele>
        <time>2012-09-23T08:28:15Z</time>
      </trkpt>
      <trkpt lat="44.35223" lon="1.06009">
        <ele>225</ele>
        <time>2012-09-23T08:28:20Z</time>
      </trkpt>
      <trkpt lat="44.35221" lon="1.05989">
        <ele>225</ele>
        <time>2012-09-23T08:28:25Z</time>
      </trkpt>
      <trkpt lat="44.35218" lon="1.05966">
        <ele>225</ele>
        <time>2012-09-23T08:28:30Z</time>
      </trkpt>
      <trkpt lat="44.35214" lon="1.05941">
        <ele>225</ele>
        <time>2012-09-23T08:28:35Z</time>
      </trkpt>
      <trkpt lat="44.35205" lon="1.05909">
        <ele>225</ele>
        <time>2012-09-23T08:28:40Z</time>
      </trkpt>
      <trkpt lat="44.35197" lon="1.05883">
        <ele>224</ele>
        <time>2012-09-23T08:28:45Z</time>
      </trkpt>
      <trkpt lat="44.35202" lon="1.05843">
        <ele>223</ele>
        <time>2012-09-23T08:28:50Z</time>
      </trkpt>
      <trkpt lat="44.35205" lon="1.05805">
        <ele>221</ele>
        <time>2012-09-23T08:28:55Z</time>
      </trkpt>
      <trkpt lat="44.35209" lon="1.05773">
        <ele>217</ele>
        <time>2012-09-23T08:29:00Z</time>
      </trkpt>
      <trkpt lat="44.35217" lon="1.05754">
        <ele>215</ele>
        <time>2012-09-23T08:29:05Z</time>
      </trkpt>
      <trkpt lat="44.35216" lon="1.05751">
        <ele>213</ele>
        <time>2012-09-23T08:29:12Z</time>
      </trkpt>
      <trkpt lat="44.35205" lon="1.05761">
        <ele>212</ele>
        <time>2012-09-23T08:29:17Z</time>
      </trkpt>
      <trkpt lat="44.35182" lon="1.05787">
        <ele>209</ele>
        <time>2012-09-23T08:29:22Z</time>
      </trkpt>
      <trkpt lat="44.35157" lon="1.05809">
        <ele>207</ele>
        <time>2012-09-23T08:29:27Z</time>
      </trkpt>
      <trkpt lat="44.35145" lon="1.05821">
        <ele>206</ele>
        <time>2012-09-23T08:29:32Z</time>
      </trkpt>
      <trkpt lat="44.35135" lon="1.0583">
        <ele>206</ele>
        <time>2012-09-23T08:29:37Z</time>
      </trkpt>
      <trkpt lat="44.35125" lon="1.05834">
        <ele>206</ele>
        <time>2012-09-23T08:29:42Z</time>
      </trkpt>
      <trkpt lat="44.35115" lon="1.05838">
        <ele>207</ele>
        <time>2012-09-23T08:29:47Z</time>
      </trkpt>
      <trkpt lat="44.35107" lon="1.0584">
        <ele>208</ele>
        <time>2012-09-23T08:29:52Z</time>
      </trkpt>
      <trkpt lat="44.35099" lon="1.05841">
        <ele>210</ele>
        <time>2012-09-23T08:29:57Z</time>
      </trkpt>
      <trkpt lat="44.35089" lon="1.05846">
        <ele>211</ele>
        <time>2012-09-23T08:30:02Z</time>
      </trkpt>
      <trkpt lat="44.3508" lon="1.05851">
        <ele>212</ele>
        <time>2012-09-23T08:30:07Z</time>
      </trkpt>
      <trkpt lat="44.3507" lon="1.05857">
        <ele>213</ele>
        <time>2012-09-23T08:30:12Z</time>
      </trkpt>
      <trkpt lat="44.35061" lon="1.05863">
        <ele>213</ele>
        <time>2012-09-23T08:30:17Z</time>
      </trkpt>
      <trkpt lat="44.35051" lon="1.05869">
        <ele>214</ele>
        <time>2012-09-23T08:30:22Z</time>
      </trkpt>
      <trkpt lat="44.35042" lon="1.05875">
        <ele>216</ele>
        <time>2012-09-23T08:30:27Z</time>
      </trkpt>
      <trkpt lat="44.35033" lon="1.05879">
        <ele>217</ele>
        <time>2012-09-23T08:30:32Z</time>
      </trkpt>
      <trkpt lat="44.35024" lon="1.05885">
        <ele>218</ele>
        <time>2012-09-23T08:30:37Z</time>
      </trkpt>
      <trkpt lat="44.35015" lon="1.0589">
        <ele>219</ele>
        <time>2012-09-23T08:30:42Z</time>
      </trkpt>
      <trkpt lat="44.35006" lon="1.05896">
        <ele>220</ele>
        <time>2012-09-23T08:30:47Z</time>
      </trkpt>
      <trkpt lat="44.34996" lon="1.05902">
        <ele>220</ele>
        <time>2012-09-23T08:30:52Z</time>
      </trkpt>
      <trkpt lat="44.34985" lon="1.05908">
        <ele>221</ele>
        <time>2012-09-23T08:30:57Z</time>
      </trkpt>
      <trkpt lat="44.34975" lon="1.05914">
        <ele>222</ele>
        <time>2012-09-23T08:31:02Z</time>
      </trkpt>
      <trkpt lat="44.34964" lon="1.05921">
        <ele>223</ele>
        <time>2012-09-23T08:31:07Z</time>
      </trkpt>
      <trkpt lat="44.34954" lon="1.05927">
        <ele>223</ele>
        <time>2012-09-23T08:31:12Z</time>
      </trkpt>
      <trkpt lat="44.34946" lon="1.05934">
        <ele>224</ele>
        <time>2012-09-23T08:31:17Z</time>
      </trkpt>
      <trkpt lat="44.34938" lon="1.05938">
        <ele>225</ele>
        <time>2012-09-23T08:31:22Z</time>
      </trkpt>
      <trkpt lat="44.34931" lon="1.05944">
        <ele>227</ele>
        <time>2012-09-23T08:31:27Z</time>
      </trkpt>
      <trkpt lat="44.34924" lon="1.05956">
        <ele>229</ele>
        <time>2012-09-23T08:31:32Z</time>
      </trkpt>
      <trkpt lat="44.34916" lon="1.05968">
        <ele>231</ele>
        <time>2012-09-23T08:31:37Z</time>
      </trkpt>
      <trkpt lat="44.34911" lon="1.05983">
        <ele>231</ele>
        <time>2012-09-23T08:31:42Z</time>
      </trkpt>
      <trkpt lat="44.34903" lon="1.06002">
        <ele>231</ele>
        <time>2012-09-23T08:31:47Z</time>
      </trkpt>
      <trkpt lat="44.34898" lon="1.06024">
        <ele>231</ele>
        <time>2012-09-23T08:31:52Z</time>
      </trkpt>
      <trkpt lat="44.34888" lon="1.06049">
        <ele>231</ele>
        <time>2012-09-23T08:31:57Z</time>
      </trkpt>
      <trkpt lat="44.34877" lon="1.06076">
        <ele>231</ele>
        <time>2012-09-23T08:32:02Z</time>
      </trkpt>
      <trkpt lat="44.34864" lon="1.06105">
        <ele>231</ele>
        <time>2012-09-23T08:32:07Z</time>
      </trkpt>
      <trkpt lat="44.34854" lon="1.06126">
        <ele>231</ele>
        <time>2012-09-23T08:32:12Z</time>
      </trkpt>
      <trkpt lat="44.3484" lon="1.06153">
        <ele>231</ele>
        <time>2012-09-23T08:32:17Z</time>
      </trkpt>
      <trkpt lat="44.34825" lon="1.06178">
        <ele>231</ele>
        <time>2012-09-23T08:32:22Z</time>
      </trkpt>
      <trkpt lat="44.34813" lon="1.06204">
        <ele>231</ele>
        <time>2012-09-23T08:32:27Z</time>
      </trkpt>
      <trkpt lat="44.34801" lon="1.06228">
        <ele>231</ele>
        <time>2012-09-23T08:32:32Z</time>
      </trkpt>
      <trkpt lat="44.3479" lon="1.06251">
        <ele>231</ele>
        <time>2012-09-23T08:32:37Z</time>
      </trkpt>
      <trkpt lat="44.34776" lon="1.0627">
        <ele>231</ele>
        <time>2012-09-23T08:32:42Z</time>
      </trkpt>
      <trkpt lat="44.34762" lon="1.06282">
        <ele>231</ele>
        <time>2012-09-23T08:32:47Z</time>
      </trkpt>
      <trkpt lat="44.34751" lon="1.06291">
        <ele>232</ele>
        <time>2012-09-23T08:32:52Z</time>
      </trkpt>
      <trkpt lat="44.34743" lon="1.06297">
        <ele>233</ele>
        <time>2012-09-23T08:32:57Z</time>
      </trkpt>
      <trkpt lat="44.34734" lon="1.06304">
        <ele>235</ele>
        <time>2012-09-23T08:33:02Z</time>
      </trkpt>
      <trkpt lat="44.34728" lon="1.0631">
        <ele>236</ele>
        <time>2012-09-23T08:33:07Z</time>
      </trkpt>
      <trkpt lat="44.34719" lon="1.06315">
        <ele>236</ele>
        <time>2012-09-23T08:33:12Z</time>
      </trkpt>
      <trkpt lat="44.34713" lon="1.06322">
        <ele>237</ele>
        <time>2012-09-23T08:33:17Z</time>
      </trkpt>
      <trkpt lat="44.34707" lon="1.06328">
        <ele>238</ele>
        <time>2012-09-23T08:33:22Z</time>
      </trkpt>
      <trkpt lat="44.34701" lon="1.0634">
        <ele>238</ele>
        <time>2012-09-23T08:33:27Z</time>
      </trkpt>
      <trkpt lat="44.34697" lon="1.0636">
        <ele>238</ele>
        <time>2012-09-23T08:33:32Z</time>
      </trkpt>
      <trkpt lat="44.34692" lon="1.06382">
        <ele>238</ele>
        <time>2012-09-23T08:33:37Z</time>
      </trkpt>
      <trkpt lat="44.34689" lon="1.06401">
        <ele>238</ele>
        <time>2012-09-23T08:33:42Z</time>
      </trkpt>
      <trkpt lat="44.34684" lon="1.06422">
        <ele>238</ele>
        <time>2012-09-23T08:33:47Z</time>
      </trkpt>
      <trkpt lat="44.34665" lon="1.06419">
        <ele>239</ele>
        <time>2012-09-23T08:33:52Z</time>
      </trkpt>
      <trkpt lat="44.34642" lon="1.06412">
        <ele>239</ele>
        <time>2012-09-23T08:33:57Z</time>
      </trkpt>
      <trkpt lat="44.34617" lon="1.06404">
        <ele>239</ele>
        <time>2012-09-23T08:34:02Z</time>
      </trkpt>
      <trkpt lat="44.34591" lon="1.06395">
        <ele>239</ele>
        <time>2012-09-23T08:34:07Z</time>
      </trkpt>
      <trkpt lat="44.34568" lon="1.06389">
        <ele>239</ele>
        <time>2012-09-23T08:34:12Z</time>
      </trkpt>
      <trkpt lat="44.34545" lon="1.06377">
        <ele>239</ele>
        <time>2012-09-23T08:34:17Z</time>
      </trkpt>
      <trkpt lat="44.34524" lon="1.06364">
        <ele>239</ele>
        <time>2012-09-23T08:34:22Z</time>
      </trkpt>
      <trkpt lat="44.34518" lon="1.06366">
        <ele>239</ele>
        <time>2012-09-23T08:34:28Z</time>
      </trkpt>
      <trkpt lat="44.34517" lon="1.06365">
        <ele>239</ele>
        <time>2012-09-23T08:34:36Z</time>
      </trkpt>
      <trkpt lat="44.34515" lon="1.06365">
        <ele>239</ele>
        <time>2012-09-23T08:34:41Z</time>
      </trkpt>
      <trkpt lat="44.34514" lon="1.06366">
        <ele>239</ele>
        <time>2012-09-23T08:34:49Z</time>
      </trkpt>
      <trkpt lat="44.34513" lon="1.06366">
        <ele>239</ele>
        <time>2012-09-23T08:35:10Z</time>
      </trkpt>
      <trkpt lat="44.34512" lon="1.06366">
        <ele>239</ele>
        <time>2012-09-23T08:35:25Z</time>
      </trkpt>
      <trkpt lat="44.34514" lon="1.06367">
        <ele>239</ele>
        <time>2012-09-23T08:35:38Z</time>
      </trkpt>
      <trkpt lat="44.34517" lon="1.06368">
        <ele>239</ele>
        <time>2012-09-23T08:36:22Z</time>
      </trkpt>
      <trkpt lat="44.34518" lon="1.06366">
        <ele>241</ele>
        <time>2012-09-23T08:36:28Z</time>
      </trkpt>
      <trkpt lat="44.34519" lon="1.06367">
        <ele>241</ele>
        <time>2012-09-23T08:36:34Z</time>
      </trkpt>
      <trkpt lat="44.34521" lon="1.06365">
        <ele>244</ele>
        <time>2012-09-23T08:36:43Z</time>
      </trkpt>
      <trkpt lat="44.34522" lon="1.06363">
        <ele>246</ele>
        <time>2012-09-23T08:36:49Z</time>
      </trkpt>
      <trkpt lat="44.34521" lon="1.06365">
        <ele>246</ele>
        <time>2012-09-23T08:37:09Z</time>
      </trkpt>
      <trkpt lat="44.34521" lon="1.06363">
        <ele>246</ele>
        <time>2012-09-23T08:37:20Z</time>
      </trkpt>
      <trkpt lat="44.34521" lon="1.06362">
        <ele>246</ele>
        <time>2012-09-23T08:37:32Z</time>
      </trkpt>
      <trkpt lat="44.3452" lon="1.06361">
        <ele>246</ele>
        <time>2012-09-23T08:37:56Z</time>
      </trkpt>
      <trkpt lat="44.34518" lon="1.06361">
        <ele>246</ele>
        <time>2012-09-23T08:38:06Z</time>
      </trkpt>
      <trkpt lat="44.34516" lon="1.06361">
        <ele>249</ele>
        <time>2012-09-23T08:38:36Z</time>
      </trkpt>
      <trkpt lat="44.34517" lon="1.06361">
        <ele>250</ele>
        <time>2012-09-23T08:38:55Z</time>
      </trkpt>
      <trkpt lat="44.34517" lon="1.06363">
        <ele>250</ele>
        <time>2012-09-23T08:39:11Z</time>
      </trkpt>
      <trkpt lat="44.34516" lon="1.06366">
        <ele>250</ele>
        <time>2012-09-23T08:39:16Z</time>
      </trkpt>
      <trkpt lat="44.34516" lon="1.06368">
        <ele>246</ele>
        <time>2012-09-23T08:39:22Z</time>
      </trkpt>
      <trkpt lat="44.34518" lon="1.06371">
        <ele>238</ele>
        <time>2012-09-23T08:39:34Z</time>
      </trkpt>
      <trkpt lat="44.34518" lon="1.06369">
        <ele>235</ele>
        <time>2012-09-23T08:39:57Z</time>
      </trkpt>
      <trkpt lat="44.34516" lon="1.06373">
        <ele>235</ele>
        <time>2012-09-23T08:40:04Z</time>
      </trkpt>
      <trkpt lat="44.34512" lon="1.06385">
        <ele>235</ele>
        <time>2012-09-23T08:40:09Z</time>
      </trkpt>
      <trkpt lat="44.34509" lon="1.064">
        <ele>236</ele>
        <time>2012-09-23T08:40:14Z</time>
      </trkpt>
      <trkpt lat="44.34506" lon="1.06418">
        <ele>237</ele>
        <time>2012-09-23T08:40:19Z</time>
      </trkpt>
      <trkpt lat="44.34507" lon="1.06434">
        <ele>237</ele>
        <time>2012-09-23T08:40:24Z</time>
      </trkpt>
      <trkpt lat="44.34493" lon="1.06421">
        <ele>237</ele>
        <time>2012-09-23T08:40:29Z</time>
      </trkpt>
      <trkpt lat="44.34479" lon="1.06406">
        <ele>237</ele>
        <time>2012-09-23T08:40:34Z</time>
      </trkpt>
      <trkpt lat="44.3446" lon="1.06388">
        <ele>237</ele>
        <time>2012-09-23T08:40:39Z</time>
      </trkpt>
      <trkpt lat="44.34435" lon="1.06368">
        <ele>232</ele>
        <time>2012-09-23T08:40:44Z</time>
      </trkpt>
      <trkpt lat="44.34417" lon="1.06354">
        <ele>227</ele>
        <time>2012-09-23T08:40:49Z</time>
      </trkpt>
      <trkpt lat="44.34397" lon="1.06332">
        <ele>222</ele>
        <time>2012-09-23T08:40:54Z</time>
      </trkpt>
      <trkpt lat="44.34375" lon="1.06303">
        <ele>217</ele>
        <time>2012-09-23T08:40:59Z</time>
      </trkpt>
      <trkpt lat="44.34364" lon="1.06307">
        <ele>212</ele>
        <time>2012-09-23T08:41:04Z</time>
      </trkpt>
      <trkpt lat="44.34363" lon="1.06338">
        <ele>207</ele>
        <time>2012-09-23T08:41:09Z</time>
      </trkpt>
      <trkpt lat="44.34354" lon="1.06358">
        <ele>206</ele>
        <time>2012-09-23T08:41:14Z</time>
      </trkpt>
      <trkpt lat="44.34344" lon="1.06364">
        <ele>206</ele>
        <time>2012-09-23T08:41:19Z</time>
      </trkpt>
      <trkpt lat="44.34342" lon="1.06366">
        <ele>207</ele>
        <time>2012-09-23T08:41:24Z</time>
      </trkpt>
      <trkpt lat="44.34341" lon="1.06366">
        <ele>211</ele>
        <time>2012-09-23T08:41:38Z</time>
      </trkpt>
      <trkpt lat="44.3434" lon="1.06366">
        <ele>212</ele>
        <time>2012-09-23T08:41:43Z</time>
      </trkpt>
      <trkpt lat="44.34338" lon="1.06366">
        <ele>213</ele>
        <time>2012-09-23T08:41:54Z</time>
      </trkpt>
      <trkpt lat="44.34341" lon="1.06367">
        <ele>214</ele>
        <time>2012-09-23T08:42:09Z</time>
      </trkpt>
      <trkpt lat="44.34342" lon="1.06368">
        <ele>214</ele>
        <time>2012-09-23T08:42:18Z</time>
      </trkpt>
      <trkpt lat="44.3434" lon="1.06371">
        <ele>215</ele>
        <time>2012-09-23T08:42:23Z</time>
      </trkpt>
      <trkpt lat="44.34335" lon="1.06382">
        <ele>215</ele>
        <time>2012-09-23T08:42:28Z</time>
      </trkpt>
      <trkpt lat="44.34329" lon="1.06393">
        <ele>215</ele>
        <time>2012-09-23T08:42:33Z</time>
      </trkpt>
      <trkpt lat="44.34322" lon="1.06404">
        <ele>215</ele>
        <time>2012-09-23T08:42:38Z</time>
      </trkpt>
      <trkpt lat="44.34315" lon="1.06412">
        <ele>215</ele>
        <time>2012-09-23T08:42:43Z</time>
      </trkpt>
      <trkpt lat="44.34314" lon="1.06426">
        <ele>215</ele>
        <time>2012-09-23T08:42:48Z</time>
      </trkpt>
      <trkpt lat="44.34318" lon="1.06459">
        <ele>215</ele>
        <time>2012-09-23T08:42:53Z</time>
      </trkpt>
      <trkpt lat="44.34327" lon="1.06492">
        <ele>215</ele>
        <time>2012-09-23T08:42:58Z</time>
      </trkpt>
      <trkpt lat="44.34322" lon="1.06525">
        <ele>214</ele>
        <time>2012-09-23T08:43:03Z</time>
      </trkpt>
      <trkpt lat="44.34316" lon="1.06557">
        <ele>212</ele>
        <time>2012-09-23T08:43:08Z</time>
      </trkpt>
      <trkpt lat="44.34311" lon="1.06586">
        <ele>212</ele>
        <time>2012-09-23T08:43:13Z</time>
      </trkpt>
      <trkpt lat="44.34306" lon="1.06613">
        <ele>212</ele>
        <time>2012-09-23T08:43:18Z</time>
      </trkpt>
      <trkpt lat="44.34303" lon="1.06634">
        <ele>210</ele>
        <time>2012-09-23T08:43:23Z</time>
      </trkpt>
      <trkpt lat="44.34303" lon="1.06659">
        <ele>209</ele>
        <time>2012-09-23T08:43:28Z</time>
      </trkpt>
      <trkpt lat="44.34302" lon="1.06682">
        <ele>208</ele>
        <time>2012-09-23T08:43:33Z</time>
      </trkpt>
      <trkpt lat="44.34301" lon="1.06707">
        <ele>207</ele>
        <time>2012-09-23T08:43:38Z</time>
      </trkpt>
      <trkpt lat="44.34298" lon="1.06727">
        <ele>206</ele>
        <time>2012-09-23T08:43:43Z</time>
      </trkpt>
      <trkpt lat="44.343" lon="1.06745">
        <ele>206</ele>
        <time>2012-09-23T08:43:48Z</time>
      </trkpt>
      <trkpt lat="44.34307" lon="1.06765">
        <ele>206</ele>
        <time>2012-09-23T08:43:53Z</time>
      </trkpt>
      <trkpt lat="44.34316" lon="1.06778">
        <ele>206</ele>
        <time>2012-09-23T08:43:58Z</time>
      </trkpt>
      <trkpt lat="44.34327" lon="1.06783">
        <ele>207</ele>
        <time>2012-09-23T08:44:03Z</time>
      </trkpt>
      <trkpt lat="44.34335" lon="1.06779">
        <ele>211</ele>
        <time>2012-09-23T08:44:09Z</time>
      </trkpt>
      <trkpt lat="44.34342" lon="1.06773">
        <ele>215</ele>
        <time>2012-09-23T08:44:14Z</time>
      </trkpt>
      <trkpt lat="44.34348" lon="1.06775">
        <ele>218</ele>
        <time>2012-09-23T08:44:20Z</time>
      </trkpt>
      <trkpt lat="44.3434" lon="1.06793">
        <ele>219</ele>
        <time>2012-09-23T08:44:25Z</time>
      </trkpt>
      <trkpt lat="44.34325" lon="1.06818">
        <ele>220</ele>
        <time>2012-09-23T08:44:30Z</time>
      </trkpt>
      <trkpt lat="44.34309" lon="1.06841">
        <ele>220</ele>
        <time>2012-09-23T08:44:35Z</time>
      </trkpt>
      <trkpt lat="44.34294" lon="1.06861">
        <ele>220</ele>
        <time>2012-09-23T08:44:40Z</time>
      </trkpt>
      <trkpt lat="44.3428" lon="1.06881">
        <ele>220</ele>
        <time>2012-09-23T08:44:45Z</time>
      </trkpt>
      <trkpt lat="44.34269" lon="1.06901">
        <ele>221</ele>
        <time>2012-09-23T08:44:50Z</time>
      </trkpt>
      <trkpt lat="44.34259" lon="1.06921">
        <ele>222</ele>
        <time>2012-09-23T08:44:55Z</time>
      </trkpt>
      <trkpt lat="44.34249" lon="1.06941">
        <ele>223</ele>
        <time>2012-09-23T08:45:00Z</time>
      </trkpt>
      <trkpt lat="44.34239" lon="1.06962">
        <ele>224</ele>
        <time>2012-09-23T08:45:05Z</time>
      </trkpt>
      <trkpt lat="44.34229" lon="1.06977">
        <ele>224</ele>
        <time>2012-09-23T08:45:10Z</time>
      </trkpt>
      <trkpt lat="44.34222" lon="1.06991">
        <ele>225</ele>
        <time>2012-09-23T08:45:15Z</time>
      </trkpt>
      <trkpt lat="44.34215" lon="1.07003">
        <ele>226</ele>
        <time>2012-09-23T08:45:20Z</time>
      </trkpt>
      <trkpt lat="44.34208" lon="1.07015">
        <ele>226</ele>
        <time>2012-09-23T08:45:25Z</time>
      </trkpt>
      <trkpt lat="44.34201" lon="1.0703">
        <ele>227</ele>
        <time>2012-09-23T08:45:30Z</time>
      </trkpt>
      <trkpt lat="44.34197" lon="1.07043">
        <ele>227</ele>
        <time>2012-09-23T08:45:35Z</time>
      </trkpt>
      <trkpt lat="44.34193" lon="1.07058">
        <ele>227</ele>
        <time>2012-09-23T08:45:40Z</time>
      </trkpt>
      <trkpt lat="44.34185" lon="1.07079">
        <ele>227</ele>
        <time>2012-09-23T08:45:45Z</time>
      </trkpt>
      <trkpt lat="44.34177" lon="1.07101">
        <ele>229</ele>
        <time>2012-09-23T08:45:50Z</time>
      </trkpt>
      <trkpt lat="44.34167" lon="1.07124">
        <ele>230</ele>
        <time>2012-09-23T08:45:55Z</time>
      </trkpt>
      <trkpt lat="44.34158" lon="1.07144">
        <ele>230</ele>
        <time>2012-09-23T08:46:00Z</time>
      </trkpt>
      <trkpt lat="44.34153" lon="1.0716">
        <ele>230</ele>
        <time>2012-09-23T08:46:05Z</time>
      </trkpt>
      <trkpt lat="44.34147" lon="1.07174">
        <ele>230</ele>
        <time>2012-09-23T08:46:10Z</time>
      </trkpt>
      <trkpt lat="44.34142" lon="1.07187">
        <ele>230</ele>
        <time>2012-09-23T08:46:15Z</time>
      </trkpt>
      <trkpt lat="44.34137" lon="1.07199">
        <ele>230</ele>
        <time>2012-09-23T08:46:20Z</time>
      </trkpt>
      <trkpt lat="44.34133" lon="1.07212">
        <ele>231</ele>
        <time>2012-09-23T08:46:25Z</time>
      </trkpt>
      <trkpt lat="44.34129" lon="1.07224">
        <ele>232</ele>
        <time>2012-09-23T08:46:30Z</time>
      </trkpt>
      <trkpt lat="44.34124" lon="1.07238">
        <ele>234</ele>
        <time>2012-09-23T08:46:35Z</time>
      </trkpt>
      <trkpt lat="44.34117" lon="1.07258">
        <ele>236</ele>
        <time>2012-09-23T08:46:40Z</time>
      </trkpt>
      <trkpt lat="44.34106" lon="1.07283">
        <ele>237</ele>
        <time>2012-09-23T08:46:45Z</time>
      </trkpt>
      <trkpt lat="44.34093" lon="1.07305">
        <ele>237</ele>
        <time>2012-09-23T08:46:50Z</time>
      </trkpt>
      <trkpt lat="44.34082" lon="1.07326">
        <ele>238</ele>
        <time>2012-09-23T08:46:55Z</time>
      </trkpt>
      <trkpt lat="44.34071" lon="1.0735">
        <ele>238</ele>
        <time>2012-09-23T08:47:00Z</time>
      </trkpt>
      <trkpt lat="44.3406" lon="1.07373">
        <ele>238</ele>
        <time>2012-09-23T08:47:05Z</time>
      </trkpt>
      <trkpt lat="44.34052" lon="1.07393">
        <ele>238</ele>
        <time>2012-09-23T08:47:10Z</time>
      </trkpt>
      <trkpt lat="44.3404" lon="1.07396">
        <ele>242</ele>
        <time>2012-09-23T08:47:15Z</time>
      </trkpt>
      <trkpt lat="44.34028" lon="1.07384">
        <ele>247</ele>
        <time>2012-09-23T08:47:20Z</time>
      </trkpt>
      <trkpt lat="44.34011" lon="1.0737">
        <ele>248</ele>
        <time>2012-09-23T08:47:25Z</time>
      </trkpt>
      <trkpt lat="44.33991" lon="1.07356">
        <ele>248</ele>
        <time>2012-09-23T08:47:30Z</time>
      </trkpt>
      <trkpt lat="44.33973" lon="1.0734">
        <ele>248</ele>
        <time>2012-09-23T08:47:35Z</time>
      </trkpt>
      <trkpt lat="44.33956" lon="1.0732">
        <ele>248</ele>
        <time>2012-09-23T08:47:40Z</time>
      </trkpt>
      <trkpt lat="44.33938" lon="1.07298">
        <ele>248</ele>
        <time>2012-09-23T08:47:45Z</time>
      </trkpt>
      <trkpt lat="44.33917" lon="1.07278">
        <ele>248</ele>
        <time>2012-09-23T08:47:50Z</time>
      </trkpt>
      <trkpt lat="44.33897" lon="1.07256">
        <ele>247</ele>
        <time>2012-09-23T08:47:55Z</time>
      </trkpt>
      <trkpt lat="44.33878" lon="1.07236">
        <ele>247</ele>
        <time>2012-09-23T08:48:00Z</time>
      </trkpt>
      <trkpt lat="44.33863" lon="1.07244">
        <ele>246</ele>
        <time>2012-09-23T08:48:05Z</time>
      </trkpt>
      <trkpt lat="44.33858" lon="1.07279">
        <ele>245</ele>
        <time>2012-09-23T08:48:10Z</time>
      </trkpt>
      <trkpt lat="44.33853" lon="1.07316">
        <ele>243</ele>
        <time>2012-09-23T08:48:15Z</time>
      </trkpt>
      <trkpt lat="44.33847" lon="1.07352">
        <ele>241</ele>
        <time>2012-09-23T08:48:20Z</time>
      </trkpt>
      <trkpt lat="44.33838" lon="1.07389">
        <ele>239</ele>
        <time>2012-09-23T08:48:25Z</time>
      </trkpt>
      <trkpt lat="44.33829" lon="1.07428">
        <ele>237</ele>
        <time>2012-09-23T08:48:30Z</time>
      </trkpt>
      <trkpt lat="44.33825" lon="1.07465">
        <ele>236</ele>
        <time>2012-09-23T08:48:35Z</time>
      </trkpt>
      <trkpt lat="44.33813" lon="1.07497">
        <ele>236</ele>
        <time>2012-09-23T08:48:40Z</time>
      </trkpt>
      <trkpt lat="44.33799" lon="1.07524">
        <ele>236</ele>
        <time>2012-09-23T08:48:45Z</time>
      </trkpt>
      <trkpt lat="44.33785" lon="1.07546">
        <ele>238</ele>
        <time>2012-09-23T08:48:50Z</time>
      </trkpt>
      <trkpt lat="44.33773" lon="1.07571">
        <ele>239</ele>
        <time>2012-09-23T08:48:55Z</time>
      </trkpt>
      <trkpt lat="44.33764" lon="1.07599">
        <ele>239</ele>
        <time>2012-09-23T08:49:00Z</time>
      </trkpt>
      <trkpt lat="44.33752" lon="1.07635">
        <ele>239</ele>
        <time>2012-09-23T08:49:05Z</time>
      </trkpt>
      <trkpt lat="44.33736" lon="1.0768">
        <ele>239</ele>
        <time>2012-09-23T08:49:10Z</time>
      </trkpt>
      <trkpt lat="44.33718" lon="1.07714">
        <ele>239</ele>
        <time>2012-09-23T08:49:15Z</time>
      </trkpt>
      <trkpt lat="44.33699" lon="1.07713">
        <ele>239</ele>
        <time>2012-09-23T08:49:20Z</time>
      </trkpt>
      <trkpt lat="44.33678" lon="1.077">
        <ele>239</ele>
        <time>2012-09-23T08:49:25Z</time>
      </trkpt>
      <trkpt lat="44.3365" lon="1.0768">
        <ele>239</ele>
        <time>2012-09-23T08:49:30Z</time>
      </trkpt>
      <trkpt lat="44.33607" lon="1.07658">
        <ele>237</ele>
        <time>2012-09-23T08:49:35Z</time>
      </trkpt>
      <trkpt lat="44.33562" lon="1.07636">
        <ele>233</ele>
        <time>2012-09-23T08:49:40Z</time>
      </trkpt>
      <trkpt lat="44.33514" lon="1.07616">
        <ele>229</ele>
        <time>2012-09-23T08:49:45Z</time>
      </trkpt>
      <trkpt lat="44.33477" lon="1.07607">
        <ele>229</ele>
        <time>2012-09-23T08:49:50Z</time>
      </trkpt>
      <trkpt lat="44.33453" lon="1.07595">
        <ele>229</ele>
        <time>2012-09-23T08:49:55Z</time>
      </trkpt>
      <trkpt lat="44.33434" lon="1.07585">
        <ele>229</ele>
        <time>2012-09-23T08:50:00Z</time>
      </trkpt>
      <trkpt lat="44.3342" lon="1.07575">
        <ele>229</ele>
        <time>2012-09-23T08:50:05Z</time>
      </trkpt>
      <trkpt lat="44.33409" lon="1.07567">
        <ele>229</ele>
        <time>2012-09-23T08:50:10Z</time>
      </trkpt>
      <trkpt lat="44.334" lon="1.07561">
        <ele>230</ele>
        <time>2012-09-23T08:50:15Z</time>
      </trkpt>
      <trkpt lat="44.33391" lon="1.07555">
        <ele>231</ele>
        <time>2012-09-23T08:50:20Z</time>
      </trkpt>
      <trkpt lat="44.33381" lon="1.07549">
        <ele>232</ele>
        <time>2012-09-23T08:50:25Z</time>
      </trkpt>
      <trkpt lat="44.33371" lon="1.07543">
        <ele>234</ele>
        <time>2012-09-23T08:50:30Z</time>
      </trkpt>
      <trkpt lat="44.3336" lon="1.07537">
        <ele>235</ele>
        <time>2012-09-23T08:50:35Z</time>
      </trkpt>
      <trkpt lat="44.33348" lon="1.0753">
        <ele>235</ele>
        <time>2012-09-23T08:50:40Z</time>
      </trkpt>
      <trkpt lat="44.33339" lon="1.07524">
        <ele>235</ele>
        <time>2012-09-23T08:50:45Z</time>
      </trkpt>
      <trkpt lat="44.33331" lon="1.07515">
        <ele>236</ele>
        <time>2012-09-23T08:50:50Z</time>
      </trkpt>
      <trkpt lat="44.33323" lon="1.07506">
        <ele>236</ele>
        <time>2012-09-23T08:50:55Z</time>
      </trkpt>
      <trkpt lat="44.33314" lon="1.07497">
        <ele>236</ele>
        <time>2012-09-23T08:51:00Z</time>
      </trkpt>
      <trkpt lat="44.33307" lon="1.07488">
        <ele>236</ele>
        <time>2012-09-23T08:51:05Z</time>
      </trkpt>
      <trkpt lat="44.33298" lon="1.0748">
        <ele>237</ele>
        <time>2012-09-23T08:51:10Z</time>
      </trkpt>
      <trkpt lat="44.3329" lon="1.0747">
        <ele>237</ele>
        <time>2012-09-23T08:51:15Z</time>
      </trkpt>
      <trkpt lat="44.33282" lon="1.07464">
        <ele>237</ele>
        <time>2012-09-23T08:51:20Z</time>
      </trkpt>
      <trkpt lat="44.33275" lon="1.07473">
        <ele>239</ele>
        <time>2012-09-23T08:51:25Z</time>
      </trkpt>
      <trkpt lat="44.3327" lon="1.07489">
        <ele>239</ele>
        <time>2012-09-23T08:51:30Z</time>
      </trkpt>
      <trkpt lat="44.33265" lon="1.07507">
        <ele>239</ele>
        <time>2012-09-23T08:51:35Z</time>
      </trkpt>
      <trkpt lat="44.33258" lon="1.07527">
        <ele>239</ele>
        <time>2012-09-23T08:51:40Z</time>
      </trkpt>
      <trkpt lat="44.33248" lon="1.07551">
        <ele>239</ele>
        <time>2012-09-23T08:51:45Z</time>
      </trkpt>
      <trkpt lat="44.33236" lon="1.07576">
        <ele>239</ele>
        <time>2012-09-23T08:51:50Z</time>
      </trkpt>
      <trkpt lat="44.33223" lon="1.07604">
        <ele>239</ele>
        <time>2012-09-23T08:51:55Z</time>
      </trkpt>
      <trkpt lat="44.33209" lon="1.07635">
        <ele>239</ele>
        <time>2012-09-23T08:52:00Z</time>
      </trkpt>
      <trkpt lat="44.33194" lon="1.07668">
        <ele>239</ele>
        <time>2012-09-23T08:52:05Z</time>
      </trkpt>
      <trkpt lat="44.33176" lon="1.07703">
        <ele>239</ele>
        <time>2012-09-23T08:52:10Z</time>
      </trkpt>
      <trkpt lat="44.3316" lon="1.07739">
        <ele>239</ele>
        <time>2012-09-23T08:52:15Z</time>
      </trkpt>
      <trkpt lat="44.33143" lon="1.07777">
        <ele>239</ele>
        <time>2012-09-23T08:52:20Z</time>
      </trkpt>
      <trkpt lat="44.33128" lon="1.0781">
        <ele>239</ele>
        <time>2012-09-23T08:52:25Z</time>
      </trkpt>
      <trkpt lat="44.33113" lon="1.07842">
        <ele>239</ele>
        <time>2012-09-23T08:52:30Z</time>
      </trkpt>
      <trkpt lat="44.33102" lon="1.07877">
        <ele>239</ele>
        <time>2012-09-23T08:52:35Z</time>
      </trkpt>
      <trkpt lat="44.33091" lon="1.07907">
        <ele>239</ele>
        <time>2012-09-23T08:52:40Z</time>
      </trkpt>
      <trkpt lat="44.3308" lon="1.07931">
        <ele>239</ele>
        <time>2012-09-23T08:52:45Z</time>
      </trkpt>
      <trkpt lat="44.33061" lon="1.07932">
        <ele>239</ele>
        <time>2012-09-23T08:52:50Z</time>
      </trkpt>
      <trkpt lat="44.33038" lon="1.07917">
        <ele>238</ele>
        <time>2012-09-23T08:52:55Z</time>
      </trkpt>
      <trkpt lat="44.33012" lon="1.07896">
        <ele>236</ele>
        <time>2012-09-23T08:53:00Z</time>
      </trkpt>
      <trkpt lat="44.32986" lon="1.07872">
        <ele>235</ele>
        <time>2012-09-23T08:53:05Z</time>
      </trkpt>
      <trkpt lat="44.32962" lon="1.07842">
        <ele>235</ele>
        <time>2012-09-23T08:53:10Z</time>
      </trkpt>
      <trkpt lat="44.32956" lon="1.0781">
        <ele>234</ele>
        <time>2012-09-23T08:53:15Z</time>
      </trkpt>
      <trkpt lat="44.32955" lon="1.07774">
        <ele>232</ele>
        <time>2012-09-23T08:53:20Z</time>
      </trkpt>
      <trkpt lat="44.32956" lon="1.07722">
        <ele>228</ele>
        <time>2012-09-23T08:53:25Z</time>
      </trkpt>
      <trkpt lat="44.32962" lon="1.07667">
        <ele>223</ele>
        <time>2012-09-23T08:53:30Z</time>
      </trkpt>
      <trkpt lat="44.32961" lon="1.07623">
        <ele>219</ele>
        <time>2012-09-23T08:53:35Z</time>
      </trkpt>
      <trkpt lat="44.32946" lon="1.0762">
        <ele>214</ele>
        <time>2012-09-23T08:53:40Z</time>
      </trkpt>
      <trkpt lat="44.32928" lon="1.07645">
        <ele>210</ele>
        <time>2012-09-23T08:53:45Z</time>
      </trkpt>
      <trkpt lat="44.32913" lon="1.07668">
        <ele>209</ele>
        <time>2012-09-23T08:53:50Z</time>
      </trkpt>
      <trkpt lat="44.32901" lon="1.07686">
        <ele>209</ele>
        <time>2012-09-23T08:53:55Z</time>
      </trkpt>
      <trkpt lat="44.32893" lon="1.077">
        <ele>209</ele>
        <time>2012-09-23T08:54:00Z</time>
      </trkpt>
      <trkpt lat="44.32885" lon="1.07715">
        <ele>212</ele>
        <time>2012-09-23T08:54:05Z</time>
      </trkpt>
      <trkpt lat="44.32876" lon="1.0773">
        <ele>212</ele>
        <time>2012-09-23T08:54:10Z</time>
      </trkpt>
      <trkpt lat="44.32868" lon="1.07746">
        <ele>216</ele>
        <time>2012-09-23T08:54:15Z</time>
      </trkpt>
      <trkpt lat="44.32861" lon="1.07759">
        <ele>221</ele>
        <time>2012-09-23T08:54:20Z</time>
      </trkpt>
      <trkpt lat="44.32851" lon="1.07772">
        <ele>222</ele>
        <time>2012-09-23T08:54:25Z</time>
      </trkpt>
      <trkpt lat="44.32842" lon="1.07781">
        <ele>222</ele>
        <time>2012-09-23T08:54:30Z</time>
      </trkpt>
      <trkpt lat="44.32834" lon="1.07791">
        <ele>222</ele>
        <time>2012-09-23T08:54:35Z</time>
      </trkpt>
      <trkpt lat="44.32826" lon="1.07804">
        <ele>222</ele>
        <time>2012-09-23T08:54:40Z</time>
      </trkpt>
      <trkpt lat="44.32817" lon="1.07812">
        <ele>222</ele>
        <time>2012-09-23T08:54:45Z</time>
      </trkpt>
      <trkpt lat="44.32807" lon="1.0781">
        <ele>223</ele>
        <time>2012-09-23T08:54:50Z</time>
      </trkpt>
      <trkpt lat="44.328" lon="1.07804">
        <ele>223</ele>
        <time>2012-09-23T08:54:55Z</time>
      </trkpt>
      <trkpt lat="44.32793" lon="1.07796">
        <ele>223</ele>
        <time>2012-09-23T08:55:00Z</time>
      </trkpt>
      <trkpt lat="44.32785" lon="1.07791">
        <ele>223</ele>
        <time>2012-09-23T08:55:05Z</time>
      </trkpt>
      <trkpt lat="44.32776" lon="1.07786">
        <ele>224</ele>
        <time>2012-09-23T08:55:10Z</time>
      </trkpt>
      <trkpt lat="44.32768" lon="1.07783">
        <ele>226</ele>
        <time>2012-09-23T08:55:15Z</time>
      </trkpt>
      <trkpt lat="44.32761" lon="1.0778">
        <ele>227</ele>
        <time>2012-09-23T08:55:20Z</time>
      </trkpt>
      <trkpt lat="44.3275" lon="1.07774">
        <ele>228</ele>
        <time>2012-09-23T08:55:25Z</time>
      </trkpt>
      <trkpt lat="44.32742" lon="1.07764">
        <ele>228</ele>
        <time>2012-09-23T08:55:30Z</time>
      </trkpt>
      <trkpt lat="44.32731" lon="1.07752">
        <ele>228</ele>
        <time>2012-09-23T08:55:35Z</time>
      </trkpt>
      <trkpt lat="44.3272" lon="1.07731">
        <ele>228</ele>
        <time>2012-09-23T08:55:40Z</time>
      </trkpt>
      <trkpt lat="44.32716" lon="1.07707">
        <ele>228</ele>
        <time>2012-09-23T08:55:45Z</time>
      </trkpt>
      <trkpt lat="44.32713" lon="1.07683">
        <ele>228</ele>
        <time>2012-09-23T08:55:50Z</time>
      </trkpt>
      <trkpt lat="44.3271" lon="1.0766">
        <ele>228</ele>
        <time>2012-09-23T08:55:55Z</time>
      </trkpt>
      <trkpt lat="44.32708" lon="1.07635">
        <ele>228</ele>
        <time>2012-09-23T08:56:00Z</time>
      </trkpt>
      <trkpt lat="44.32706" lon="1.07609">
        <ele>228</ele>
        <time>2012-09-23T08:56:05Z</time>
      </trkpt>
      <trkpt lat="44.32703" lon="1.07582">
        <ele>230</ele>
        <time>2012-09-23T08:56:10Z</time>
      </trkpt>
      <trkpt lat="44.3269" lon="1.07563">
        <ele>231</ele>
        <time>2012-09-23T08:56:15Z</time>
      </trkpt>
      <trkpt lat="44.32667" lon="1.07559">
        <ele>231</ele>
        <time>2012-09-23T08:56:20Z</time>
      </trkpt>
      <trkpt lat="44.32645" lon="1.07555">
        <ele>231</ele>
        <time>2012-09-23T08:56:25Z</time>
      </trkpt>
      <trkpt lat="44.32623" lon="1.07535">
        <ele>231</ele>
        <time>2012-09-23T08:56:30Z</time>
      </trkpt>
      <trkpt lat="44.32605" lon="1.07507">
        <ele>231</ele>
        <time>2012-09-23T08:56:35Z</time>
      </trkpt>
      <trkpt lat="44.32583" lon="1.07491">
        <ele>231</ele>
        <time>2012-09-23T08:56:40Z</time>
      </trkpt>
      <trkpt lat="44.32563" lon="1.07494">
        <ele>231</ele>
        <time>2012-09-23T08:56:45Z</time>
      </trkpt>
      <trkpt lat="44.3255" lon="1.07501">
        <ele>231</ele>
        <time>2012-09-23T08:56:50Z</time>
      </trkpt>
      <trkpt lat="44.32536" lon="1.07506">
        <ele>231</ele>
        <time>2012-09-23T08:56:55Z</time>
      </trkpt>
      <trkpt lat="44.32523" lon="1.07512">
        <ele>233</ele>
        <time>2012-09-23T08:57:00Z</time>
      </trkpt>
      <trkpt lat="44.32508" lon="1.07516">
        <ele>235</ele>
        <time>2012-09-23T08:57:05Z</time>
      </trkpt>
      <trkpt lat="44.32492" lon="1.07519">
        <ele>237</ele>
        <time>2012-09-23T08:57:10Z</time>
      </trkpt>
      <trkpt lat="44.32476" lon="1.07522">
        <ele>238</ele>
        <time>2012-09-23T08:57:15Z</time>
      </trkpt>
      <trkpt lat="44.32461" lon="1.07526">
        <ele>238</ele>
        <time>2012-09-23T08:57:20Z</time>
      </trkpt>
      <trkpt lat="44.32445" lon="1.07534">
        <ele>238</ele>
        <time>2012-09-23T08:57:25Z</time>
      </trkpt>
      <trkpt lat="44.3243" lon="1.07545">
        <ele>238</ele>
        <time>2012-09-23T08:57:30Z</time>
      </trkpt>
      <trkpt lat="44.32412" lon="1.07555">
        <ele>238</ele>
        <time>2012-09-23T08:57:35Z</time>
      </trkpt>
      <trkpt lat="44.32394" lon="1.07561">
        <ele>239</ele>
        <time>2012-09-23T08:57:40Z</time>
      </trkpt>
      <trkpt lat="44.32376" lon="1.07562">
        <ele>240</ele>
        <time>2012-09-23T08:57:45Z</time>
      </trkpt>
      <trkpt lat="44.32358" lon="1.07561">
        <ele>240</ele>
        <time>2012-09-23T08:57:50Z</time>
      </trkpt>
      <trkpt lat="44.3234" lon="1.07558">
        <ele>241</ele>
        <time>2012-09-23T08:57:55Z</time>
      </trkpt>
      <trkpt lat="44.32321" lon="1.07552">
        <ele>242</ele>
        <time>2012-09-23T08:58:00Z</time>
      </trkpt>
      <trkpt lat="44.32302" lon="1.07544">
        <ele>242</ele>
        <time>2012-09-23T08:58:05Z</time>
      </trkpt>
      <trkpt lat="44.32283" lon="1.07535">
        <ele>242</ele>
        <time>2012-09-23T08:58:10Z</time>
      </trkpt>
      <trkpt lat="44.32271" lon="1.0752">
        <ele>242</ele>
        <time>2012-09-23T08:58:15Z</time>
      </trkpt>
      <trkpt lat="44.32271" lon="1.07495">
        <ele>242</ele>
        <time>2012-09-23T08:58:20Z</time>
      </trkpt>
      <trkpt lat="44.32275" lon="1.07466">
        <ele>242</ele>
        <time>2012-09-23T08:58:25Z</time>
      </trkpt>
      <trkpt lat="44.32277" lon="1.07435">
        <ele>242</ele>
        <time>2012-09-23T08:58:30Z</time>
      </trkpt>
      <trkpt lat="44.32281" lon="1.0741">
        <ele>242</ele>
        <time>2012-09-23T08:58:35Z</time>
      </trkpt>
      <trkpt lat="44.32291" lon="1.07382">
        <ele>242</ele>
        <time>2012-09-23T08:58:40Z</time>
      </trkpt>
      <trkpt lat="44.32302" lon="1.07355">
        <ele>242</ele>
        <time>2012-09-23T08:58:45Z</time>
      </trkpt>
      <trkpt lat="44.32306" lon="1.07327">
        <ele>243</ele>
        <time>2012-09-23T08:58:50Z</time>
      </trkpt>
      <trkpt lat="44.32306" lon="1.07295">
        <ele>245</ele>
        <time>2012-09-23T08:58:55Z</time>
      </trkpt>
      <trkpt lat="44.32304" lon="1.07264">
        <ele>245</ele>
        <time>2012-09-23T08:59:00Z</time>
      </trkpt>
      <trkpt lat="44.32301" lon="1.07231">
        <ele>246</ele>
        <time>2012-09-23T08:59:05Z</time>
      </trkpt>
      <trkpt lat="44.32297" lon="1.07202">
        <ele>247</ele>
        <time>2012-09-23T08:59:10Z</time>
      </trkpt>
      <trkpt lat="44.32293" lon="1.07174">
        <ele>248</ele>
        <time>2012-09-23T08:59:15Z</time>
      </trkpt>
      <trkpt lat="44.32293" lon="1.07145">
        <ele>248</ele>
        <time>2012-09-23T08:59:20Z</time>
      </trkpt>
      <trkpt lat="44.32295" lon="1.07116">
        <ele>250</ele>
        <time>2012-09-23T08:59:25Z</time>
      </trkpt>
      <trkpt lat="44.323" lon="1.07094">
        <ele>251</ele>
        <time>2012-09-23T08:59:30Z</time>
      </trkpt>
      <trkpt lat="44.32309" lon="1.0707">
        <ele>252</ele>
        <time>2012-09-23T08:59:35Z</time>
      </trkpt>
      <trkpt lat="44.32322" lon="1.07047">
        <ele>253</ele>
        <time>2012-09-23T08:59:40Z</time>
      </trkpt>
      <trkpt lat="44.32341" lon="1.07035">
        <ele>253</ele>
        <time>2012-09-23T08:59:45Z</time>
      </trkpt>
      <trkpt lat="44.32362" lon="1.07031">
        <ele>253</ele>
        <time>2012-09-23T08:59:50Z</time>
      </trkpt>
      <trkpt lat="44.32379" lon="1.07023">
        <ele>253</ele>
        <time>2012-09-23T08:59:55Z</time>
      </trkpt>
      <trkpt lat="44.32391" lon="1.07025">
        <ele>253</ele>
        <time>2012-09-23T09:00:00Z</time>
      </trkpt>
      <trkpt lat="44.32403" lon="1.07022">
        <ele>253</ele>
        <time>2012-09-23T09:00:05Z</time>
      </trkpt>
      <trkpt lat="44.32413" lon="1.07023">
        <ele>253</ele>
        <time>2012-09-23T09:00:10Z</time>
      </trkpt>
      <trkpt lat="44.32417" lon="1.07026">
        <ele>253</ele>
        <time>2012-09-23T09:00:24Z</time>
      </trkpt>
      <trkpt lat="44.32416" lon="1.07038">
        <ele>253</ele>
        <time>2012-09-23T09:00:29Z</time>
      </trkpt>
      <trkpt lat="44.32424" lon="1.07045">
        <ele>253</ele>
        <time>2012-09-23T09:00:34Z</time>
      </trkpt>
      <trkpt lat="44.32448" lon="1.07055">
        <ele>252</ele>
        <time>2012-09-23T09:00:39Z</time>
      </trkpt>
      <trkpt lat="44.32479" lon="1.0706">
        <ele>248</ele>
        <time>2012-09-23T09:00:44Z</time>
      </trkpt>
      <trkpt lat="44.32513" lon="1.0707">
        <ele>247</ele>
        <time>2012-09-23T09:00:49Z</time>
      </trkpt>
      <trkpt lat="44.3255" lon="1.07074">
        <ele>243</ele>
        <time>2012-09-23T09:00:54Z</time>
      </trkpt>
      <trkpt lat="44.32572" lon="1.07072">
        <ele>242</ele>
        <time>2012-09-23T09:00:59Z</time>
      </trkpt>
      <trkpt lat="44.32587" lon="1.07073">
        <ele>241</ele>
        <time>2012-09-23T09:01:04Z</time>
      </trkpt>
      <trkpt lat="44.32601" lon="1.07074">
        <ele>241</ele>
        <time>2012-09-23T09:01:09Z</time>
      </trkpt>
      <trkpt lat="44.32613" lon="1.07071">
        <ele>240</ele>
        <time>2012-09-23T09:01:14Z</time>
      </trkpt>
      <trkpt lat="44.32628" lon="1.07064">
        <ele>238</ele>
        <time>2012-09-23T09:01:19Z</time>
      </trkpt>
      <trkpt lat="44.32659" lon="1.07063">
        <ele>238</ele>
        <time>2012-09-23T09:01:24Z</time>
      </trkpt>
      <trkpt lat="44.32691" lon="1.07064">
        <ele>238</ele>
        <time>2012-09-23T09:01:29Z</time>
      </trkpt>
      <trkpt lat="44.32717" lon="1.07065">
        <ele>238</ele>
        <time>2012-09-23T09:01:34Z</time>
      </trkpt>
      <trkpt lat="44.32732" lon="1.07064">
        <ele>240</ele>
        <time>2012-09-23T09:01:39Z</time>
      </trkpt>
      <trkpt lat="44.32734" lon="1.07047">
        <ele>241</ele>
        <time>2012-09-23T09:01:44Z</time>
      </trkpt>
      <trkpt lat="44.32741" lon="1.07022">
        <ele>241</ele>
        <time>2012-09-23T09:01:49Z</time>
      </trkpt>
      <trkpt lat="44.32752" lon="1.06999">
        <ele>241</ele>
        <time>2012-09-23T09:01:54Z</time>
      </trkpt>
      <trkpt lat="44.32763" lon="1.06973">
        <ele>242</ele>
        <time>2012-09-23T09:01:59Z</time>
      </trkpt>
      <trkpt lat="44.32774" lon="1.06938">
        <ele>242</ele>
        <time>2012-09-23T09:02:05Z</time>
      </trkpt>
      <trkpt lat="44.32774" lon="1.06905">
        <ele>242</ele>
        <time>2012-09-23T09:02:11Z</time>
      </trkpt>
      <trkpt lat="44.32767" lon="1.0688">
        <ele>242</ele>
        <time>2012-09-23T09:02:16Z</time>
      </trkpt>
      <trkpt lat="44.32762" lon="1.06859">
        <ele>243</ele>
        <time>2012-09-23T09:02:21Z</time>
      </trkpt>
      <trkpt lat="44.32756" lon="1.06841">
        <ele>243</ele>
        <time>2012-09-23T09:02:26Z</time>
      </trkpt>
      <trkpt lat="44.32752" lon="1.06824">
        <ele>244</ele>
        <time>2012-09-23T09:02:31Z</time>
      </trkpt>
      <trkpt lat="44.32748" lon="1.06807">
        <ele>246</ele>
        <time>2012-09-23T09:02:36Z</time>
      </trkpt>
      <trkpt lat="44.32747" lon="1.06791">
        <ele>248</ele>
        <time>2012-09-23T09:02:41Z</time>
      </trkpt>
      <trkpt lat="44.32745" lon="1.06775">
        <ele>249</ele>
        <time>2012-09-23T09:02:46Z</time>
      </trkpt>
      <trkpt lat="44.32745" lon="1.06757">
        <ele>250</ele>
        <time>2012-09-23T09:02:51Z</time>
      </trkpt>
      <trkpt lat="44.32743" lon="1.0674">
        <ele>251</ele>
        <time>2012-09-23T09:02:56Z</time>
      </trkpt>
      <trkpt lat="44.32751" lon="1.06727">
        <ele>251</ele>
        <time>2012-09-23T09:03:01Z</time>
      </trkpt>
      <trkpt lat="44.32767" lon="1.06719">
        <ele>251</ele>
        <time>2012-09-23T09:03:06Z</time>
      </trkpt>
      <trkpt lat="44.32788" lon="1.0671">
        <ele>251</ele>
        <time>2012-09-23T09:03:11Z</time>
      </trkpt>
      <trkpt lat="44.3281" lon="1.06694">
        <ele>251</ele>
        <time>2012-09-23T09:03:16Z</time>
      </trkpt>
      <trkpt lat="44.32834" lon="1.0668">
        <ele>251</ele>
        <time>2012-09-23T09:03:21Z</time>
      </trkpt>
      <trkpt lat="44.32861" lon="1.06673">
        <ele>250</ele>
        <time>2012-09-23T09:03:26Z</time>
      </trkpt>
      <trkpt lat="44.32889" lon="1.06668">
        <ele>250</ele>
        <time>2012-09-23T09:03:31Z</time>
      </trkpt>
      <trkpt lat="44.3292" lon="1.06666">
        <ele>250</ele>
        <time>2012-09-23T09:03:37Z</time>
      </trkpt>
      <trkpt lat="44.32945" lon="1.06662">
        <ele>250</ele>
        <time>2012-09-23T09:03:42Z</time>
      </trkpt>
      <trkpt lat="44.32967" lon="1.06653">
        <ele>250</ele>
        <time>2012-09-23T09:03:47Z</time>
      </trkpt>
      <trkpt lat="44.32989" lon="1.0664">
        <ele>250</ele>
        <time>2012-09-23T09:03:52Z</time>
      </trkpt>
      <trkpt lat="44.33011" lon="1.06629">
        <ele>250</ele>
        <time>2012-09-23T09:03:57Z</time>
      </trkpt>
      <trkpt lat="44.33034" lon="1.0662">
        <ele>250</ele>
        <time>2012-09-23T09:04:02Z</time>
      </trkpt>
      <trkpt lat="44.33057" lon="1.06608">
        <ele>250</ele>
        <time>2012-09-23T09:04:07Z</time>
      </trkpt>
      <trkpt lat="44.33071" lon="1.06582">
        <ele>250</ele>
        <time>2012-09-23T09:04:12Z</time>
      </trkpt>
      <trkpt lat="44.33081" lon="1.06547">
        <ele>250</ele>
        <time>2012-09-23T09:04:17Z</time>
      </trkpt>
      <trkpt lat="44.33096" lon="1.06521">
        <ele>248</ele>
        <time>2012-09-23T09:04:22Z</time>
      </trkpt>
      <trkpt lat="44.33119" lon="1.06509">
        <ele>248</ele>
        <time>2012-09-23T09:04:27Z</time>
      </trkpt>
      <trkpt lat="44.33122" lon="1.06473">
        <ele>248</ele>
        <time>2012-09-23T09:04:32Z</time>
      </trkpt>
      <trkpt lat="44.33136" lon="1.0645">
        <ele>248</ele>
        <time>2012-09-23T09:04:37Z</time>
      </trkpt>
      <trkpt lat="44.33155" lon="1.06463">
        <ele>248</ele>
        <time>2012-09-23T09:04:42Z</time>
      </trkpt>
      <trkpt lat="44.33175" lon="1.06477">
        <ele>248</ele>
        <time>2012-09-23T09:04:47Z</time>
      </trkpt>
      <trkpt lat="44.33197" lon="1.0649">
        <ele>248</ele>
        <time>2012-09-23T09:04:52Z</time>
      </trkpt>
      <trkpt lat="44.33218" lon="1.06494">
        <ele>250</ele>
        <time>2012-09-23T09:04:57Z</time>
      </trkpt>
      <trkpt lat="44.33239" lon="1.06495">
        <ele>252</ele>
        <time>2012-09-23T09:05:02Z</time>
      </trkpt>
      <trkpt lat="44.33263" lon="1.06495">
        <ele>253</ele>
        <time>2012-09-23T09:05:07Z</time>
      </trkpt>
      <trkpt lat="44.33292" lon="1.06492">
        <ele>253</ele>
        <time>2012-09-23T09:05:12Z</time>
      </trkpt>
      <trkpt lat="44.33325" lon="1.06489">
        <ele>253</ele>
        <time>2012-09-23T09:05:17Z</time>
      </trkpt>
      <trkpt lat="44.33356" lon="1.06484">
        <ele>253</ele>
        <time>2012-09-23T09:05:22Z</time>
      </trkpt>
      <trkpt lat="44.33357" lon="1.06454">
        <ele>253</ele>
        <time>2012-09-23T09:05:27Z</time>
      </trkpt>
      <trkpt lat="44.33352" lon="1.06414">
        <ele>253</ele>
        <time>2012-09-23T09:05:32Z</time>
      </trkpt>
      <trkpt lat="44.33347" lon="1.06373">
        <ele>252</ele>
        <time>2012-09-23T09:05:37Z</time>
      </trkpt>
      <trkpt lat="44.33342" lon="1.06334">
        <ele>252</ele>
        <time>2012-09-23T09:05:42Z</time>
      </trkpt>
      <trkpt lat="44.3334" lon="1.06296">
        <ele>252</ele>
        <time>2012-09-23T09:05:47Z</time>
      </trkpt>
      <trkpt lat="44.33342" lon="1.06256">
        <ele>252</ele>
        <time>2012-09-23T09:05:52Z</time>
      </trkpt>
      <trkpt lat="44.33344" lon="1.06216">
        <ele>252</ele>
        <time>2012-09-23T09:05:57Z</time>
      </trkpt>
      <trkpt lat="44.33349" lon="1.06178">
        <ele>252</ele>
        <time>2012-09-23T09:06:02Z</time>
      </trkpt>
      <trkpt lat="44.33364" lon="1.06139">
        <ele>251</ele>
        <time>2012-09-23T09:06:07Z</time>
      </trkpt>
      <trkpt lat="44.33381" lon="1.06102">
        <ele>251</ele>
        <time>2012-09-23T09:06:12Z</time>
      </trkpt>
      <trkpt lat="44.33395" lon="1.06066">
        <ele>250</ele>
        <time>2012-09-23T09:06:17Z</time>
      </trkpt>
      <trkpt lat="44.33408" lon="1.06031">
        <ele>250</ele>
        <time>2012-09-23T09:06:22Z</time>
      </trkpt>
      <trkpt lat="44.33417" lon="1.05994">
        <ele>249</ele>
        <time>2012-09-23T09:06:27Z</time>
      </trkpt>
      <trkpt lat="44.33427" lon="1.05958">
        <ele>249</ele>
        <time>2012-09-23T09:06:32Z</time>
      </trkpt>
      <trkpt lat="44.33443" lon="1.05923">
        <ele>249</ele>
        <time>2012-09-23T09:06:37Z</time>
      </trkpt>
      <trkpt lat="44.33462" lon="1.05884">
        <ele>249</ele>
        <time>2012-09-23T09:06:42Z</time>
      </trkpt>
      <trkpt lat="44.33479" lon="1.05839">
        <ele>247</ele>
        <time>2012-09-23T09:06:47Z</time>
      </trkpt>
      <trkpt lat="44.33494" lon="1.05792">
        <ele>245</ele>
        <time>2012-09-23T09:06:52Z</time>
      </trkpt>
      <trkpt lat="44.33511" lon="1.05745">
        <ele>244</ele>
        <time>2012-09-23T09:06:57Z</time>
      </trkpt>
      <trkpt lat="44.33526" lon="1.05704">
        <ele>244</ele>
        <time>2012-09-23T09:07:02Z</time>
      </trkpt>
      <trkpt lat="44.33537" lon="1.05672">
        <ele>244</ele>
        <time>2012-09-23T09:07:07Z</time>
      </trkpt>
      <trkpt lat="44.33528" lon="1.05661">
        <ele>244</ele>
        <time>2012-09-23T09:07:12Z</time>
      </trkpt>
      <trkpt lat="44.3351" lon="1.05651">
        <ele>244</ele>
        <time>2012-09-23T09:07:17Z</time>
      </trkpt>
      <trkpt lat="44.33487" lon="1.05638">
        <ele>244</ele>
        <time>2012-09-23T09:07:22Z</time>
      </trkpt>
      <trkpt lat="44.33451" lon="1.05616">
        <ele>243</ele>
        <time>2012-09-23T09:07:28Z</time>
      </trkpt>
      <trkpt lat="44.33419" lon="1.05589">
        <ele>240</ele>
        <time>2012-09-23T09:07:33Z</time>
      </trkpt>
      <trkpt lat="44.33391" lon="1.05552">
        <ele>235</ele>
        <time>2012-09-23T09:07:39Z</time>
      </trkpt>
      <trkpt lat="44.33404" lon="1.05529">
        <ele>230</ele>
        <time>2012-09-23T09:07:44Z</time>
      </trkpt>
      <trkpt lat="44.33421" lon="1.05496">
        <ele>230</ele>
        <time>2012-09-23T09:07:49Z</time>
      </trkpt>
      <trkpt lat="44.33445" lon="1.05471">
        <ele>230</ele>
        <time>2012-09-23T09:07:54Z</time>
      </trkpt>
      <trkpt lat="44.33461" lon="1.05436">
        <ele>230</ele>
        <time>2012-09-23T09:07:59Z</time>
      </trkpt>
      <trkpt lat="44.33465" lon="1.05396">
        <ele>230</ele>
        <time>2012-09-23T09:08:04Z</time>
      </trkpt>
      <trkpt lat="44.33474" lon="1.05351">
        <ele>230</ele>
        <time>2012-09-23T09:08:09Z</time>
      </trkpt>
      <trkpt lat="44.33482" lon="1.05305">
        <ele>230</ele>
        <time>2012-09-23T09:08:14Z</time>
      </trkpt>
      <trkpt lat="44.3348" lon="1.05252">
        <ele>230</ele>
        <time>2012-09-23T09:08:19Z</time>
      </trkpt>
      <trkpt lat="44.33484" lon="1.05196">
        <ele>230</ele>
        <time>2012-09-23T09:08:24Z</time>
      </trkpt>
      <trkpt lat="44.33491" lon="1.05143">
        <ele>230</ele>
        <time>2012-09-23T09:08:29Z</time>
      </trkpt>
      <trkpt lat="44.33494" lon="1.05089">
        <ele>229</ele>
        <time>2012-09-23T09:08:34Z</time>
      </trkpt>
      <trkpt lat="44.335" lon="1.05032">
        <ele>227</ele>
        <time>2012-09-23T09:08:39Z</time>
      </trkpt>
      <trkpt lat="44.33509" lon="1.04971">
        <ele>224</ele>
        <time>2012-09-23T09:08:44Z</time>
      </trkpt>
      <trkpt lat="44.3351" lon="1.04911">
        <ele>222</ele>
        <time>2012-09-23T09:08:49Z</time>
      </trkpt>
      <trkpt lat="44.33508" lon="1.04853">
        <ele>219</ele>
        <time>2012-09-23T09:08:54Z</time>
      </trkpt>
      <trkpt lat="44.33506" lon="1.04791">
        <ele>216</ele>
        <time>2012-09-23T09:08:59Z</time>
      </trkpt>
      <trkpt lat="44.33493" lon="1.04744">
        <ele>214</ele>
        <time>2012-09-23T09:09:04Z</time>
      </trkpt>
      <trkpt lat="44.33474" lon="1.04706">
        <ele>212</ele>
        <time>2012-09-23T09:09:09Z</time>
      </trkpt>
      <trkpt lat="44.33455" lon="1.04672">
        <ele>212</ele>
        <time>2012-09-23T09:09:14Z</time>
      </trkpt>
      <trkpt lat="44.33461" lon="1.04642">
        <ele>212</ele>
        <time>2012-09-23T09:09:19Z</time>
      </trkpt>
      <trkpt lat="44.33469" lon="1.04632">
        <ele>212</ele>
        <time>2012-09-23T09:09:24Z</time>
      </trkpt>
      <trkpt lat="44.33479" lon="1.04632">
        <ele>211</ele>
        <time>2012-09-23T09:09:29Z</time>
      </trkpt>
      <trkpt lat="44.33488" lon="1.04634">
        <ele>211</ele>
        <time>2012-09-23T09:09:34Z</time>
      </trkpt>
      <trkpt lat="44.33497" lon="1.04635">
        <ele>213</ele>
        <time>2012-09-23T09:09:40Z</time>
      </trkpt>
      <trkpt lat="44.33506" lon="1.04636">
        <ele>215</ele>
        <time>2012-09-23T09:09:45Z</time>
      </trkpt>
      <trkpt lat="44.33514" lon="1.04631">
        <ele>216</ele>
        <time>2012-09-23T09:09:50Z</time>
      </trkpt>
      <trkpt lat="44.33513" lon="1.04622">
        <ele>218</ele>
        <time>2012-09-23T09:09:55Z</time>
      </trkpt>
      <trkpt lat="44.33503" lon="1.04614">
        <ele>219</ele>
        <time>2012-09-23T09:10:00Z</time>
      </trkpt>
      <trkpt lat="44.33494" lon="1.04605">
        <ele>220</ele>
        <time>2012-09-23T09:10:05Z</time>
      </trkpt>
      <trkpt lat="44.33491" lon="1.04595">
        <ele>220</ele>
        <time>2012-09-23T09:10:10Z</time>
      </trkpt>
      <trkpt lat="44.335" lon="1.04593">
        <ele>222</ele>
        <time>2012-09-23T09:10:15Z</time>
      </trkpt>
      <trkpt lat="44.33511" lon="1.04595">
        <ele>224</ele>
        <time>2012-09-23T09:10:20Z</time>
      </trkpt>
      <trkpt lat="44.33521" lon="1.04598">
        <ele>226</ele>
        <time>2012-09-23T09:10:25Z</time>
      </trkpt>
      <trkpt lat="44.33531" lon="1.04601">
        <ele>228</ele>
        <time>2012-09-23T09:10:30Z</time>
      </trkpt>
      <trkpt lat="44.33539" lon="1.04602">
        <ele>230</ele>
        <time>2012-09-23T09:10:35Z</time>
      </trkpt>
      <trkpt lat="44.33548" lon="1.04604">
        <ele>232</ele>
        <time>2012-09-23T09:10:40Z</time>
      </trkpt>
      <trkpt lat="44.33556" lon="1.04607">
        <ele>233</ele>
        <time>2012-09-23T09:10:45Z</time>
      </trkpt>
      <trkpt lat="44.33565" lon="1.0461">
        <ele>234</ele>
        <time>2012-09-23T09:10:50Z</time>
      </trkpt>
      <trkpt lat="44.33577" lon="1.0461">
        <ele>234</ele>
        <time>2012-09-23T09:10:55Z</time>
      </trkpt>
      <trkpt lat="44.3359" lon="1.04611">
        <ele>235</ele>
        <time>2012-09-23T09:11:00Z</time>
      </trkpt>
      <trkpt lat="44.33601" lon="1.04612">
        <ele>235</ele>
        <time>2012-09-23T09:11:05Z</time>
      </trkpt>
      <trkpt lat="44.33612" lon="1.04616">
        <ele>236</ele>
        <time>2012-09-23T09:11:10Z</time>
      </trkpt>
      <trkpt lat="44.33622" lon="1.04614">
        <ele>236</ele>
        <time>2012-09-23T09:11:15Z</time>
      </trkpt>
      <trkpt lat="44.3363" lon="1.04621">
        <ele>237</ele>
        <time>2012-09-23T09:11:20Z</time>
      </trkpt>
      <trkpt lat="44.33636" lon="1.04623">
        <ele>238</ele>
        <time>2012-09-23T09:11:25Z</time>
      </trkpt>
      <trkpt lat="44.33642" lon="1.04618">
        <ele>238</ele>
        <time>2012-09-23T09:11:30Z</time>
      </trkpt>
      <trkpt lat="44.33645" lon="1.04604">
        <ele>238</ele>
        <time>2012-09-23T09:11:35Z</time>
      </trkpt>
      <trkpt lat="44.33654" lon="1.04593">
        <ele>237</ele>
        <time>2012-09-23T09:11:40Z</time>
      </trkpt>
      <trkpt lat="44.3366" lon="1.04583">
        <ele>237</ele>
        <time>2012-09-23T09:11:45Z</time>
      </trkpt>
      <trkpt lat="44.33657" lon="1.04566">
        <ele>237</ele>
        <time>2012-09-23T09:11:50Z</time>
      </trkpt>
      <trkpt lat="44.33649" lon="1.0456">
        <ele>237</ele>
        <time>2012-09-23T09:11:55Z</time>
      </trkpt>
      <trkpt lat="44.33635" lon="1.04562">
        <ele>237</ele>
        <time>2012-09-23T09:12:00Z</time>
      </trkpt>
      <trkpt lat="44.33628" lon="1.04532">
        <ele>237</ele>
        <time>2012-09-23T09:12:05Z</time>
      </trkpt>
      <trkpt lat="44.33618" lon="1.04497">
        <ele>234</ele>
        <time>2012-09-23T09:12:10Z</time>
      </trkpt>
      <trkpt lat="44.33612" lon="1.04465">
        <ele>232</ele>
        <time>2012-09-23T09:12:15Z</time>
      </trkpt>
      <trkpt lat="44.33613" lon="1.04436">
        <ele>230</ele>
        <time>2012-09-23T09:12:20Z</time>
      </trkpt>
      <trkpt lat="44.33611" lon="1.04406">
        <ele>230</ele>
        <time>2012-09-23T09:12:25Z</time>
      </trkpt>
      <trkpt lat="44.33614" lon="1.0438">
        <ele>230</ele>
        <time>2012-09-23T09:12:30Z</time>
      </trkpt>
      <trkpt lat="44.33615" lon="1.04352">
        <ele>230</ele>
        <time>2012-09-23T09:12:35Z</time>
      </trkpt>
      <trkpt lat="44.33611" lon="1.04322">
        <ele>230</ele>
        <time>2012-09-23T09:12:40Z</time>
      </trkpt>
      <trkpt lat="44.33609" lon="1.04296">
        <ele>230</ele>
        <time>2012-09-23T09:12:45Z</time>
      </trkpt>
      <trkpt lat="44.33602" lon="1.0428">
        <ele>230</ele>
        <time>2012-09-23T09:12:50Z</time>
      </trkpt>
      <trkpt lat="44.33594" lon="1.04255">
        <ele>230</ele>
        <time>2012-09-23T09:12:55Z</time>
      </trkpt>
      <trkpt lat="44.33583" lon="1.04219">
        <ele>226</ele>
        <time>2012-09-23T09:13:00Z</time>
      </trkpt>
      <trkpt lat="44.33578" lon="1.042">
        <ele>223</ele>
        <time>2012-09-23T09:13:05Z</time>
      </trkpt>
      <trkpt lat="44.33572" lon="1.04175">
        <ele>221</ele>
        <time>2012-09-23T09:13:10Z</time>
      </trkpt>
      <trkpt lat="44.33563" lon="1.04167">
        <ele>221</ele>
        <time>2012-09-23T09:13:15Z</time>
      </trkpt>
      <trkpt lat="44.33574" lon="1.04152">
        <ele>221</ele>
        <time>2012-09-23T09:13:20Z</time>
      </trkpt>
      <trkpt lat="44.33601" lon="1.04137">
        <ele>221</ele>
        <time>2012-09-23T09:13:25Z</time>
      </trkpt>
      <trkpt lat="44.33633" lon="1.04129">
        <ele>221</ele>
        <time>2012-09-23T09:13:30Z</time>
      </trkpt>
      <trkpt lat="44.33663" lon="1.04121">
        <ele>221</ele>
        <time>2012-09-23T09:13:35Z</time>
      </trkpt>
      <trkpt lat="44.33677" lon="1.04116">
        <ele>221</ele>
        <time>2012-09-23T09:13:40Z</time>
      </trkpt>
      <trkpt lat="44.33685" lon="1.04133">
        <ele>221</ele>
        <time>2012-09-23T09:13:45Z</time>
      </trkpt>
      <trkpt lat="44.33694" lon="1.04146">
        <ele>221</ele>
        <time>2012-09-23T09:13:50Z</time>
      </trkpt>
      <trkpt lat="44.33705" lon="1.04144">
        <ele>221</ele>
        <time>2012-09-23T09:13:55Z</time>
      </trkpt>
      <trkpt lat="44.33717" lon="1.04138">
        <ele>221</ele>
        <time>2012-09-23T09:14:00Z</time>
      </trkpt>
      <trkpt lat="44.33725" lon="1.04133">
        <ele>221</ele>
        <time>2012-09-23T09:14:05Z</time>
      </trkpt>
      <trkpt lat="44.33729" lon="1.04122">
        <ele>221</ele>
        <time>2012-09-23T09:14:10Z</time>
      </trkpt>
      <trkpt lat="44.33736" lon="1.04106">
        <ele>221</ele>
        <time>2012-09-23T09:14:15Z</time>
      </trkpt>
      <trkpt lat="44.33748" lon="1.04083">
        <ele>221</ele>
        <time>2012-09-23T09:14:20Z</time>
      </trkpt>
      <trkpt lat="44.33758" lon="1.04059">
        <ele>221</ele>
        <time>2012-09-23T09:14:25Z</time>
      </trkpt>
      <trkpt lat="44.33765" lon="1.04031">
        <ele>221</ele>
        <time>2012-09-23T09:14:30Z</time>
      </trkpt>
      <trkpt lat="44.33781" lon="1.04012">
        <ele>221</ele>
        <time>2012-09-23T09:14:35Z</time>
      </trkpt>
      <trkpt lat="44.33798" lon="1.03997">
        <ele>221</ele>
        <time>2012-09-23T09:14:40Z</time>
      </trkpt>
      <trkpt lat="44.33815" lon="1.03991">
        <ele>221</ele>
        <time>2012-09-23T09:14:45Z</time>
      </trkpt>
      <trkpt lat="44.33838" lon="1.03974">
        <ele>224</ele>
        <time>2012-09-23T09:14:51Z</time>
      </trkpt>
      <trkpt lat="44.33859" lon="1.03965">
        <ele>225</ele>
        <time>2012-09-23T09:14:56Z</time>
      </trkpt>
      <trkpt lat="44.33882" lon="1.03986">
        <ele>225</ele>
        <time>2012-09-23T09:15:02Z</time>
      </trkpt>
      <trkpt lat="44.33902" lon="1.04009">
        <ele>226</ele>
        <time>2012-09-23T09:15:07Z</time>
      </trkpt>
      <trkpt lat="44.33922" lon="1.04037">
        <ele>226</ele>
        <time>2012-09-23T09:15:12Z</time>
      </trkpt>
      <trkpt lat="44.33934" lon="1.04066">
        <ele>228</ele>
        <time>2012-09-23T09:15:18Z</time>
      </trkpt>
      <trkpt lat="44.33941" lon="1.04087">
        <ele>230</ele>
        <time>2012-09-23T09:15:23Z</time>
      </trkpt>
      <trkpt lat="44.33945" lon="1.04098">
        <ele>233</ele>
        <time>2012-09-23T09:15:28Z</time>
      </trkpt>
      <trkpt lat="44.33947" lon="1.0411">
        <ele>236</ele>
        <time>2012-09-23T09:15:33Z</time>
      </trkpt>
      <trkpt lat="44.33954" lon="1.04124">
        <ele>238</ele>
        <time>2012-09-23T09:15:39Z</time>
      </trkpt>
      <trkpt lat="44.33958" lon="1.04135">
        <ele>241</ele>
        <time>2012-09-23T09:15:44Z</time>
      </trkpt>
      <trkpt lat="44.33967" lon="1.04142">
        <ele>245</ele>
        <time>2012-09-23T09:15:50Z</time>
      </trkpt>
      <trkpt lat="44.33974" lon="1.04137">
        <ele>245</ele>
        <time>2012-09-23T09:15:55Z</time>
      </trkpt>
      <trkpt lat="44.33977" lon="1.0413">
        <ele>245</ele>
        <time>2012-09-23T09:16:00Z</time>
      </trkpt>
      <trkpt lat="44.33985" lon="1.04122">
        <ele>245</ele>
        <time>2012-09-23T09:16:05Z</time>
      </trkpt>
      <trkpt lat="44.33993" lon="1.04112">
        <ele>245</ele>
        <time>2012-09-23T09:16:10Z</time>
      </trkpt>
      <trkpt lat="44.34003" lon="1.04098">
        <ele>243</ele>
        <time>2012-09-23T09:16:15Z</time>
      </trkpt>
      <trkpt lat="44.34018" lon="1.04095">
        <ele>243</ele>
        <time>2012-09-23T09:16:20Z</time>
      </trkpt>
      <trkpt lat="44.34033" lon="1.04094">
        <ele>243</ele>
        <time>2012-09-23T09:16:25Z</time>
      </trkpt>
      <trkpt lat="44.34047" lon="1.04095">
        <ele>243</ele>
        <time>2012-09-23T09:16:30Z</time>
      </trkpt>
      <trkpt lat="44.34061" lon="1.04096">
        <ele>243</ele>
        <time>2012-09-23T09:16:35Z</time>
      </trkpt>
      <trkpt lat="44.34076" lon="1.04095">
        <ele>243</ele>
        <time>2012-09-23T09:16:40Z</time>
      </trkpt>
      <trkpt lat="44.34089" lon="1.04096">
        <ele>243</ele>
        <time>2012-09-23T09:16:45Z</time>
      </trkpt>
      <trkpt lat="44.34103" lon="1.04097">
        <ele>243</ele>
        <time>2012-09-23T09:16:50Z</time>
      </trkpt>
      <trkpt lat="44.34113" lon="1.04087">
        <ele>243</ele>
        <time>2012-09-23T09:16:55Z</time>
      </trkpt>
      <trkpt lat="44.34113" lon="1.0406">
        <ele>243</ele>
        <time>2012-09-23T09:17:00Z</time>
      </trkpt>
      <trkpt lat="44.34114" lon="1.04028">
        <ele>243</ele>
        <time>2012-09-23T09:17:05Z</time>
      </trkpt>
      <trkpt lat="44.34116" lon="1.03996">
        <ele>243</ele>
        <time>2012-09-23T09:17:10Z</time>
      </trkpt>
      <trkpt lat="44.34119" lon="1.03962">
        <ele>243</ele>
        <time>2012-09-23T09:17:15Z</time>
      </trkpt>
      <trkpt lat="44.34123" lon="1.0393">
        <ele>243</ele>
        <time>2012-09-23T09:17:20Z</time>
      </trkpt>
      <trkpt lat="44.34124" lon="1.0392">
        <ele>243</ele>
        <time>2012-09-23T09:17:26Z</time>
      </trkpt>
      <trkpt lat="44.34126" lon="1.03923">
        <ele>243</ele>
        <time>2012-09-23T09:17:33Z</time>
      </trkpt>
      <trkpt lat="44.34124" lon="1.03922">
        <ele>243</ele>
        <time>2012-09-23T09:17:45Z</time>
      </trkpt>
      <trkpt lat="44.34123" lon="1.03912">
        <ele>243</ele>
        <time>2012-09-23T09:17:50Z</time>
      </trkpt>
      <trkpt lat="44.34129" lon="1.03897">
        <ele>243</ele>
        <time>2012-09-23T09:17:56Z</time>
      </trkpt>
      <trkpt lat="44.3414" lon="1.03866">
        <ele>242</ele>
        <time>2012-09-23T09:18:02Z</time>
      </trkpt>
      <trkpt lat="44.34153" lon="1.03832">
        <ele>240</ele>
        <time>2012-09-23T09:18:07Z</time>
      </trkpt>
      <trkpt lat="44.3417" lon="1.0379">
        <ele>237</ele>
        <time>2012-09-23T09:18:12Z</time>
      </trkpt>
      <trkpt lat="44.34185" lon="1.03752">
        <ele>233</ele>
        <time>2012-09-23T09:18:17Z</time>
      </trkpt>
      <trkpt lat="44.34175" lon="1.03712">
        <ele>231</ele>
        <time>2012-09-23T09:18:23Z</time>
      </trkpt>
      <trkpt lat="44.34164" lon="1.03678">
        <ele>231</ele>
        <time>2012-09-23T09:18:28Z</time>
      </trkpt>
      <trkpt lat="44.34153" lon="1.03646">
        <ele>231</ele>
        <time>2012-09-23T09:18:33Z</time>
      </trkpt>
      <trkpt lat="44.34153" lon="1.03609">
        <ele>231</ele>
        <time>2012-09-23T09:18:39Z</time>
      </trkpt>
      <trkpt lat="44.34144" lon="1.03582">
        <ele>231</ele>
        <time>2012-09-23T09:18:44Z</time>
      </trkpt>
      <trkpt lat="44.34132" lon="1.0356">
        <ele>231</ele>
        <time>2012-09-23T09:18:49Z</time>
      </trkpt>
      <trkpt lat="44.34115" lon="1.03534">
        <ele>231</ele>
        <time>2012-09-23T09:18:54Z</time>
      </trkpt>
      <trkpt lat="44.34097" lon="1.03528">
        <ele>231</ele>
        <time>2012-09-23T09:18:59Z</time>
      </trkpt>
      <trkpt lat="44.34071" lon="1.03546">
        <ele>231</ele>
        <time>2012-09-23T09:19:04Z</time>
      </trkpt>
      <trkpt lat="44.34048" lon="1.03562">
        <ele>231</ele>
        <time>2012-09-23T09:19:09Z</time>
      </trkpt>
      <trkpt lat="44.34025" lon="1.03581">
        <ele>232</ele>
        <time>2012-09-23T09:19:15Z</time>
      </trkpt>
      <trkpt lat="44.34005" lon="1.03584">
        <ele>234</ele>
        <time>2012-09-23T09:19:20Z</time>
      </trkpt>
      <trkpt lat="44.34002" lon="1.03557">
        <ele>235</ele>
        <time>2012-09-23T09:19:25Z</time>
      </trkpt>
      <trkpt lat="44.34003" lon="1.03517">
        <ele>235</ele>
        <time>2012-09-23T09:19:30Z</time>
      </trkpt>
      <trkpt lat="44.34003" lon="1.03465">
        <ele>235</ele>
        <time>2012-09-23T09:19:35Z</time>
      </trkpt>
      <trkpt lat="44.33999" lon="1.03411">
        <ele>235</ele>
        <time>2012-09-23T09:19:40Z</time>
      </trkpt>
      <trkpt lat="44.3399" lon="1.03361">
        <ele>235</ele>
        <time>2012-09-23T09:19:45Z</time>
      </trkpt>
      <trkpt lat="44.33982" lon="1.0331">
        <ele>234</ele>
        <time>2012-09-23T09:19:50Z</time>
      </trkpt>
      <trkpt lat="44.3397" lon="1.03261">
        <ele>233</ele>
        <time>2012-09-23T09:19:55Z</time>
      </trkpt>
      <trkpt lat="44.3395" lon="1.03222">
        <ele>233</ele>
        <time>2012-09-23T09:20:00Z</time>
      </trkpt>
      <trkpt lat="44.33926" lon="1.03192">
        <ele>233</ele>
        <time>2012-09-23T09:20:06Z</time>
      </trkpt>
      <trkpt lat="44.3391" lon="1.03159">
        <ele>233</ele>
        <time>2012-09-23T09:20:12Z</time>
      </trkpt>
      <trkpt lat="44.33902" lon="1.03131">
        <ele>233</ele>
        <time>2012-09-23T09:20:17Z</time>
      </trkpt>
      <trkpt lat="44.33896" lon="1.03094">
        <ele>232</ele>
        <time>2012-09-23T09:20:22Z</time>
      </trkpt>
      <trkpt lat="44.33894" lon="1.03046">
        <ele>232</ele>
        <time>2012-09-23T09:20:27Z</time>
      </trkpt>
      <trkpt lat="44.33896" lon="1.02991">
        <ele>231</ele>
        <time>2012-09-23T09:20:32Z</time>
      </trkpt>
      <trkpt lat="44.33892" lon="1.02945">
        <ele>231</ele>
        <time>2012-09-23T09:20:37Z</time>
      </trkpt>
      <trkpt lat="44.33883" lon="1.02899">
        <ele>231</ele>
        <time>2012-09-23T09:20:42Z</time>
      </trkpt>
      <trkpt lat="44.33876" lon="1.02855">
        <ele>230</ele>
        <time>2012-09-23T09:20:47Z</time>
      </trkpt>
      <trkpt lat="44.33872" lon="1.02813">
        <ele>229</ele>
        <time>2012-09-23T09:20:52Z</time>
      </trkpt>
      <trkpt lat="44.33867" lon="1.0277">
        <ele>229</ele>
        <time>2012-09-23T09:20:57Z</time>
      </trkpt>
      <trkpt lat="44.33864" lon="1.02726">
        <ele>228</ele>
        <time>2012-09-23T09:21:02Z</time>
      </trkpt>
      <trkpt lat="44.33863" lon="1.02689">
        <ele>228</ele>
        <time>2012-09-23T09:21:07Z</time>
      </trkpt>
      <trkpt lat="44.33853" lon="1.02665">
        <ele>227</ele>
        <time>2012-09-23T09:21:12Z</time>
      </trkpt>
      <trkpt lat="44.33829" lon="1.02658">
        <ele>226</ele>
        <time>2012-09-23T09:21:17Z</time>
      </trkpt>
      <trkpt lat="44.33805" lon="1.02648">
        <ele>225</ele>
        <time>2012-09-23T09:21:22Z</time>
      </trkpt>
      <trkpt lat="44.33791" lon="1.02657">
        <ele>223</ele>
        <time>2012-09-23T09:21:27Z</time>
      </trkpt>
      <trkpt lat="44.33784" lon="1.02652">
        <ele>221</ele>
        <time>2012-09-23T09:21:33Z</time>
      </trkpt>
      <trkpt lat="44.33778" lon="1.02652">
        <ele>221</ele>
        <time>2012-09-23T09:21:40Z</time>
      </trkpt>
      <trkpt lat="44.33777" lon="1.02653">
        <ele>221</ele>
        <time>2012-09-23T09:21:45Z</time>
      </trkpt>
      <trkpt lat="44.33774" lon="1.02651">
        <ele>221</ele>
        <time>2012-09-23T09:21:51Z</time>
      </trkpt>
      <trkpt lat="44.3377" lon="1.02652">
        <ele>221</ele>
        <time>2012-09-23T09:22:00Z</time>
      </trkpt>
      <trkpt lat="44.33767" lon="1.02655">
        <ele>221</ele>
        <time>2012-09-23T09:22:05Z</time>
      </trkpt>
      <trkpt lat="44.33767" lon="1.02657">
        <ele>221</ele>
        <time>2012-09-23T09:22:11Z</time>
      </trkpt>
      <trkpt lat="44.33757" lon="1.02672">
        <ele>221</ele>
        <time>2012-09-23T09:22:16Z</time>
      </trkpt>
      <trkpt lat="44.33732" lon="1.02689">
        <ele>217</ele>
        <time>2012-09-23T09:22:22Z</time>
      </trkpt>
      <trkpt lat="44.33712" lon="1.02708">
        <ele>212</ele>
        <time>2012-09-23T09:22:27Z</time>
      </trkpt>
      <trkpt lat="44.33696" lon="1.02738">
        <ele>207</ele>
        <time>2012-09-23T09:22:32Z</time>
      </trkpt>
      <trkpt lat="44.33693" lon="1.02785">
        <ele>202</ele>
        <time>2012-09-23T09:22:37Z</time>
      </trkpt>
      <trkpt lat="44.33708" lon="1.02829">
        <ele>199</ele>
        <time>2012-09-23T09:22:42Z</time>
      </trkpt>
      <trkpt lat="44.33716" lon="1.02867">
        <ele>196</ele>
        <time>2012-09-23T09:22:47Z</time>
      </trkpt>
      <trkpt lat="44.33704" lon="1.0291">
        <ele>196</ele>
        <time>2012-09-23T09:22:52Z</time>
      </trkpt>
      <trkpt lat="44.33681" lon="1.02902">
        <ele>196</ele>
        <time>2012-09-23T09:22:57Z</time>
      </trkpt>
      <trkpt lat="44.3364" lon="1.02887">
        <ele>192</ele>
        <time>2012-09-23T09:23:02Z</time>
      </trkpt>
      <trkpt lat="44.3362" lon="1.0287">
        <ele>186</ele>
        <time>2012-09-23T09:23:07Z</time>
      </trkpt>
      <trkpt lat="44.33622" lon="1.02833">
        <ele>181</ele>
        <time>2012-09-23T09:23:12Z</time>
      </trkpt>
      <trkpt lat="44.33626" lon="1.02781">
        <ele>175</ele>
        <time>2012-09-23T09:23:18Z</time>
      </trkpt>
      <trkpt lat="44.33626" lon="1.02738">
        <ele>175</ele>
        <time>2012-09-23T09:23:23Z</time>
      </trkpt>
      <trkpt lat="44.33622" lon="1.02692">
        <ele>175</ele>
        <time>2012-09-23T09:23:29Z</time>
      </trkpt>
      <trkpt lat="44.33618" lon="1.02655">
        <ele>174</ele>
        <time>2012-09-23T09:23:34Z</time>
      </trkpt>
      <trkpt lat="44.33614" lon="1.02614">
        <ele>173</ele>
        <time>2012-09-23T09:23:39Z</time>
      </trkpt>
      <trkpt lat="44.33609" lon="1.0257">
        <ele>169</ele>
        <time>2012-09-23T09:23:44Z</time>
      </trkpt>
      <trkpt lat="44.33601" lon="1.02524">
        <ele>168</ele>
        <time>2012-09-23T09:23:49Z</time>
      </trkpt>
      <trkpt lat="44.33594" lon="1.02477">
        <ele>168</ele>
        <time>2012-09-23T09:23:54Z</time>
      </trkpt>
      <trkpt lat="44.33587" lon="1.02422">
        <ele>167</ele>
        <time>2012-09-23T09:24:00Z</time>
      </trkpt>
      <trkpt lat="44.33581" lon="1.02376">
        <ele>165</ele>
        <time>2012-09-23T09:24:05Z</time>
      </trkpt>
      <trkpt lat="44.33572" lon="1.02333">
        <ele>165</ele>
        <time>2012-09-23T09:24:10Z</time>
      </trkpt>
      <trkpt lat="44.33558" lon="1.02293">
        <ele>165</ele>
        <time>2012-09-23T09:24:15Z</time>
      </trkpt>
      <trkpt lat="44.3355" lon="1.0225">
        <ele>164</ele>
        <time>2012-09-23T09:24:20Z</time>
      </trkpt>
      <trkpt lat="44.33542" lon="1.02208">
        <ele>164</ele>
        <time>2012-09-23T09:24:25Z</time>
      </trkpt>
      <trkpt lat="44.33537" lon="1.02167">
        <ele>164</ele>
        <time>2012-09-23T09:24:30Z</time>
      </trkpt>
      <trkpt lat="44.33547" lon="1.02125">
        <ele>164</ele>
        <time>2012-09-23T09:24:35Z</time>
      </trkpt>
      <trkpt lat="44.33568" lon="1.02085">
        <ele>164</ele>
        <time>2012-09-23T09:24:40Z</time>
      </trkpt>
      <trkpt lat="44.3359" lon="1.02047">
        <ele>161</ele>
        <time>2012-09-23T09:24:45Z</time>
      </trkpt>
      <trkpt lat="44.33614" lon="1.02021">
        <ele>160</ele>
        <time>2012-09-23T09:24:50Z</time>
      </trkpt>
      <trkpt lat="44.33636" lon="1.02005">
        <ele>160</ele>
        <time>2012-09-23T09:24:55Z</time>
      </trkpt>
      <trkpt lat="44.33661" lon="1.02">
        <ele>162</ele>
        <time>2012-09-23T09:25:00Z</time>
      </trkpt>
      <trkpt lat="44.3368" lon="1.01995">
        <ele>166</ele>
        <time>2012-09-23T09:25:05Z</time>
      </trkpt>
      <trkpt lat="44.33707" lon="1.01986">
        <ele>167</ele>
        <time>2012-09-23T09:25:10Z</time>
      </trkpt>
      <trkpt lat="44.33734" lon="1.01972">
        <ele>167</ele>
        <time>2012-09-23T09:25:15Z</time>
      </trkpt>
      <trkpt lat="44.33762" lon="1.01955">
        <ele>167</ele>
        <time>2012-09-23T09:25:20Z</time>
      </trkpt>
      <trkpt lat="44.33798" lon="1.01938">
        <ele>167</ele>
        <time>2012-09-23T09:25:25Z</time>
      </trkpt>
      <trkpt lat="44.33835" lon="1.0191">
        <ele>166</ele>
        <time>2012-09-23T09:25:30Z</time>
      </trkpt>
      <trkpt lat="44.33856" lon="1.01883">
        <ele>162</ele>
        <time>2012-09-23T09:25:35Z</time>
      </trkpt>
      <trkpt lat="44.33874" lon="1.01886">
        <ele>162</ele>
        <time>2012-09-23T09:25:40Z</time>
      </trkpt>
      <trkpt lat="44.33886" lon="1.01918">
        <ele>162</ele>
        <time>2012-09-23T09:25:45Z</time>
      </trkpt>
      <trkpt lat="44.33889" lon="1.01958">
        <ele>159</ele>
        <time>2012-09-23T09:25:50Z</time>
      </trkpt>
      <trkpt lat="44.33901" lon="1.01992">
        <ele>156</ele>
        <time>2012-09-23T09:25:55Z</time>
      </trkpt>
      <trkpt lat="44.33915" lon="1.02023">
        <ele>156</ele>
        <time>2012-09-23T09:26:00Z</time>
      </trkpt>
      <trkpt lat="44.3394" lon="1.02042">
        <ele>156</ele>
        <time>2012-09-23T09:26:05Z</time>
      </trkpt>
      <trkpt lat="44.33947" lon="1.02073">
        <ele>156</ele>
        <time>2012-09-23T09:26:10Z</time>
      </trkpt>
      <trkpt lat="44.33939" lon="1.02103">
        <ele>156</ele>
        <time>2012-09-23T09:26:15Z</time>
      </trkpt>
      <trkpt lat="44.33955" lon="1.02129">
        <ele>156</ele>
        <time>2012-09-23T09:26:20Z</time>
      </trkpt>
      <trkpt lat="44.33974" lon="1.02161">
        <ele>157</ele>
        <time>2012-09-23T09:26:25Z</time>
      </trkpt>
      <trkpt lat="44.34" lon="1.02202">
        <ele>158</ele>
        <time>2012-09-23T09:26:30Z</time>
      </trkpt>
      <trkpt lat="44.34026" lon="1.02242">
        <ele>159</ele>
        <time>2012-09-23T09:26:35Z</time>
      </trkpt>
      <trkpt lat="44.34043" lon="1.02273">
        <ele>159</ele>
        <time>2012-09-23T09:26:40Z</time>
      </trkpt>
      <trkpt lat="44.34056" lon="1.02295">
        <ele>159</ele>
        <time>2012-09-23T09:26:45Z</time>
      </trkpt>
      <trkpt lat="44.3407" lon="1.02308">
        <ele>159</ele>
        <time>2012-09-23T09:26:50Z</time>
      </trkpt>
      <trkpt lat="44.34084" lon="1.0232">
        <ele>159</ele>
        <time>2012-09-23T09:26:55Z</time>
      </trkpt>
      <trkpt lat="44.34098" lon="1.02313">
        <ele>159</ele>
        <time>2012-09-23T09:27:00Z</time>
      </trkpt>
      <trkpt lat="44.34105" lon="1.0231">
        <ele>159</ele>
        <time>2012-09-23T09:27:07Z</time>
      </trkpt>
      <trkpt lat="44.34108" lon="1.0231">
        <ele>159</ele>
        <time>2012-09-23T09:27:13Z</time>
      </trkpt>
      <trkpt lat="44.34108" lon="1.02309">
        <ele>159</ele>
        <time>2012-09-23T09:27:19Z</time>
      </trkpt>
      <trkpt lat="44.34108" lon="1.02308">
        <ele>159</ele>
        <time>2012-09-23T09:27:22Z</time>
      </trkpt>
    </trkseg>
  </trk>
</gpx>